Wetterdaten: Samstag, 13.08.2016
Datum Zeit Temp. A. Feuchte A. Luftdruck Regen Wind Richtung Richtung Sonnenschein ET UV Solar Taupunkt Windchill Windben Empfang
13.08.2016 00:00 14,6 C 95 % 1026,0 hPa 0,0 l/m 8,0 km/h (2 Bft) SW 231 0 min 0,000 mm 0,0 UV-I 0 W/m 13,8 C 13,7 C 12,9 km/h (3 Bft) 100,00 %
13.08.2016 00:02 14,6 C 95 % 1025,9 hPa 0,0 l/m 9,2 km/h (2 Bft) SW 224 0 min 0,000 mm 0,0 UV-I 0 W/m 13,8 C 13,1 C 14,5 km/h (3 Bft) 97,37 %
13.08.2016 00:04 14,6 C 95 % 1026,0 hPa 0,0 l/m 8,1 km/h (2 Bft) SW 234 0 min 0,000 mm 0,0 UV-I 0 W/m 13,8 C 13,6 C 11,3 km/h (2 Bft) 97,87 %
13.08.2016 00:06 14,6 C 95 % 1025,9 hPa 0,0 l/m 9,3 km/h (2 Bft) SW 225 0 min 0,000 mm 0,0 UV-I 0 W/m 13,8 C 13,0 C 14,5 km/h (3 Bft) 100,00 %
13.08.2016 00:08 14,6 C 95 % 1025,9 hPa 0,0 l/m 8,3 km/h (2 Bft) S-SW 207 0 min 0,000 mm 0,0 UV-I 0 W/m 13,8 C 13,5 C 11,3 km/h (2 Bft) 95,74 %
13.08.2016 00:10 14,6 C 95 % 1025,9 hPa 0,0 l/m 7,3 km/h (2 Bft) SW 233 0 min 0,000 mm 0,0 UV-I 0 W/m 13,8 C 14,1 C 14,5 km/h (3 Bft) 100,00 %
13.08.2016 00:12 14,7 C 95 % 1025,9 hPa 0,0 l/m 9,7 km/h (2 Bft) SW 235 0 min 0,000 mm 0,0 UV-I 0 W/m 13,9 C 12,9 C 16,1 km/h (3 Bft) 97,87 %
13.08.2016 00:14 14,7 C 95 % 1025,9 hPa 0,0 l/m 9,4 km/h (2 Bft) W-SW 242 0 min 0,000 mm 0,0 UV-I 0 W/m 13,9 C 13,1 C 14,5 km/h (3 Bft) 100,00 %
13.08.2016 00:16 14,7 C 95 % 1025,9 hPa 0,0 l/m 7,9 km/h (2 Bft) W-SW 246 0 min 0,000 mm 0,0 UV-I 0 W/m 13,9 C 13,8 C 12,9 km/h (3 Bft) 100,00 %
13.08.2016 00:18 14,7 C 95 % 1025,8 hPa 0,0 l/m 9,3 km/h (2 Bft) SW 236 0 min 0,000 mm 0,0 UV-I 0 W/m 13,9 C 13,1 C 16,1 km/h (3 Bft) 100,00 %
13.08.2016 00:20 14,7 C 95 % 1025,8 hPa 0,0 l/m 9,3 km/h (2 Bft) W-SW 255 0 min 0,000 mm 0,0 UV-I 0 W/m 13,9 C 13,1 C 16,1 km/h (3 Bft) 100,00 %
13.08.2016 00:22 14,7 C 95 % 1025,8 hPa 0,0 l/m 8,7 km/h (2 Bft) SW 232 0 min 0,000 mm 0,0 UV-I 0 W/m 13,9 C 13,4 C 17,7 km/h (3 Bft) 100,00 %
13.08.2016 00:24 14,7 C 95 % 1025,8 hPa 0,0 l/m 10,6 km/h (2 Bft) W 264 0 min 0,000 mm 0,0 UV-I 0 W/m 13,9 C 12,5 C 16,1 km/h (3 Bft) 100,00 %
13.08.2016 00:26 14,7 C 95 % 1025,8 hPa 0,0 l/m 9,2 km/h (2 Bft) W-SW 241 0 min 0,000 mm 0,0 UV-I 0 W/m 13,9 C 13,2 C 16,1 km/h (3 Bft) 100,00 %
13.08.2016 00:28 14,7 C 95 % 1025,9 hPa 0,0 l/m 8,8 km/h (2 Bft) SW 214 0 min 0,000 mm 0,0 UV-I 0 W/m 13,9 C 13,4 C 17,7 km/h (3 Bft) 97,14 %
13.08.2016 00:30 14,7 C 95 % 1025,9 hPa 0,0 l/m 12,5 km/h (3 Bft) W-SW 257 0 min 0,000 mm 0,0 UV-I 0 W/m 13,9 C 11,7 C 20,9 km/h (4 Bft) 98,39 %
13.08.2016 00:32 14,7 C 95 % 1025,9 hPa 0,0 l/m 9,6 km/h (2 Bft) W-SW 240 0 min 0,000 mm 0,0 UV-I 0 W/m 13,9 C 13,0 C 16,1 km/h (3 Bft) 97,92 %
13.08.2016 00:34 14,7 C 95 % 1025,9 hPa 0,0 l/m 6,8 km/h (2 Bft) SW 231 0 min 0,000 mm 0,0 UV-I 0 W/m 13,9 C 14,5 C 9,7 km/h (2 Bft) 98,00 %
13.08.2016 00:36 14,7 C 95 % 1025,9 hPa 0,0 l/m 10,1 km/h (2 Bft) W-SW 248 0 min 0,000 mm 0,0 UV-I 0 W/m 13,9 C 12,7 C 17,7 km/h (3 Bft) 95,74 %
13.08.2016 00:38 14,7 C 95 % 1025,8 hPa 0,0 l/m 8,1 km/h (2 Bft) SW 236 0 min 0,000 mm 0,0 UV-I 0 W/m 13,9 C 13,7 C 14,5 km/h (3 Bft) 97,87 %
13.08.2016 00:40 14,7 C 95 % 1025,8 hPa 0,0 l/m 4,9 km/h (1 Bft) W-SW 237 0 min 0,000 mm 0,0 UV-I 0 W/m 13,9 C 14,7 C 9,7 km/h (2 Bft) 97,87 %
13.08.2016 00:42 14,7 C 95 % 1025,8 hPa 0,0 l/m 8,1 km/h (2 Bft) W-SW 243 0 min 0,000 mm 0,0 UV-I 0 W/m 13,9 C 13,7 C 16,1 km/h (3 Bft) 97,92 %
13.08.2016 00:44 14,7 C 95 % 1025,9 hPa 0,0 l/m 7,3 km/h (2 Bft) W-SW 258 0 min 0,000 mm 0,0 UV-I 0 W/m 13,9 C 14,2 C 11,3 km/h (2 Bft) 97,37 %
13.08.2016 00:46 14,7 C 95 % 1025,8 hPa 0,0 l/m 7,4 km/h (2 Bft) W-SW 255 0 min 0,000 mm 0,0 UV-I 0 W/m 13,9 C 14,1 C 12,9 km/h (3 Bft) 96,00 %
13.08.2016 00:48 14,7 C 95 % 1025,8 hPa 0,0 l/m 7,2 km/h (2 Bft) SW 232 0 min 0,000 mm 0,0 UV-I 0 W/m 13,9 C 14,2 C 11,3 km/h (2 Bft) 97,87 %
13.08.2016 00:50 14,7 C 95 % 1025,8 hPa 0,0 l/m 6,9 km/h (2 Bft) W-SW 244 0 min 0,000 mm 0,0 UV-I 0 W/m 13,9 C 14,4 C 14,5 km/h (3 Bft) 95,74 %
13.08.2016 00:52 14,7 C 95 % 1025,8 hPa 0,0 l/m 10,3 km/h (2 Bft) SW 235 0 min 0,000 mm 0,0 UV-I 0 W/m 13,9 C 12,6 C 16,1 km/h (3 Bft) 97,92 %
13.08.2016 00:54 14,7 C 95 % 1025,8 hPa 0,0 l/m 9,9 km/h (2 Bft) SW 224 0 min 0,000 mm 0,0 UV-I 0 W/m 13,9 C 12,8 C 16,1 km/h (3 Bft) 97,87 %
13.08.2016 00:56 14,8 C 94 % 1025,9 hPa 0,0 l/m 9,0 km/h (2 Bft) SW 219 0 min 0,000 mm 0,0 UV-I 0 W/m 13,8 C 13,4 C 14,5 km/h (3 Bft) 97,87 %
13.08.2016 00:58 14,8 C 94 % 1025,9 hPa 0,0 l/m 11,2 km/h (2 Bft) W 259 0 min 0,000 mm 0,0 UV-I 0 W/m 13,8 C 12,4 C 16,1 km/h (3 Bft) 95,74 %
13.08.2016 01:00 14,8 C 94 % 1025,8 hPa 0,0 l/m 9,4 km/h (2 Bft) SW 226 0 min 0,000 mm 0,0 UV-I 0 W/m 13,8 C 13,2 C 17,7 km/h (3 Bft) 97,87 %
13.08.2016 01:02 14,8 C 94 % 1025,9 hPa 0,0 l/m 10,3 km/h (2 Bft) SW 236 0 min 0,000 mm 0,0 UV-I 0 W/m 13,8 C 12,8 C 14,5 km/h (3 Bft) 97,87 %
13.08.2016 01:04 14,8 C 94 % 1025,8 hPa 0,0 l/m 8,5 km/h (2 Bft) W-SW 238 0 min 0,000 mm 0,0 UV-I 0 W/m 13,8 C 13,6 C 12,9 km/h (3 Bft) 97,87 %
13.08.2016 01:06 14,8 C 94 % 1025,8 hPa 0,0 l/m 7,0 km/h (2 Bft) SW 219 0 min 0,000 mm 0,0 UV-I 0 W/m 13,8 C 14,5 C 9,7 km/h (2 Bft) 97,87 %
13.08.2016 01:08 14,8 C 94 % 1025,8 hPa 0,0 l/m 8,6 km/h (2 Bft) SW 236 0 min 0,000 mm 0,0 UV-I 0 W/m 13,8 C 13,6 C 14,5 km/h (3 Bft) 97,87 %
13.08.2016 01:10 14,8 C 94 % 1025,8 hPa 0,0 l/m 9,0 km/h (2 Bft) S-SW 212 0 min 0,000 mm 0,0 UV-I 0 W/m 13,8 C 13,4 C 16,1 km/h (3 Bft) 95,74 %
13.08.2016 01:12 14,8 C 94 % 1025,7 hPa 0,0 l/m 9,3 km/h (2 Bft) SW 230 0 min 0,000 mm 0,0 UV-I 0 W/m 13,8 C 13,2 C 16,1 km/h (3 Bft) 97,87 %
13.08.2016 01:14 14,8 C 94 % 1025,7 hPa 0,0 l/m 9,1 km/h (2 Bft) W-SW 243 0 min 0,000 mm 0,0 UV-I 0 W/m 13,8 C 13,3 C 16,1 km/h (3 Bft) 100,00 %
13.08.2016 01:16 14,8 C 94 % 1025,7 hPa 0,0 l/m 7,9 km/h (2 Bft) S-SW 194 0 min 0,000 mm 0,0 UV-I 0 W/m 13,8 C 13,9 C 12,9 km/h (3 Bft) 95,74 %
13.08.2016 01:18 14,8 C 94 % 1025,7 hPa 0,0 l/m 10,1 km/h (2 Bft) SW 226 0 min 0,000 mm 0,0 UV-I 0 W/m 13,8 C 12,9 C 17,7 km/h (3 Bft) 100,00 %
13.08.2016 01:20 14,8 C 94 % 1025,7 hPa 0,0 l/m 10,4 km/h (2 Bft) SW 223 0 min 0,000 mm 0,0 UV-I 0 W/m 13,8 C 12,7 C 16,1 km/h (3 Bft) 97,87 %
13.08.2016 01:22 14,8 C 94 % 1025,7 hPa 0,0 l/m 8,0 km/h (2 Bft) W-SW 242 0 min 0,000 mm 0,0 UV-I 0 W/m 13,8 C 13,9 C 12,9 km/h (3 Bft) 100,00 %
13.08.2016 01:24 14,8 C 94 % 1025,7 hPa 0,0 l/m 6,7 km/h (2 Bft) SW 221 0 min 0,000 mm 0,0 UV-I 0 W/m 13,8 C 14,6 C 16,1 km/h (3 Bft) 100,00 %
13.08.2016 01:26 14,8 C 94 % 1025,7 hPa 0,0 l/m 10,9 km/h (2 Bft) SW 227 0 min 0,000 mm 0,0 UV-I 0 W/m 13,8 C 12,5 C 16,1 km/h (3 Bft) 97,92 %
13.08.2016 01:28 14,8 C 94 % 1025,6 hPa 0,0 l/m 9,9 km/h (2 Bft) SW 235 0 min 0,000 mm 0,0 UV-I 0 W/m 13,8 C 12,9 C 14,5 km/h (3 Bft) 97,37 %
13.08.2016 01:30 14,8 C 94 % 1025,6 hPa 0,0 l/m 10,4 km/h (2 Bft) W-SW 248 0 min 0,000 mm 0,0 UV-I 0 W/m 13,8 C 12,7 C 16,1 km/h (3 Bft) 97,87 %
13.08.2016 01:32 14,8 C 94 % 1025,6 hPa 0,0 l/m 10,0 km/h (2 Bft) S-SW 196 0 min 0,000 mm 0,0 UV-I 0 W/m 13,8 C 12,9 C 14,5 km/h (3 Bft) 100,00 %
13.08.2016 01:34 14,8 C 94 % 1025,6 hPa 0,0 l/m 9,8 km/h (2 Bft) W-SW 241 0 min 0,000 mm 0,0 UV-I 0 W/m 13,8 C 13,0 C 20,9 km/h (4 Bft) 97,87 %
13.08.2016 01:36 14,8 C 94 % 1025,6 hPa 0,0 l/m 8,5 km/h (2 Bft) SW 224 0 min 0,000 mm 0,0 UV-I 0 W/m 13,8 C 13,6 C 14,5 km/h (3 Bft) 100,00 %
13.08.2016 01:38 14,8 C 94 % 1025,5 hPa 0,0 l/m 9,9 km/h (2 Bft) SW 227 0 min 0,000 mm 0,0 UV-I 0 W/m 13,8 C 12,9 C 14,5 km/h (3 Bft) 97,87 %
13.08.2016 01:40 14,8 C 94 % 1025,5 hPa 0,0 l/m 9,4 km/h (2 Bft) SW 220 0 min 0,000 mm 0,0 UV-I 0 W/m 13,8 C 13,2 C 14,5 km/h (3 Bft) 97,87 %
13.08.2016 01:42 14,8 C 94 % 1025,5 hPa 0,0 l/m 9,8 km/h (2 Bft) S-SW 208 0 min 0,000 mm 0,0 UV-I 0 W/m 13,8 C 13,0 C 17,7 km/h (3 Bft) 97,87 %
13.08.2016 01:44 14,8 C 94 % 1025,5 hPa 0,0 l/m 11,8 km/h (2 Bft) SW 225 0 min 0,000 mm 0,0 UV-I 0 W/m 13,8 C 12,1 C 17,7 km/h (3 Bft) 100,00 %
13.08.2016 01:46 14,8 C 94 % 1025,4 hPa 0,0 l/m 10,3 km/h (2 Bft) W-SW 240 0 min 0,000 mm 0,0 UV-I 0 W/m 13,8 C 12,8 C 19,3 km/h (3 Bft) 97,87 %
13.08.2016 01:48 14,8 C 94 % 1025,5 hPa 0,0 l/m 11,9 km/h (2 Bft) S-SW 211 0 min 0,000 mm 0,0 UV-I 0 W/m 13,8 C 12,1 C 17,7 km/h (3 Bft) 100,00 %
13.08.2016 01:50 14,8 C 94 % 1025,4 hPa 0,0 l/m 13,1 km/h (3 Bft) SW 223 0 min 0,000 mm 0,0 UV-I 0 W/m 13,8 C 11,6 C 17,7 km/h (3 Bft) 100,00 %
13.08.2016 01:52 14,8 C 94 % 1025,4 hPa 0,0 l/m 12,0 km/h (2 Bft) SW 236 0 min 0,000 mm 0,0 UV-I 0 W/m 13,8 C 12,0 C 19,3 km/h (3 Bft) 95,74 %
13.08.2016 01:54 14,8 C 94 % 1025,4 hPa 0,0 l/m 11,0 km/h (2 Bft) SW 233 0 min 0,000 mm 0,0 UV-I 0 W/m 13,8 C 12,5 C 17,7 km/h (3 Bft) 100,00 %
13.08.2016 01:56 14,8 C 94 % 1025,4 hPa 0,0 l/m 9,5 km/h (2 Bft) W 263 0 min 0,000 mm 0,0 UV-I 0 W/m 13,8 C 13,1 C 14,5 km/h (3 Bft) 100,00 %
13.08.2016 01:58 14,8 C 94 % 1025,4 hPa 0,2 l/m 9,7 km/h (2 Bft) SW 214 0 min 0,000 mm 0,0 UV-I 0 W/m 13,8 C 13,0 C 16,1 km/h (3 Bft) 100,00 %
13.08.2016 02:00 14,8 C 94 % 1025,4 hPa 0,0 l/m 10,6 km/h (2 Bft) W-SW 246 0 min 0,000 mm 0,0 UV-I 0 W/m 13,8 C 12,6 C 17,7 km/h (3 Bft) 97,22 %
13.08.2016 02:02 14,8 C 94 % 1025,4 hPa 0,0 l/m 10,8 km/h (2 Bft) W-SW 239 0 min 0,000 mm 0,0 UV-I 0 W/m 13,8 C 12,5 C 17,7 km/h (3 Bft) 98,00 %
13.08.2016 02:04 14,8 C 94 % 1025,4 hPa 0,0 l/m 11,0 km/h (2 Bft) W-SW 239 0 min 0,000 mm 0,0 UV-I 0 W/m 13,8 C 12,5 C 17,7 km/h (3 Bft) 100,00 %
13.08.2016 02:06 14,8 C 94 % 1025,4 hPa 0,0 l/m 12,0 km/h (2 Bft) SW 223 0 min 0,000 mm 0,0 UV-I 0 W/m 13,8 C 12,0 C 19,3 km/h (3 Bft) 100,00 %
13.08.2016 02:08 14,8 C 94 % 1025,4 hPa 0,0 l/m 12,0 km/h (2 Bft) SW 225 0 min 0,000 mm 0,0 UV-I 0 W/m 13,8 C 12,0 C 19,3 km/h (3 Bft) 100,00 %
13.08.2016 02:10 14,8 C 94 % 1025,4 hPa 0,0 l/m 10,0 km/h (2 Bft) S 188 0 min 0,000 mm 0,0 UV-I 0 W/m 13,8 C 12,9 C 16,1 km/h (3 Bft) 100,00 %
13.08.2016 02:12 14,8 C 94 % 1025,4 hPa 0,0 l/m 11,1 km/h (2 Bft) SW 221 0 min 0,000 mm 0,0 UV-I 0 W/m 13,8 C 12,4 C 16,1 km/h (3 Bft) 100,00 %
13.08.2016 02:14 14,8 C 94 % 1025,4 hPa 0,0 l/m 12,3 km/h (3 Bft) SW 235 0 min 0,000 mm 0,0 UV-I 0 W/m 13,8 C 11,9 C 17,7 km/h (3 Bft) 97,87 %
13.08.2016 02:16 14,9 C 94 % 1025,4 hPa 0,0 l/m 11,6 km/h (2 Bft) SW 223 0 min 0,000 mm 0,0 UV-I 0 W/m 13,9 C 12,3 C 17,7 km/h (3 Bft) 97,87 %
13.08.2016 02:18 14,9 C 94 % 1025,4 hPa 0,0 l/m 12,7 km/h (3 Bft) SW 229 0 min 0,000 mm 0,0 UV-I 0 W/m 13,9 C 11,9 C 17,7 km/h (3 Bft) 100,00 %
13.08.2016 02:20 14,9 C 94 % 1025,4 hPa 0,0 l/m 11,8 km/h (2 Bft) SW 231 0 min 0,000 mm 0,0 UV-I 0 W/m 13,9 C 12,2 C 17,7 km/h (3 Bft) 95,74 %
13.08.2016 02:22 14,9 C 94 % 1025,3 hPa 0,0 l/m 10,9 km/h (2 Bft) W 259 0 min 0,000 mm 0,0 UV-I 0 W/m 13,9 C 12,6 C 17,7 km/h (3 Bft) 100,00 %
13.08.2016 02:24 14,9 C 94 % 1025,3 hPa 0,0 l/m 12,1 km/h (2 Bft) S-SW 211 0 min 0,000 mm 0,0 UV-I 0 W/m 13,9 C 12,1 C 20,9 km/h (4 Bft) 97,87 %
13.08.2016 02:26 14,9 C 94 % 1025,3 hPa 0,0 l/m 9,9 km/h (2 Bft) W-SW 255 0 min 0,000 mm 0,0 UV-I 0 W/m 13,9 C 13,1 C 17,7 km/h (3 Bft) 100,00 %
13.08.2016 02:28 14,9 C 94 % 1025,4 hPa 0,0 l/m 13,3 km/h (3 Bft) W-SW 242 0 min 0,000 mm 0,0 UV-I 0 W/m 13,9 C 11,7 C 20,9 km/h (4 Bft) 97,37 %
13.08.2016 02:30 14,9 C 94 % 1025,4 hPa 0,0 l/m 10,2 km/h (2 Bft) W-SW 245 0 min 0,000 mm 0,0 UV-I 0 W/m 13,9 C 12,9 C 16,1 km/h (3 Bft) 100,00 %
13.08.2016 02:32 14,9 C 94 % 1025,4 hPa 0,0 l/m 12,8 km/h (3 Bft) SW 218 0 min 0,000 mm 0,0 UV-I 0 W/m 13,9 C 11,8 C 17,7 km/h (3 Bft) 100,00 %
13.08.2016 02:34 14,9 C 94 % 1025,4 hPa 0,0 l/m 12,8 km/h (3 Bft) W-SW 240 0 min 0,000 mm 0,0 UV-I 0 W/m 13,9 C 11,8 C 19,3 km/h (3 Bft) 95,74 %
13.08.2016 02:36 14,9 C 94 % 1025,4 hPa 0,0 l/m 12,9 km/h (3 Bft) SW 233 0 min 0,000 mm 0,0 UV-I 0 W/m 13,9 C 11,8 C 17,7 km/h (3 Bft) 97,87 %
13.08.2016 02:38 14,9 C 94 % 1025,4 hPa 0,0 l/m 10,1 km/h (2 Bft) SW 229 0 min 0,000 mm 0,0 UV-I 0 W/m 13,9 C 13,0 C 16,1 km/h (3 Bft) 97,92 %
13.08.2016 02:40 14,9 C 94 % 1025,4 hPa 0,0 l/m 8,6 km/h (2 Bft) S-SW 199 0 min 0,000 mm 0,0 UV-I 0 W/m 13,9 C 13,7 C 14,5 km/h (3 Bft) 97,87 %
13.08.2016 02:42 14,9 C 94 % 1025,4 hPa 0,0 l/m 12,5 km/h (3 Bft) SW 234 0 min 0,000 mm 0,0 UV-I 0 W/m 13,9 C 12,0 C 20,9 km/h (4 Bft) 96,00 %
13.08.2016 02:44 14,9 C 95 % 1025,4 hPa 0,0 l/m 10,6 km/h (2 Bft) W-SW 242 0 min 0,000 mm 0,0 UV-I 0 W/m 14,1 C 12,7 C 16,1 km/h (3 Bft) 98,00 %
13.08.2016 02:46 14,9 C 94 % 1025,4 hPa 0,0 l/m 8,3 km/h (2 Bft) SW 219 0 min 0,000 mm 0,0 UV-I 0 W/m 13,9 C 13,8 C 14,5 km/h (3 Bft) 97,14 %
13.08.2016 02:48 14,9 C 94 % 1025,3 hPa 0,0 l/m 10,4 km/h (2 Bft) W-SW 256 0 min 0,000 mm 0,0 UV-I 0 W/m 13,9 C 12,8 C 14,5 km/h (3 Bft) 97,87 %
13.08.2016 02:50 14,8 C 95 % 1025,3 hPa 0,0 l/m 7,9 km/h (2 Bft) S-SW 208 0 min 0,000 mm 0,0 UV-I 0 W/m 14,0 C 13,9 C 12,9 km/h (3 Bft) 97,87 %
13.08.2016 02:52 14,8 C 95 % 1025,3 hPa 0,0 l/m 9,9 km/h (2 Bft) W-SW 238 0 min 0,000 mm 0,0 UV-I 0 W/m 14,0 C 12,9 C 16,1 km/h (3 Bft) 97,87 %
13.08.2016 02:54 14,8 C 95 % 1025,3 hPa 0,0 l/m 8,4 km/h (2 Bft) SW 226 0 min 0,000 mm 0,0 UV-I 0 W/m 14,0 C 13,7 C 14,5 km/h (3 Bft) 93,62 %
13.08.2016 02:56 14,8 C 95 % 1025,3 hPa 0,0 l/m 8,0 km/h (2 Bft) SW 224 0 min 0,000 mm 0,0 UV-I 0 W/m 14,0 C 13,9 C 12,9 km/h (3 Bft) 97,87 %
13.08.2016 02:58 14,8 C 95 % 1025,3 hPa 0,0 l/m 7,3 km/h (2 Bft) W-SW 250 0 min 0,000 mm 0,0 UV-I 0 W/m 14,0 C 14,3 C 11,3 km/h (2 Bft) 92,00 %
13.08.2016 03:00 14,8 C 95 % 1025,3 hPa 0,0 l/m 8,9 km/h (2 Bft) SW 225 0 min 0,000 mm 0,0 UV-I 0 W/m 14,0 C 13,4 C 16,1 km/h (3 Bft) 97,87 %
13.08.2016 03:02 14,8 C 95 % 1025,3 hPa 0,0 l/m 10,4 km/h (2 Bft) W-SW 244 0 min 0,000 mm 0,0 UV-I 0 W/m 14,0 C 12,7 C 16,1 km/h (3 Bft) 97,87 %
13.08.2016 03:04 14,8 C 95 % 1025,3 hPa 0,0 l/m 8,6 km/h (2 Bft) W-SW 254 0 min 0,000 mm 0,0 UV-I 0 W/m 14,0 C 13,6 C 12,9 km/h (3 Bft) 97,87 %
13.08.2016 03:06 14,8 C 95 % 1025,2 hPa 0,0 l/m 8,5 km/h (2 Bft) W-SW 258 0 min 0,000 mm 0,0 UV-I 0 W/m 14,0 C 13,6 C 11,3 km/h (2 Bft) 97,87 %
13.08.2016 03:08 14,8 C 95 % 1025,2 hPa 0,0 l/m 8,4 km/h (2 Bft) W-SW 240 0 min 0,000 mm 0,0 UV-I 0 W/m 14,0 C 13,7 C 12,9 km/h (3 Bft) 98,00 %
13.08.2016 03:10 14,8 C 95 % 1025,2 hPa 0,0 l/m 7,6 km/h (2 Bft) SW 232 0 min 0,000 mm 0,0 UV-I 0 W/m 14,0 C 14,1 C 16,1 km/h (3 Bft) 98,00 %
13.08.2016 03:12 14,8 C 95 % 1025,2 hPa 0,0 l/m 9,2 km/h (2 Bft) W 277 0 min 0,000 mm 0,0 UV-I 0 W/m 14,0 C 13,3 C 16,1 km/h (3 Bft) 100,00 %
13.08.2016 03:14 14,9 C 95 % 1025,2 hPa 0,0 l/m 9,4 km/h (2 Bft) W-SW 254 0 min 0,000 mm 0,0 UV-I 0 W/m 14,1 C 13,3 C 14,5 km/h (3 Bft) 97,87 %
13.08.2016 03:16 14,9 C 95 % 1025,2 hPa 0,0 l/m 10,4 km/h (2 Bft) W-SW 242 0 min 0,000 mm 0,0 UV-I 0 W/m 14,1 C 12,8 C 17,7 km/h (3 Bft) 97,56 %
13.08.2016 03:18 14,9 C 95 % 1025,2 hPa 0,0 l/m 9,5 km/h (2 Bft) SW 233 0 min 0,000 mm 0,0 UV-I 0 W/m 14,1 C 13,2 C 16,1 km/h (3 Bft) 97,92 %
13.08.2016 03:20 14,9 C 95 % 1025,2 hPa 0,0 l/m 7,6 km/h (2 Bft) W-SW 244 0 min 0,000 mm 0,0 UV-I 0 W/m 14,1 C 14,2 C 11,3 km/h (2 Bft) 100,00 %
13.08.2016 03:22 14,9 C 95 % 1025,2 hPa 0,0 l/m 8,1 km/h (2 Bft) W-SW 248 0 min 0,000 mm 0,0 UV-I 0 W/m 14,1 C 13,9 C 14,5 km/h (3 Bft) 100,00 %
13.08.2016 03:24 14,9 C 95 % 1025,2 hPa 0,0 l/m 11,3 km/h (2 Bft) W-SW 255 0 min 0,000 mm 0,0 UV-I 0 W/m 14,1 C 12,4 C 16,1 km/h (3 Bft) 100,00 %
13.08.2016 03:26 14,9 C 95 % 1025,2 hPa 0,0 l/m 8,2 km/h (2 Bft) W-SW 247 0 min 0,000 mm 0,0 UV-I 0 W/m 14,1 C 13,9 C 12,9 km/h (3 Bft) 100,00 %
13.08.2016 03:28 14,9 C 95 % 1025,2 hPa 0,0 l/m 9,2 km/h (2 Bft) W-SW 249 0 min 0,000 mm 0,0 UV-I 0 W/m 14,1 C 13,4 C 14,5 km/h (3 Bft) 100,00 %
13.08.2016 03:30 14,9 C 95 % 1025,2 hPa 0,0 l/m 8,0 km/h (2 Bft) W-SW 254 0 min 0,000 mm 0,0 UV-I 0 W/m 14,1 C 14,0 C 12,9 km/h (3 Bft) 100,00 %
13.08.2016 03:32 14,9 C 95 % 1025,2 hPa 0,0 l/m 8,1 km/h (2 Bft) W 267 0 min 0,000 mm 0,0 UV-I 0 W/m 14,1 C 13,9 C 12,9 km/h (3 Bft) 100,00 %
13.08.2016 03:34 14,9 C 95 % 1025,2 hPa 0,0 l/m 7,5 km/h (2 Bft) W 260 0 min 0,000 mm 0,0 UV-I 0 W/m 14,1 C 14,3 C 11,3 km/h (2 Bft) 97,87 %
13.08.2016 03:36 14,9 C 95 % 1025,2 hPa 0,0 l/m 8,4 km/h (2 Bft) W-SW 257 0 min 0,000 mm 0,0 UV-I 0 W/m 14,1 C 13,8 C 12,9 km/h (3 Bft) 94,74 %
13.08.2016 03:38 14,9 C 95 % 1025,2 hPa 0,0 l/m 9,8 km/h (2 Bft) W-SW 255 0 min 0,000 mm 0,0 UV-I 0 W/m 14,1 C 13,1 C 14,5 km/h (3 Bft) 100,00 %
13.08.2016 03:40 14,9 C 95 % 1025,2 hPa 0,0 l/m 7,8 km/h (2 Bft) W-SW 240 0 min 0,000 mm 0,0 UV-I 0 W/m 14,1 C 14,1 C 11,3 km/h (2 Bft) 100,00 %
13.08.2016 03:42 14,9 C 95 % 1025,2 hPa 0,0 l/m 8,4 km/h (2 Bft) S-SW 196 0 min 0,000 mm 0,0 UV-I 0 W/m 14,1 C 13,8 C 12,9 km/h (3 Bft) 97,87 %
13.08.2016 03:44 14,9 C 95 % 1025,2 hPa 0,0 l/m 9,3 km/h (2 Bft) W-SW 246 0 min 0,000 mm 0,0 UV-I 0 W/m 14,1 C 13,3 C 14,5 km/h (3 Bft) 100,00 %
13.08.2016 03:46 14,9 C 95 % 1025,2 hPa 0,0 l/m 7,9 km/h (2 Bft) W-SW 239 0 min 0,000 mm 0,0 UV-I 0 W/m 14,1 C 14,1 C 11,3 km/h (2 Bft) 97,87 %
13.08.2016 03:48 14,9 C 95 % 1025,2 hPa 0,0 l/m 7,8 km/h (2 Bft) W-SW 257 0 min 0,000 mm 0,0 UV-I 0 W/m 14,1 C 14,1 C 14,5 km/h (3 Bft) 100,00 %
13.08.2016 03:50 14,9 C 95 % 1025,1 hPa 0,0 l/m 8,6 km/h (2 Bft) SW 219 0 min 0,000 mm 0,0 UV-I 0 W/m 14,1 C 13,7 C 12,9 km/h (3 Bft) 97,87 %
13.08.2016 03:52 14,9 C 95 % 1025,1 hPa 0,0 l/m 7,9 km/h (2 Bft) SW 229 0 min 0,000 mm 0,0 UV-I 0 W/m 14,1 C 14,1 C 12,9 km/h (3 Bft) 95,83 %
13.08.2016 03:54 14,9 C 95 % 1025,1 hPa 0,0 l/m 8,4 km/h (2 Bft) W-SW 257 0 min 0,000 mm 0,0 UV-I 0 W/m 14,1 C 13,8 C 11,3 km/h (2 Bft) 100,00 %
13.08.2016 03:56 14,9 C 95 % 1025,1 hPa 0,0 l/m 7,7 km/h (2 Bft) W-SW 240 0 min 0,000 mm 0,0 UV-I 0 W/m 14,1 C 14,2 C 12,9 km/h (3 Bft) 95,74 %
13.08.2016 03:58 14,9 C 95 % 1025,1 hPa 0,0 l/m 7,6 km/h (2 Bft) W-SW 241 0 min 0,000 mm 0,0 UV-I 0 W/m 14,1 C 14,2 C 11,3 km/h (2 Bft) 95,74 %
13.08.2016 04:00 14,9 C 95 % 1025,1 hPa 0,0 l/m 10,0 km/h (2 Bft) W-SW 242 0 min 0,000 mm 0,0 UV-I 0 W/m 14,1 C 13,0 C 16,1 km/h (3 Bft) 100,00 %
13.08.2016 04:05 14,9 C 95 % 1025,0 hPa 0,0 l/m 9,3 km/h (2 Bft) SW 222 0 min 0,000 mm 0,0 UV-I 0 W/m 14,1 C 13,3 C 16,1 km/h (3 Bft) 95,83 %
13.08.2016 04:06 14,9 C 95 % 1025,0 hPa 0,0 l/m 10,0 km/h (2 Bft) W-SW 244 0 min 0,000 mm 0,0 UV-I 0 W/m 14,1 C 13,0 C 14,5 km/h (3 Bft) 100,00 %
13.08.2016 04:08 14,9 C 95 % 1025,0 hPa 0,0 l/m 6,8 km/h (2 Bft) SW 224 0 min 0,000 mm 0,0 UV-I 0 W/m 14,1 C 14,7 C 9,7 km/h (2 Bft) 97,87 %
13.08.2016 04:10 14,9 C 95 % 1025,0 hPa 0,0 l/m 8,4 km/h (2 Bft) W-SW 244 0 min 0,000 mm 0,0 UV-I 0 W/m 14,1 C 13,8 C 14,5 km/h (3 Bft) 97,87 %
13.08.2016 04:12 14,9 C 95 % 1025,0 hPa 0,0 l/m 8,8 km/h (2 Bft) SW 229 0 min 0,000 mm 0,0 UV-I 0 W/m 14,1 C 13,6 C 14,5 km/h (3 Bft) 97,87 %
13.08.2016 04:14 14,9 C 95 % 1025,0 hPa 0,0 l/m 8,8 km/h (2 Bft) W-SW 240 0 min 0,000 mm 0,0 UV-I 0 W/m 14,1 C 13,6 C 17,7 km/h (3 Bft) 100,00 %
13.08.2016 04:16 14,9 C 95 % 1025,0 hPa 0,0 l/m 10,3 km/h (2 Bft) S-SW 205 0 min 0,000 mm 0,0 UV-I 0 W/m 14,1 C 12,9 C 16,1 km/h (3 Bft) 100,00 %
13.08.2016 04:18 14,9 C 95 % 1025,0 hPa 0,0 l/m 10,5 km/h (2 Bft) W-SW 252 0 min 0,000 mm 0,0 UV-I 0 W/m 14,1 C 12,8 C 14,5 km/h (3 Bft) 100,00 %
13.08.2016 04:20 14,9 C 95 % 1025,0 hPa 0,0 l/m 8,1 km/h (2 Bft) W-SW 253 0 min 0,000 mm 0,0 UV-I 0 W/m 14,1 C 13,9 C 12,9 km/h (3 Bft) 97,87 %
13.08.2016 04:22 14,9 C 95 % 1025,0 hPa 0,0 l/m 7,4 km/h (2 Bft) S-SW 201 0 min 0,000 mm 0,0 UV-I 0 W/m 14,1 C 14,3 C 11,3 km/h (2 Bft) 100,00 %
13.08.2016 04:24 14,9 C 95 % 1025,0 hPa 0,0 l/m 8,1 km/h (2 Bft) SW 236 0 min 0,000 mm 0,0 UV-I 0 W/m 14,1 C 13,9 C 14,5 km/h (3 Bft) 100,00 %
13.08.2016 04:26 14,9 C 95 % 1025,0 hPa 0,0 l/m 8,1 km/h (2 Bft) W-SW 244 0 min 0,000 mm 0,0 UV-I 0 W/m 14,1 C 13,9 C 14,5 km/h (3 Bft) 97,87 %
13.08.2016 04:28 14,9 C 95 % 1025,0 hPa 0,0 l/m 8,0 km/h (2 Bft) W-SW 238 0 min 0,000 mm 0,0 UV-I 0 W/m 14,1 C 14,0 C 16,1 km/h (3 Bft) 97,87 %
13.08.2016 04:30 15,0 C 95 % 1025,0 hPa 0,0 l/m 8,2 km/h (2 Bft) S-SW 202 0 min 0,000 mm 0,0 UV-I 0 W/m 14,2 C 14,0 C 12,9 km/h (3 Bft) 100,00 %
13.08.2016 04:32 15,0 C 95 % 1024,9 hPa 0,0 l/m 9,4 km/h (2 Bft) W-SW 241 0 min 0,000 mm 0,0 UV-I 0 W/m 14,2 C 13,4 C 14,5 km/h (3 Bft) 100,00 %
13.08.2016 04:34 15,1 C 95 % 1025,0 hPa 0,0 l/m 9,0 km/h (2 Bft) W-SW 237 0 min 0,000 mm 0,0 UV-I 0 W/m 14,3 C 13,7 C 17,7 km/h (3 Bft) 100,00 %
13.08.2016 04:36 15,0 C 95 % 1024,9 hPa 0,0 l/m 8,1 km/h (2 Bft) SW 214 0 min 0,000 mm 0,0 UV-I 0 W/m 14,2 C 14,0 C 12,9 km/h (3 Bft) 98,00 %
13.08.2016 04:38 15,1 C 95 % 1025,0 hPa 0,0 l/m 8,1 km/h (2 Bft) SW 236 0 min 0,000 mm 0,0 UV-I 0 W/m 14,3 C 14,2 C 14,5 km/h (3 Bft) 97,87 %
13.08.2016 04:40 15,1 C 95 % 1025,0 hPa 0,0 l/m 7,6 km/h (2 Bft) W-SW 248 0 min 0,000 mm 0,0 UV-I 0 W/m 14,3 C 14,4 C 14,5 km/h (3 Bft) 96,00 %
13.08.2016 04:42 15,1 C 95 % 1024,9 hPa 0,0 l/m 8,3 km/h (2 Bft) SW 234 0 min 0,000 mm 0,0 UV-I 0 W/m 14,3 C 14,0 C 14,5 km/h (3 Bft) 97,87 %
13.08.2016 04:44 15,1 C 95 % 1024,9 hPa 0,0 l/m 8,3 km/h (2 Bft) W 271 0 min 0,000 mm 0,0 UV-I 0 W/m 14,3 C 14,0 C 12,9 km/h (3 Bft) 97,87 %
13.08.2016 04:46 15,1 C 94 % 1025,0 hPa 0,0 l/m 10,8 km/h (2 Bft) W-SW 248 0 min 0,000 mm 0,0 UV-I 0 W/m 14,1 C 12,9 C 16,1 km/h (3 Bft) 97,87 %
13.08.2016 04:48 15,1 C 94 % 1024,9 hPa 0,0 l/m 10,2 km/h (2 Bft) SW 219 0 min 0,000 mm 0,0 UV-I 0 W/m 14,1 C 13,1 C 16,1 km/h (3 Bft) 95,74 %
13.08.2016 04:50 15,1 C 94 % 1025,0 hPa 0,0 l/m 9,0 km/h (2 Bft) W-SW 248 0 min 0,000 mm 0,0 UV-I 0 W/m 14,1 C 13,7 C 14,5 km/h (3 Bft) 95,74 %
13.08.2016 04:52 15,2 C 94 % 1024,9 hPa 0,0 l/m 9,2 km/h (2 Bft) W-SW 246 0 min 0,000 mm 0,0 UV-I 0 W/m 14,2 C 13,7 C 14,5 km/h (3 Bft) 95,74 %
13.08.2016 04:54 15,2 C 94 % 1025,0 hPa 0,0 l/m 5,8 km/h (2 Bft) W-SW 248 0 min 0,000 mm 0,0 UV-I 0 W/m 14,2 C 15,2 C 14,5 km/h (3 Bft) 97,87 %
13.08.2016 04:56 15,2 C 94 % 1025,0 hPa 0,0 l/m 10,0 km/h (2 Bft) W-SW 251 0 min 0,000 mm 0,0 UV-I 0 W/m 14,2 C 13,3 C 14,5 km/h (3 Bft) 97,87 %
13.08.2016 04:58 15,2 C 94 % 1025,0 hPa 0,0 l/m 9,2 km/h (2 Bft) S-SW 202 0 min 0,000 mm 0,0 UV-I 0 W/m 14,2 C 13,7 C 14,5 km/h (3 Bft) 97,87 %
13.08.2016 05:00 15,2 C 94 % 1025,0 hPa 0,0 l/m 9,2 km/h (2 Bft) W-SW 239 0 min 0,000 mm 0,0 UV-I 0 W/m 14,2 C 13,7 C 12,9 km/h (3 Bft) 95,74 %
13.08.2016 05:02 15,2 C 94 % 1025,0 hPa 0,0 l/m 9,5 km/h (2 Bft) W 262 0 min 0,000 mm 0,0 UV-I 0 W/m 14,2 C 13,6 C 14,5 km/h (3 Bft) 97,14 %
13.08.2016 05:04 15,2 C 94 % 1025,0 hPa 0,0 l/m 10,2 km/h (2 Bft) W-NW 287 0 min 0,000 mm 0,0 UV-I 0 W/m 14,2 C 13,2 C 14,5 km/h (3 Bft) 97,87 %
13.08.2016 05:06 15,2 C 94 % 1025,0 hPa 0,0 l/m 8,5 km/h (2 Bft) S-SW 200 0 min 0,000 mm 0,0 UV-I 0 W/m 14,2 C 14,1 C 14,5 km/h (3 Bft) 97,87 %
13.08.2016 05:08 15,2 C 94 % 1025,0 hPa 0,0 l/m 9,7 km/h (2 Bft) W-SW 242 0 min 0,000 mm 0,0 UV-I 0 W/m 14,2 C 13,5 C 14,5 km/h (3 Bft) 97,87 %
13.08.2016 05:10 15,2 C 94 % 1025,0 hPa 0,0 l/m 9,9 km/h (2 Bft) SW 229 0 min 0,000 mm 0,0 UV-I 0 W/m 14,2 C 13,4 C 14,5 km/h (3 Bft) 100,00 %
13.08.2016 05:12 15,2 C 94 % 1025,0 hPa 0,0 l/m 7,7 km/h (2 Bft) SW 218 0 min 0,000 mm 0,0 UV-I 0 W/m 14,2 C 14,5 C 12,9 km/h (3 Bft) 100,00 %
13.08.2016 05:14 15,2 C 94 % 1025,0 hPa 0,0 l/m 8,0 km/h (2 Bft) W-SW 249 0 min 0,000 mm 0,0 UV-I 0 W/m 14,2 C 14,3 C 12,9 km/h (3 Bft) 97,92 %
13.08.2016 05:16 15,2 C 94 % 1025,0 hPa 0,0 l/m 9,2 km/h (2 Bft) W-SW 248 0 min 0,000 mm 0,0 UV-I 0 W/m 14,2 C 13,7 C 16,1 km/h (3 Bft) 100,00 %
13.08.2016 05:18 15,2 C 94 % 1025,0 hPa 0,0 l/m 7,9 km/h (2 Bft) SW 217 0 min 0,000 mm 0,0 UV-I 0 W/m 14,2 C 14,4 C 12,9 km/h (3 Bft) 97,87 %
13.08.2016 05:20 15,2 C 94 % 1025,0 hPa 0,0 l/m 6,9 km/h (2 Bft) SW 229 0 min 0,000 mm 0,0 UV-I 0 W/m 14,2 C 14,9 C 9,7 km/h (2 Bft) 95,74 %
13.08.2016 05:22 15,2 C 94 % 1025,0 hPa 0,0 l/m 8,9 km/h (2 Bft) SW 229 0 min 0,000 mm 0,0 UV-I 0 W/m 14,2 C 13,9 C 14,5 km/h (3 Bft) 97,87 %
13.08.2016 05:24 15,2 C 94 % 1025,0 hPa 0,0 l/m 10,4 km/h (2 Bft) W-SW 242 0 min 0,000 mm 0,0 UV-I 0 W/m 14,2 C 13,2 C 16,1 km/h (3 Bft) 100,00 %
13.08.2016 05:26 15,1 C 94 % 1025,1 hPa 0,0 l/m 9,0 km/h (2 Bft) SW 232 0 min 0,000 mm 0,0 UV-I 0 W/m 14,1 C 13,7 C 14,5 km/h (3 Bft) 100,00 %
13.08.2016 05:28 15,1 C 95 % 1025,0 hPa 0,0 l/m 8,5 km/h (2 Bft) W-SW 242 0 min 0,000 mm 0,0 UV-I 0 W/m 14,3 C 13,9 C 14,5 km/h (3 Bft) 97,87 %
13.08.2016 05:30 15,1 C 95 % 1025,1 hPa 0,0 l/m 8,4 km/h (2 Bft) SW 234 0 min 0,000 mm 0,0 UV-I 0 W/m 14,3 C 14,0 C 12,9 km/h (3 Bft) 100,00 %
13.08.2016 05:32 15,1 C 95 % 1025,1 hPa 0,0 l/m 7,8 km/h (2 Bft) W-SW 256 0 min 0,000 mm 0,0 UV-I 0 W/m 14,3 C 14,3 C 14,5 km/h (3 Bft) 100,00 %
13.08.2016 05:34 15,1 C 95 % 1025,0 hPa 0,0 l/m 9,6 km/h (2 Bft) W-SW 246 0 min 0,000 mm 0,0 UV-I 0 W/m 14,3 C 13,4 C 16,1 km/h (3 Bft) 97,87 %
13.08.2016 05:36 15,1 C 95 % 1025,1 hPa 0,0 l/m 8,0 km/h (2 Bft) SW 227 0 min 0,000 mm 0,0 UV-I 0 W/m 14,3 C 14,2 C 14,5 km/h (3 Bft) 100,00 %
13.08.2016 05:38 15,1 C 95 % 1025,1 hPa 0,0 l/m 6,8 km/h (2 Bft) W 261 0 min 0,000 mm 0,0 UV-I 0 W/m 14,3 C 14,9 C 11,3 km/h (2 Bft) 100,00 %
13.08.2016 05:40 15,2 C 95 % 1025,1 hPa 0,0 l/m 6,9 km/h (2 Bft) W-SW 254 0 min 0,000 mm 0,0 UV-I 0 W/m 14,4 C 14,9 C 11,3 km/h (2 Bft) 98,00 %
13.08.2016 05:42 15,2 C 95 % 1025,1 hPa 0,0 l/m 7,4 km/h (2 Bft) W-SW 237 0 min 0,000 mm 0,0 UV-I 0 W/m 14,4 C 14,6 C 14,5 km/h (3 Bft) 97,87 %
13.08.2016 05:44 15,2 C 95 % 1025,1 hPa 0,0 l/m 6,3 km/h (2 Bft) W-SW 255 0 min 0,000 mm 0,0 UV-I 0 W/m 14,4 C 15,2 C 9,7 km/h (2 Bft) 100,00 %
13.08.2016 05:46 15,2 C 95 % 1025,1 hPa 0,0 l/m 7,7 km/h (2 Bft) SW 235 0 min 0,000 mm 0,0 UV-I 0 W/m 14,4 C 14,5 C 12,9 km/h (3 Bft) 100,00 %
13.08.2016 05:48 15,2 C 95 % 1025,1 hPa 0,0 l/m 8,9 km/h (2 Bft) W-SW 238 0 min 0,000 mm 0,0 UV-I 0 W/m 14,4 C 13,9 C 17,7 km/h (3 Bft) 100,00 %
13.08.2016 05:50 15,2 C 95 % 1025,1 hPa 0,0 l/m 7,5 km/h (2 Bft) W-SW 242 0 min 0,000 mm 0,0 UV-I 0 W/m 14,4 C 14,6 C 16,1 km/h (3 Bft) 97,87 %
13.08.2016 05:52 15,2 C 95 % 1025,1 hPa 0,0 l/m 8,7 km/h (2 Bft) W-SW 248 0 min 0,000 mm 0,0 UV-I 0 W/m 14,4 C 14,0 C 16,1 km/h (3 Bft) 100,00 %
13.08.2016 05:54 15,2 C 95 % 1025,1 hPa 0,0 l/m 7,8 km/h (2 Bft) W-SW 242 0 min 0,000 mm 0,0 UV-I 0 W/m 14,4 C 14,4 C 12,9 km/h (3 Bft) 100,00 %
13.08.2016 05:56 15,2 C 95 % 1025,0 hPa 0,0 l/m 7,3 km/h (2 Bft) W-SW 244 0 min 0,000 mm 0,0 UV-I 0 W/m 14,4 C 14,7 C 9,7 km/h (2 Bft) 100,00 %
13.08.2016 05:58 15,2 C 95 % 1025,1 hPa 0,0 l/m 8,0 km/h (2 Bft) SW 229 0 min 0,000 mm 0,0 UV-I 0 W/m 14,4 C 14,3 C 12,9 km/h (3 Bft) 100,00 %
13.08.2016 06:00 15,2 C 95 % 1025,1 hPa 0,0 l/m 6,5 km/h (2 Bft) W-SW 248 0 min 0,000 mm 0,0 UV-I 0 W/m 14,4 C 15,2 C 9,7 km/h (2 Bft) 100,00 %
13.08.2016 06:02 15,2 C 94 % 1025,0 hPa 0,0 l/m 7,7 km/h (2 Bft) SW 223 0 min 0,000 mm 0,0 UV-I 0 W/m 14,2 C 14,5 C 14,5 km/h (3 Bft) 100,00 %
13.08.2016 06:04 15,2 C 94 % 1025,0 hPa 0,0 l/m 7,9 km/h (2 Bft) W-SW 257 0 min 0,000 mm 0,0 UV-I 0 W/m 14,2 C 14,4 C 12,9 km/h (3 Bft) 97,87 %
13.08.2016 06:06 15,2 C 94 % 1025,0 hPa 0,0 l/m 8,4 km/h (2 Bft) SW 234 0 min 0,000 mm 0,0 UV-I 0 W/m 14,2 C 14,1 C 16,1 km/h (3 Bft) 100,00 %
13.08.2016 06:08 15,2 C 95 % 1025,0 hPa 0,0 l/m 7,4 km/h (2 Bft) S-SW 205 0 min 0,000 mm 0,0 UV-I 0 W/m 14,4 C 14,6 C 12,9 km/h (3 Bft) 100,00 %
13.08.2016 06:10 15,2 C 95 % 1025,0 hPa 0,0 l/m 8,8 km/h (2 Bft) W-SW 256 0 min 0,000 mm 0,0 UV-I 0 W/m 14,4 C 13,9 C 12,9 km/h (3 Bft) 100,00 %
13.08.2016 06:12 15,2 C 95 % 1025,0 hPa 0,0 l/m 7,4 km/h (2 Bft) SW 235 0 min 0,000 mm 0,0 UV-I 0 W/m 14,4 C 14,6 C 11,3 km/h (2 Bft) 100,00 %
13.08.2016 06:14 15,2 C 95 % 1025,0 hPa 0,0 l/m 8,3 km/h (2 Bft) W-SW 246 0 min 0,000 mm 0,0 UV-I 0 W/m 14,4 C 14,2 C 11,3 km/h (2 Bft) 97,87 %
13.08.2016 06:16 15,2 C 95 % 1025,0 hPa 0,0 l/m 7,1 km/h (2 Bft) W-SW 240 0 min 0,000 mm 0,0 UV-I 0 W/m 14,4 C 14,8 C 12,9 km/h (3 Bft) 100,00 %
13.08.2016 06:18 15,2 C 95 % 1025,0 hPa 0,0 l/m 7,0 km/h (2 Bft) W-SW 248 0 min 0,000 mm 0,0 UV-I 0 W/m 14,4 C 14,9 C 11,3 km/h (2 Bft) 100,00 %
13.08.2016 06:20 15,2 C 95 % 1025,0 hPa 0,0 l/m 8,0 km/h (2 Bft) SW 220 0 min 0,000 mm 0,0 UV-I 2 W/m 14,4 C 14,3 C 12,9 km/h (3 Bft) 100,00 %
13.08.2016 06:22 15,2 C 95 % 1025,0 hPa 0,0 l/m 7,2 km/h (2 Bft) SW 220 0 min 0,000 mm 0,0 UV-I 5 W/m 14,4 C 14,8 C 12,9 km/h (3 Bft) 100,00 %
13.08.2016 06:24 15,2 C 95 % 1025,0 hPa 0,0 l/m 7,1 km/h (2 Bft) W-SW 237 0 min 0,000 mm 0,0 UV-I 5 W/m 14,4 C 14,8 C 11,3 km/h (2 Bft) 97,87 %
13.08.2016 06:26 15,2 C 95 % 1025,0 hPa 0,0 l/m 5,4 km/h (1 Bft) W-SW 242 0 min 0,000 mm 0,0 UV-I 7 W/m 14,4 C 15,2 C 8,0 km/h (2 Bft) 100,00 %
13.08.2016 06:28 15,2 C 95 % 1025,1 hPa 0,0 l/m 7,2 km/h (2 Bft) SW 233 0 min 0,000 mm 0,0 UV-I 6 W/m 14,4 C 14,8 C 11,3 km/h (2 Bft) 100,00 %
13.08.2016 06:30 15,2 C 95 % 1025,0 hPa 0,0 l/m 7,6 km/h (2 Bft) SW 234 0 min 0,000 mm 0,0 UV-I 5 W/m 14,4 C 14,5 C 12,9 km/h (3 Bft) 97,87 %
13.08.2016 06:32 15,2 C 95 % 1025,0 hPa 0,0 l/m 6,7 km/h (2 Bft) SW 219 0 min 0,000 mm 0,0 UV-I 5 W/m 14,4 C 15,0 C 11,3 km/h (2 Bft) 100,00 %
13.08.2016 06:34 15,2 C 95 % 1025,0 hPa 0,0 l/m 6,2 km/h (2 Bft) S-SW 212 0 min 0,000 mm 0,0 UV-I 5 W/m 14,4 C 15,2 C 8,0 km/h (2 Bft) 97,87 %
13.08.2016 06:36 15,3 C 95 % 1025,0 hPa 0,0 l/m 6,3 km/h (2 Bft) SW 219 0 min 0,000 mm 0,0 UV-I 7 W/m 14,5 C 15,3 C 9,7 km/h (2 Bft) 100,00 %
13.08.2016 06:38 15,3 C 95 % 1025,0 hPa 0,0 l/m 6,4 km/h (2 Bft) W-SW 248 0 min 0,000 mm 0,0 UV-I 8 W/m 14,5 C 15,3 C 9,7 km/h (2 Bft) 96,00 %
13.08.2016 06:40 15,3 C 95 % 1024,9 hPa 0,0 l/m 6,3 km/h (2 Bft) SW 219 0 min 0,000 mm 0,0 UV-I 9 W/m 14,5 C 15,3 C 9,7 km/h (2 Bft) 93,62 %
13.08.2016 06:42 15,3 C 95 % 1025,0 hPa 0,0 l/m 5,8 km/h (2 Bft) W-SW 252 0 min 0,000 mm 0,0 UV-I 9 W/m 14,5 C 15,3 C 8,0 km/h (2 Bft) 97,87 %
13.08.2016 06:44 15,3 C 95 % 1025,0 hPa 0,0 l/m 6,9 km/h (2 Bft) W-SW 243 0 min 0,000 mm 0,0 UV-I 7 W/m 14,5 C 15,0 C 12,9 km/h (3 Bft) 95,74 %
13.08.2016 06:46 15,3 C 95 % 1025,0 hPa 0,0 l/m 8,8 km/h (2 Bft) W 272 0 min 0,000 mm 0,0 UV-I 7 W/m 14,5 C 14,0 C 12,9 km/h (3 Bft) 95,74 %
13.08.2016 06:48 15,3 C 95 % 1025,0 hPa 0,0 l/m 7,8 km/h (2 Bft) W-SW 252 0 min 0,000 mm 0,0 UV-I 7 W/m 14,5 C 14,5 C 12,9 km/h (3 Bft) 97,87 %
13.08.2016 06:50 15,3 C 95 % 1025,0 hPa 0,0 l/m 8,8 km/h (2 Bft) SW 236 0 min 0,000 mm 0,0 UV-I 7 W/m 14,5 C 14,0 C 12,9 km/h (3 Bft) 98,04 %
13.08.2016 06:52 15,3 C 94 % 1025,0 hPa 0,0 l/m 8,2 km/h (2 Bft) W-SW 254 0 min 0,000 mm 0,0 UV-I 9 W/m 14,3 C 14,3 C 14,5 km/h (3 Bft) 95,74 %
13.08.2016 06:54 15,3 C 94 % 1025,0 hPa 0,0 l/m 6,9 km/h (2 Bft) W-SW 237 0 min 0,000 mm 0,0 UV-I 11 W/m 14,3 C 15,0 C 14,5 km/h (3 Bft) 93,62 %
13.08.2016 06:56 15,3 C 94 % 1024,9 hPa 0,0 l/m 7,1 km/h (2 Bft) SW 235 0 min 0,000 mm 0,0 UV-I 12 W/m 14,3 C 14,9 C 12,9 km/h (3 Bft) 95,74 %
13.08.2016 06:58 15,3 C 94 % 1024,9 hPa 0,0 l/m 6,1 km/h (2 Bft) W 264 0 min 0,000 mm 0,0 UV-I 12 W/m 14,3 C 15,3 C 9,7 km/h (2 Bft) 97,87 %
13.08.2016 07:00 15,3 C 94 % 1025,0 hPa 0,0 l/m 8,7 km/h (2 Bft) W-SW 245 0 min 0,000 mm 0,0 UV-I 12 W/m 14,3 C 14,1 C 12,9 km/h (3 Bft) 97,92 %
13.08.2016 07:02 15,4 C 94 % 1024,9 hPa 0,0 l/m 5,9 km/h (2 Bft) W-SW 254 0 min 0,000 mm 0,0 UV-I 13 W/m 14,4 C 15,4 C 12,9 km/h (3 Bft) 93,62 %
13.08.2016 07:04 15,4 C 94 % 1024,9 hPa 0,0 l/m 6,7 km/h (2 Bft) SW 229 0 min 0,000 mm 0,0 UV-I 18 W/m 14,4 C 15,2 C 11,3 km/h (2 Bft) 97,87 %
13.08.2016 07:06 15,4 C 94 % 1024,9 hPa 0,0 l/m 6,1 km/h (2 Bft) SW 232 0 min 0,000 mm 0,0 UV-I 27 W/m 14,4 C 15,4 C 11,3 km/h (2 Bft) 97,37 %
13.08.2016 07:08 15,4 C 94 % 1024,9 hPa 0,0 l/m 6,0 km/h (2 Bft) SW 228 0 min 0,000 mm 0,0 UV-I 40 W/m 14,4 C 15,4 C 11,3 km/h (2 Bft) 95,74 %
13.08.2016 07:10 15,4 C 94 % 1024,9 hPa 0,0 l/m 6,9 km/h (2 Bft) SW 236 0 min 0,000 mm 0,0 UV-I 46 W/m 14,4 C 15,1 C 9,7 km/h (2 Bft) 95,92 %
13.08.2016 07:12 15,4 C 94 % 1025,0 hPa 0,0 l/m 5,1 km/h (1 Bft) SW 229 0 min 0,000 mm 0,0 UV-I 38 W/m 14,4 C 15,4 C 8,0 km/h (2 Bft) 100,00 %
13.08.2016 07:14 15,5 C 94 % 1025,0 hPa 0,0 l/m 5,8 km/h (2 Bft) SW 227 0 min 0,000 mm 0,0 UV-I 38 W/m 14,5 C 15,5 C 8,0 km/h (2 Bft) 97,87 %
13.08.2016 07:16 15,5 C 94 % 1024,9 hPa 0,0 l/m 5,8 km/h (2 Bft) S-SW 197 0 min 0,000 mm 0,0 UV-I 42 W/m 14,5 C 15,5 C 8,0 km/h (2 Bft) 100,00 %
13.08.2016 07:18 15,5 C 94 % 1025,0 hPa 0,0 l/m 4,8 km/h (1 Bft) W-SW 241 0 min 0,000 mm 0,0 UV-I 54 W/m 14,5 C 15,5 C 8,0 km/h (2 Bft) 97,87 %
13.08.2016 07:20 15,6 C 94 % 1024,9 hPa 0,0 l/m 6,2 km/h (2 Bft) S-SW 209 0 min 0,000 mm 0,0 UV-I 64 W/m 14,6 C 15,6 C 11,3 km/h (2 Bft) 100,00 %
13.08.2016 07:22 15,6 C 94 % 1024,9 hPa 0,0 l/m 4,5 km/h (1 Bft) S-SW 207 0 min 0,000 mm 0,0 UV-I 64 W/m 14,6 C 15,6 C 6,4 km/h (2 Bft) 100,00 %
13.08.2016 07:24 15,6 C 94 % 1024,9 hPa 0,0 l/m 5,4 km/h (1 Bft) SW 223 0 min 0,000 mm 0,0 UV-I 65 W/m 14,6 C 15,6 C 8,0 km/h (2 Bft) 100,00 %
13.08.2016 07:26 15,6 C 94 % 1024,9 hPa 0,0 l/m 5,8 km/h (2 Bft) W-SW 237 0 min 0,000 mm 0,0 UV-I 61 W/m 14,6 C 15,6 C 9,7 km/h (2 Bft) 100,00 %
13.08.2016 07:28 15,6 C 94 % 1024,9 hPa 0,0 l/m 5,8 km/h (2 Bft) S-SO 161 0 min 0,000 mm 0,0 UV-I 57 W/m 14,6 C 15,6 C 9,7 km/h (2 Bft) 100,00 %
13.08.2016 07:30 15,7 C 94 % 1024,9 hPa 0,0 l/m 5,4 km/h (1 Bft) S 182 0 min 0,000 mm 0,0 UV-I 57 W/m 14,7 C 15,7 C 9,7 km/h (2 Bft) 100,00 %
13.08.2016 07:32 15,7 C 94 % 1024,9 hPa 0,0 l/m 5,5 km/h (1 Bft) SW 227 0 min 0,000 mm 0,0 UV-I 63 W/m 14,7 C 15,7 C 8,0 km/h (2 Bft) 100,00 %
13.08.2016 07:34 15,7 C 94 % 1024,9 hPa 0,0 l/m 6,3 km/h (2 Bft) SW 225 0 min 0,000 mm 0,0 UV-I 71 W/m 14,7 C 15,7 C 11,3 km/h (2 Bft) 100,00 %
13.08.2016 07:36 15,7 C 94 % 1024,9 hPa 0,0 l/m 5,2 km/h (1 Bft) S-SW 201 0 min 0,000 mm 0,0 UV-I 73 W/m 14,7 C 15,7 C 8,0 km/h (2 Bft) 100,00 %
13.08.2016 07:38 15,7 C 94 % 1024,9 hPa 0,0 l/m 5,3 km/h (1 Bft) SW 214 0 min 0,000 mm 0,0 UV-I 68 W/m 14,7 C 15,7 C 9,7 km/h (2 Bft) 100,00 %
13.08.2016 07:40 15,7 C 94 % 1025,0 hPa 0,0 l/m 4,3 km/h (1 Bft) S-SW 207 0 min 0,000 mm 0,0 UV-I 67 W/m 14,7 C 15,7 C 8,0 km/h (2 Bft) 100,00 %
13.08.2016 07:42 15,7 C 94 % 1025,0 hPa 0,0 l/m 5,6 km/h (1 Bft) SW 215 0 min 0,000 mm 0,0 UV-I 69 W/m 14,7 C 15,7 C 9,7 km/h (2 Bft) 100,00 %
13.08.2016 07:44 15,8 C 94 % 1025,0 hPa 0,0 l/m 3,6 km/h (1 Bft) SW 232 0 min 0,000 mm 0,0 UV-I 72 W/m 14,8 C 15,8 C 6,4 km/h (2 Bft) 100,00 %
13.08.2016 07:46 15,8 C 94 % 1025,0 hPa 0,0 l/m 4,6 km/h (1 Bft) SW 217 0 min 0,000 mm 0,0 UV-I 76 W/m 14,8 C 15,8 C 8,0 km/h (2 Bft) 100,00 %
13.08.2016 07:48 15,8 C 94 % 1025,0 hPa 0,0 l/m 6,0 km/h (2 Bft) SW 217 0 min 0,000 mm 0,0 UV-I 78 W/m 14,8 C 15,8 C 9,7 km/h (2 Bft) 100,00 %
13.08.2016 07:50 15,8 C 94 % 1025,0 hPa 0,0 l/m 3,9 km/h (1 Bft) S 188 0 min 0,000 mm 0,0 UV-I 79 W/m 14,8 C 15,8 C 6,4 km/h (2 Bft) 97,87 %
13.08.2016 07:52 15,9 C 94 % 1025,0 hPa 0,0 l/m 5,8 km/h (2 Bft) S 189 0 min 0,000 mm 0,0 UV-I 75 W/m 14,9 C 15,9 C 8,0 km/h (2 Bft) 100,00 %
13.08.2016 07:54 15,9 C 94 % 1025,0 hPa 0,0 l/m 3,8 km/h (1 Bft) S-SW 198 0 min 0,000 mm 0,0 UV-I 70 W/m 14,9 C 15,9 C 8,0 km/h (2 Bft) 97,92 %
13.08.2016 07:56 15,9 C 94 % 1025,0 hPa 0,0 l/m 6,8 km/h (2 Bft) S-SW 211 0 min 0,000 mm 0,0 UV-I 72 W/m 14,9 C 15,7 C 9,7 km/h (2 Bft) 100,00 %
13.08.2016 07:58 15,9 C 94 % 1025,0 hPa 0,0 l/m 6,3 km/h (2 Bft) S-SW 205 0 min 0,000 mm 0,0 UV-I 76 W/m 14,9 C 15,9 C 9,7 km/h (2 Bft) 100,00 %
13.08.2016 08:00 15,9 C 94 % 1025,0 hPa 0,0 l/m 6,5 km/h (2 Bft) S-SW 197 0 min 0,025 mm 0,0 UV-I 85 W/m 14,9 C 15,9 C 9,7 km/h (2 Bft) 100,00 %
13.08.2016 08:02 15,9 C 94 % 1025,0 hPa 0,0 l/m 5,7 km/h (1 Bft) S 184 0 min 0,000 mm 0,0 UV-I 99 W/m 14,9 C 15,9 C 9,7 km/h (2 Bft) 97,87 %
13.08.2016 08:04 16,0 C 93 % 1025,0 hPa 0,0 l/m 7,5 km/h (2 Bft) S-SO 161 0 min 0,000 mm 0,0 UV-I 111 W/m 14,9 C 15,4 C 9,7 km/h (2 Bft) 97,87 %
13.08.2016 08:06 16,1 C 93 % 1025,0 hPa 0,0 l/m 6,3 km/h (2 Bft) S-SW 208 0 min 0,000 mm 0,4 UV-I 132 W/m 15,0 C 16,1 C 9,7 km/h (2 Bft) 100,00 %
13.08.2016 08:08 16,2 C 93 % 1025,0 hPa 0,0 l/m 6,7 km/h (2 Bft) S 176 0 min 0,000 mm 0,6 UV-I 182 W/m 15,1 C 16,1 C 9,7 km/h (2 Bft) 95,74 %
13.08.2016 08:10 16,2 C 93 % 1025,0 hPa 0,0 l/m 6,6 km/h (2 Bft) S-SW 196 0 min 0,000 mm 0,6 UV-I 166 W/m 15,1 C 16,1 C 11,3 km/h (2 Bft) 97,87 %
13.08.2016 08:12 16,3 C 93 % 1025,0 hPa 0,0 l/m 4,2 km/h (1 Bft) S-SW 207 0 min 0,000 mm 0,6 UV-I 187 W/m 15,2 C 16,3 C 6,4 km/h (2 Bft) 100,00 %
13.08.2016 08:14 16,4 C 93 % 1025,0 hPa 0,0 l/m 4,2 km/h (1 Bft) SW 220 2 min 0,000 mm 0,6 UV-I 208 W/m 15,3 C 16,4 C 8,0 km/h (2 Bft) 97,87 %
13.08.2016 08:16 16,5 C 93 % 1025,0 hPa 0,0 l/m 5,5 km/h (1 Bft) SW 227 0 min 0,000 mm 0,5 UV-I 174 W/m 15,4 C 16,5 C 9,7 km/h (2 Bft) 97,87 %
13.08.2016 08:18 16,5 C 92 % 1025,0 hPa 0,0 l/m 7,8 km/h (2 Bft) S-SW 201 0 min 0,000 mm 0,5 UV-I 139 W/m 15,2 C 15,8 C 11,3 km/h (2 Bft) 97,87 %
13.08.2016 08:20 16,5 C 91 % 1025,0 hPa 0,0 l/m 4,7 km/h (1 Bft) SW 218 0 min 0,000 mm 0,5 UV-I 133 W/m 15,0 C 16,5 C 8,0 km/h (2 Bft) 97,87 %
13.08.2016 08:22 16,4 C 92 % 1025,0 hPa 0,0 l/m 3,2 km/h (1 Bft) SW 234 0 min 0,000 mm 0,5 UV-I 154 W/m 15,1 C 16,4 C 6,4 km/h (2 Bft) 100,00 %
13.08.2016 08:24 16,5 C 92 % 1025,0 hPa 0,0 l/m 3,6 km/h (1 Bft) SW 232 0 min 0,000 mm 0,5 UV-I 174 W/m 15,2 C 16,5 C 6,4 km/h (2 Bft) 100,00 %
13.08.2016 08:26 16,6 C 92 % 1025,0 hPa 0,0 l/m 3,0 km/h (1 Bft) W 272 0 min 0,000 mm 0,6 UV-I 182 W/m 15,3 C 16,6 C 4,8 km/h (1 Bft) 97,87 %
13.08.2016 08:28 16,6 C 92 % 1025,0 hPa 0,0 l/m 5,1 km/h (1 Bft) W-SW 239 0 min 0,000 mm 0,6 UV-I 197 W/m 15,3 C 16,6 C 8,0 km/h (2 Bft) 100,00 %
13.08.2016 08:30 16,7 C 92 % 1025,0 hPa 0,0 l/m 5,1 km/h (1 Bft) W-SW 246 0 min 0,000 mm 0,6 UV-I 215 W/m 15,4 C 16,7 C 8,0 km/h (2 Bft) 100,00 %
13.08.2016 08:32 16,8 C 91 % 1025,0 hPa 0,0 l/m 5,3 km/h (1 Bft) W 265 0 min 0,000 mm 0,7 UV-I 215 W/m 15,3 C 16,8 C 8,0 km/h (2 Bft) 100,00 %
13.08.2016 08:34 16,9 C 92 % 1025,0 hPa 0,0 l/m 5,2 km/h (1 Bft) S-SW 212 0 min 0,000 mm 0,7 UV-I 196 W/m 15,6 C 16,9 C 6,4 km/h (2 Bft) 100,00 %
13.08.2016 08:36 16,9 C 91 % 1025,0 hPa 0,0 l/m 5,3 km/h (1 Bft) W-SW 255 0 min 0,000 mm 0,7 UV-I 196 W/m 15,4 C 16,9 C 9,7 km/h (2 Bft) 97,87 %
13.08.2016 08:38 16,9 C 91 % 1025,0 hPa 0,0 l/m 5,0 km/h (1 Bft) SW 234 0 min 0,000 mm 0,8 UV-I 204 W/m 15,4 C 16,9 C 9,7 km/h (2 Bft) 93,62 %
13.08.2016 08:40 16,9 C 91 % 1025,0 hPa 0,0 l/m 5,4 km/h (1 Bft) SW 229 0 min 0,000 mm 0,9 UV-I 196 W/m 15,4 C 16,9 C 8,0 km/h (2 Bft) 97,87 %
13.08.2016 08:42 16,9 C 90 % 1025,0 hPa 0,0 l/m 6,9 km/h (2 Bft) SW 225 0 min 0,000 mm 0,9 UV-I 178 W/m 15,2 C 16,7 C 8,0 km/h (2 Bft) 97,87 %
13.08.2016 08:44 16,9 C 90 % 1025,0 hPa 0,0 l/m 6,9 km/h (2 Bft) SW 220 0 min 0,000 mm 1,0 UV-I 184 W/m 15,2 C 16,7 C 9,7 km/h (2 Bft) 97,87 %
13.08.2016 08:46 16,9 C 91 % 1024,9 hPa 0,0 l/m 4,5 km/h (1 Bft) SW 225 0 min 0,000 mm 1,0 UV-I 177 W/m 15,4 C 16,9 C 6,4 km/h (2 Bft) 97,87 %
13.08.2016 08:48 16,9 C 91 % 1024,9 hPa 0,0 l/m 6,8 km/h (2 Bft) SW 214 0 min 0,000 mm 1,0 UV-I 163 W/m 15,4 C 16,7 C 9,7 km/h (2 Bft) 98,00 %
13.08.2016 08:50 16,9 C 90 % 1024,9 hPa 0,0 l/m 4,5 km/h (1 Bft) SW 220 0 min 0,000 mm 1,0 UV-I 156 W/m 15,2 C 16,9 C 6,4 km/h (2 Bft) 97,87 %
13.08.2016 08:52 16,9 C 90 % 1024,9 hPa 0,0 l/m 5,5 km/h (1 Bft) W-SW 249 0 min 0,000 mm 1,1 UV-I 156 W/m 15,2 C 16,9 C 9,7 km/h (2 Bft) 95,74 %
13.08.2016 08:54 16,9 C 90 % 1024,9 hPa 0,0 l/m 5,0 km/h (1 Bft) W-SW 244 0 min 0,000 mm 1,1 UV-I 179 W/m 15,2 C 16,9 C 6,4 km/h (2 Bft) 97,37 %
13.08.2016 08:56 17,0 C 90 % 1025,0 hPa 0,0 l/m 4,6 km/h (1 Bft) W-SW 240 0 min 0,000 mm 1,2 UV-I 224 W/m 15,3 C 17,0 C 8,0 km/h (2 Bft) 95,74 %
13.08.2016 08:58 17,2 C 91 % 1025,0 hPa 0,0 l/m 5,2 km/h (1 Bft) SW 228 2 min 0,000 mm 1,2 UV-I 263 W/m 15,7 C 17,2 C 8,0 km/h (2 Bft) 95,74 %
13.08.2016 09:00 17,2 C 89 % 1025,0 hPa 0,0 l/m 3,2 km/h (1 Bft) SW 218 0 min 0,102 mm 1,1 UV-I 215 W/m 15,4 C 17,2 C 6,4 km/h (2 Bft) 96,00 %
13.08.2016 09:02 17,3 C 90 % 1024,9 hPa 0,0 l/m 6,2 km/h (2 Bft) SW 234 0 min 0,000 mm 1,1 UV-I 190 W/m 15,6 C 17,3 C 8,0 km/h (2 Bft) 96,00 %
13.08.2016 09:04 17,3 C 89 % 1024,9 hPa 0,0 l/m 4,5 km/h (1 Bft) S 178 0 min 0,000 mm 1,1 UV-I 212 W/m 15,5 C 17,3 C 6,4 km/h (2 Bft) 95,74 %
13.08.2016 09:06 17,3 C 89 % 1024,9 hPa 0,0 l/m 4,2 km/h (1 Bft) S 189 0 min 0,000 mm 1,1 UV-I 217 W/m 15,5 C 17,3 C 8,0 km/h (2 Bft) 93,62 %
13.08.2016 09:08 17,3 C 89 % 1024,9 hPa 0,0 l/m 3,1 km/h (1 Bft) S-SW 205 0 min 0,000 mm 1,1 UV-I 187 W/m 15,5 C 17,3 C 4,8 km/h (1 Bft) 100,00 %
13.08.2016 09:10 17,3 C 90 % 1024,9 hPa 0,0 l/m 3,7 km/h (1 Bft) SW 225 0 min 0,000 mm 1,1 UV-I 160 W/m 15,6 C 17,3 C 6,4 km/h (2 Bft) 100,00 %
13.08.2016 09:12 17,3 C 90 % 1024,9 hPa 0,0 l/m 5,1 km/h (1 Bft) S 186 0 min 0,000 mm 1,1 UV-I 158 W/m 15,6 C 17,3 C 8,0 km/h (2 Bft) 97,92 %
13.08.2016 09:14 17,3 C 90 % 1024,8 hPa 0,0 l/m 3,7 km/h (1 Bft) S 179 0 min 0,000 mm 1,2 UV-I 177 W/m 15,6 C 17,3 C 8,0 km/h (2 Bft) 97,87 %
13.08.2016 09:16 17,4 C 89 % 1024,8 hPa 0,0 l/m 5,3 km/h (1 Bft) W 259 0 min 0,000 mm 1,2 UV-I 193 W/m 15,6 C 17,4 C 8,0 km/h (2 Bft) 97,14 %
13.08.2016 09:18 17,4 C 89 % 1024,8 hPa 0,0 l/m 4,5 km/h (1 Bft) SW 236 0 min 0,000 mm 1,2 UV-I 187 W/m 15,6 C 17,4 C 8,0 km/h (2 Bft) 100,00 %
13.08.2016 09:20 17,6 C 88 % 1024,9 hPa 0,0 l/m 5,1 km/h (1 Bft) S 186 0 min 0,000 mm 1,1 UV-I 170 W/m 15,6 C 17,6 C 6,4 km/h (2 Bft) 100,00 %
13.08.2016 09:22 17,6 C 88 % 1024,8 hPa 0,0 l/m 6,3 km/h (2 Bft) S-SW 213 0 min 0,000 mm 1,1 UV-I 167 W/m 15,6 C 17,6 C 9,7 km/h (2 Bft) 95,74 %
13.08.2016 09:24 17,7 C 88 % 1024,8 hPa 0,0 l/m 7,2 km/h (2 Bft) W-SW 251 0 min 0,000 mm 1,3 UV-I 194 W/m 15,7 C 17,3 C 9,7 km/h (2 Bft) 100,00 %
13.08.2016 09:26 17,7 C 86 % 1024,8 hPa 0,0 l/m 4,6 km/h (1 Bft) S-SW 197 0 min 0,000 mm 1,3 UV-I 212 W/m 15,3 C 17,7 C 8,0 km/h (2 Bft) 97,87 %
13.08.2016 09:28 17,8 C 87 % 1024,8 hPa 0,0 l/m 5,8 km/h (2 Bft) W 259 0 min 0,000 mm 1,3 UV-I 205 W/m 15,6 C 17,8 C 9,7 km/h (2 Bft) 100,00 %
13.08.2016 09:30 17,8 C 87 % 1024,8 hPa 0,0 l/m 6,7 km/h (2 Bft) W-SW 239 0 min 0,000 mm 1,3 UV-I 196 W/m 15,6 C 17,7 C 12,9 km/h (3 Bft) 97,87 %
13.08.2016 09:32 17,9 C 87 % 1024,8 hPa 0,0 l/m 6,6 km/h (2 Bft) W-SW 242 0 min 0,000 mm 1,3 UV-I 191 W/m 15,7 C 17,8 C 9,7 km/h (2 Bft) 100,00 %
13.08.2016 09:34 17,9 C 86 % 1024,8 hPa 0,0 l/m 7,2 km/h (2 Bft) S 186 0 min 0,000 mm 1,3 UV-I 178 W/m 15,5 C 17,5 C 11,3 km/h (2 Bft) 100,00 %
13.08.2016 09:36 17,9 C 86 % 1024,8 hPa 0,0 l/m 9,3 km/h (2 Bft) SW 230 0 min 0,000 mm 1,3 UV-I 180 W/m 15,5 C 16,6 C 14,5 km/h (3 Bft) 100,00 %
13.08.2016 09:38 18,0 C 85 % 1024,8 hPa 0,0 l/m 6,7 km/h (2 Bft) S-SW 194 0 min 0,000 mm 1,4 UV-I 193 W/m 15,4 C 17,9 C 11,3 km/h (2 Bft) 100,00 %
13.08.2016 09:40 18,0 C 86 % 1024,8 hPa 0,0 l/m 7,1 km/h (2 Bft) W-SW 238 0 min 0,000 mm 1,5 UV-I 222 W/m 15,6 C 17,7 C 9,7 km/h (2 Bft) 97,87 %
13.08.2016 09:42 18,1 C 86 % 1024,8 hPa 0,0 l/m 6,8 km/h (2 Bft) SW 229 0 min 0,000 mm 1,6 UV-I 231 W/m 15,7 C 17,9 C 11,3 km/h (2 Bft) 100,00 %
13.08.2016 09:44 18,1 C 85 % 1024,8 hPa 0,0 l/m 6,7 km/h (2 Bft) W-NW 285 0 min 0,000 mm 1,6 UV-I 225 W/m 15,5 C 18,0 C 12,9 km/h (3 Bft) 97,22 %
13.08.2016 09:46 18,1 C 85 % 1024,9 hPa 0,0 l/m 4,3 km/h (1 Bft) W-SW 248 0 min 0,000 mm 1,6 UV-I 220 W/m 15,5 C 18,1 C 9,7 km/h (2 Bft) 98,00 %
13.08.2016 09:48 18,1 C 85 % 1024,8 hPa 0,0 l/m 10,4 km/h (2 Bft) W 267 0 min 0,000 mm 1,7 UV-I 231 W/m 15,5 C 16,4 C 14,5 km/h (3 Bft) 100,00 %
13.08.2016 09:50 18,1 C 85 % 1024,9 hPa 0,0 l/m 6,7 km/h (2 Bft) W-SW 248 0 min 0,000 mm 1,8 UV-I 253 W/m 15,5 C 18,0 C 11,3 km/h (2 Bft) 100,00 %
13.08.2016 09:52 18,1 C 86 % 1024,9 hPa 0,0 l/m 4,7 km/h (1 Bft) W-SW 258 0 min 0,000 mm 1,9 UV-I 261 W/m 15,7 C 18,1 C 6,4 km/h (2 Bft) 100,00 %
13.08.2016 09:54 18,2 C 85 % 1024,8 hPa 0,0 l/m 6,4 km/h (2 Bft) W-SW 237 0 min 0,000 mm 1,9 UV-I 247 W/m 15,6 C 18,2 C 9,7 km/h (2 Bft) 97,87 %
13.08.2016 09:56 18,1 C 85 % 1024,8 hPa 0,0 l/m 7,0 km/h (2 Bft) W-SW 252 0 min 0,000 mm 1,9 UV-I 235 W/m 15,5 C 17,8 C 11,3 km/h (2 Bft) 100,00 %
13.08.2016 09:58 18,1 C 85 % 1024,8 hPa 0,0 l/m 7,4 km/h (2 Bft) W 259 0 min 0,000 mm 2,0 UV-I 234 W/m 15,5 C 17,6 C 12,9 km/h (3 Bft) 100,00 %
13.08.2016 10:00 18,1 C 86 % 1024,8 hPa 0,0 l/m 6,2 km/h (2 Bft) W 263 0 min 0,000 mm 2,2 UV-I 261 W/m 15,7 C 18,1 C 11,3 km/h (2 Bft) 97,87 %
13.08.2016 10:02 18,1 C 86 % 1024,8 hPa 0,0 l/m 4,9 km/h (1 Bft) W-SW 242 0 min 0,127 mm 2,4 UV-I 318 W/m 15,7 C 18,1 C 8,0 km/h (2 Bft) 98,00 %
13.08.2016 10:04 18,2 C 85 % 1024,8 hPa 0,0 l/m 6,1 km/h (2 Bft) W 267 0 min 0,000 mm 2,4 UV-I 319 W/m 15,6 C 18,2 C 11,3 km/h (2 Bft) 98,00 %
13.08.2016 10:06 18,3 C 86 % 1024,8 hPa 0,0 l/m 2,9 km/h (1 Bft) W 272 2 min 0,000 mm 2,5 UV-I 357 W/m 15,9 C 18,3 C 4,8 km/h (1 Bft) 100,00 %
13.08.2016 10:08 18,3 C 85 % 1024,8 hPa 0,0 l/m 4,2 km/h (1 Bft) W-SW 258 2 min 0,000 mm 2,8 UV-I 410 W/m 15,7 C 18,3 C 6,4 km/h (2 Bft) 100,00 %
13.08.2016 10:10 18,5 C 85 % 1024,7 hPa 0,0 l/m 4,2 km/h (1 Bft) W-SW 254 2 min 0,000 mm 3,5 UV-I 417 W/m 15,9 C 18,5 C 9,7 km/h (2 Bft) 97,37 %
13.08.2016 10:12 18,8 C 85 % 1024,7 hPa 0,0 l/m 5,2 km/h (1 Bft) SW 226 2 min 0,000 mm 3,4 UV-I 516 W/m 16,2 C 18,8 C 11,3 km/h (2 Bft) 98,00 %
13.08.2016 10:14 18,8 C 86 % 1024,7 hPa 0,0 l/m 4,5 km/h (1 Bft) S-SW 192 2 min 0,000 mm 3,4 UV-I 474 W/m 16,4 C 18,8 C 8,0 km/h (2 Bft) 100,00 %
13.08.2016 10:16 19,0 C 84 % 1024,7 hPa 0,0 l/m 2,9 km/h (1 Bft) W-SW 245 2 min 0,000 mm 3,4 UV-I 475 W/m 16,2 C 19,0 C 4,8 km/h (1 Bft) 94,00 %
13.08.2016 10:18 19,1 C 84 % 1024,7 hPa 0,0 l/m 6,1 km/h (2 Bft) W-SW 248 2 min 0,000 mm 3,4 UV-I 521 W/m 16,3 C 19,1 C 12,9 km/h (3 Bft) 97,87 %
13.08.2016 10:20 19,2 C 83 % 1024,7 hPa 0,0 l/m 4,6 km/h (1 Bft) W-SW 247 2 min 0,000 mm 3,5 UV-I 529 W/m 16,2 C 19,2 C 11,3 km/h (2 Bft) 97,87 %
13.08.2016 10:22 19,2 C 83 % 1024,7 hPa 0,0 l/m 6,1 km/h (2 Bft) W 266 2 min 0,000 mm 3,4 UV-I 492 W/m 16,2 C 19,2 C 11,3 km/h (2 Bft) 100,00 %
13.08.2016 10:24 19,2 C 81 % 1024,7 hPa 0,0 l/m 3,3 km/h (1 Bft) W 259 2 min 0,000 mm 3,7 UV-I 632 W/m 15,9 C 19,2 C 9,7 km/h (2 Bft) 98,00 %
13.08.2016 10:26 19,2 C 82 % 1024,7 hPa 0,0 l/m 1,6 km/h (1 Bft) W 259 2 min 0,000 mm 2,9 UV-I 721 W/m 16,0 C 19,2 C 4,8 km/h (1 Bft) 97,87 %
13.08.2016 10:28 19,3 C 83 % 1024,7 hPa 0,0 l/m 2,2 km/h (1 Bft) W 271 2 min 0,000 mm 2,9 UV-I 482 W/m 16,3 C 19,3 C 4,8 km/h (1 Bft) 100,00 %
13.08.2016 10:30 19,3 C 81 % 1024,7 hPa 0,0 l/m 9,3 km/h (2 Bft) S-SW 213 2 min 0,000 mm 2,7 UV-I 388 W/m 16,0 C 18,1 C 14,5 km/h (3 Bft) 97,87 %
13.08.2016 10:32 19,4 C 81 % 1024,6 hPa 0,0 l/m 6,8 km/h (2 Bft) S-SW 211 2 min 0,000 mm 3,3 UV-I 408 W/m 16,1 C 19,2 C 11,3 km/h (2 Bft) 100,00 %
13.08.2016 10:34 19,4 C 80 % 1024,6 hPa 0,0 l/m 5,5 km/h (1 Bft) S 188 2 min 0,000 mm 3,3 UV-I 593 W/m 15,9 C 19,4 C 8,0 km/h (2 Bft) 97,87 %
13.08.2016 10:36 19,6 C 83 % 1024,6 hPa 0,0 l/m 2,3 km/h (1 Bft) W-SW 253 0 min 0,000 mm 2,9 UV-I 339 W/m 16,6 C 19,6 C 6,4 km/h (2 Bft) 97,87 %
13.08.2016 10:38 19,7 C 80 % 1024,6 hPa 0,0 l/m 6,2 km/h (2 Bft) W-SW 242 2 min 0,000 mm 4,3 UV-I 550 W/m 16,1 C 19,7 C 9,7 km/h (2 Bft) 97,87 %
13.08.2016 10:40 20,0 C 81 % 1024,6 hPa 0,0 l/m 5,2 km/h (1 Bft) S-SW 200 2 min 0,000 mm 3,8 UV-I 812 W/m 16,6 C 20,0 C 6,4 km/h (2 Bft) 93,62 %
13.08.2016 10:42 20,1 C 82 % 1024,6 hPa 0,0 l/m 1,8 km/h (1 Bft) S-SW 205 2 min 0,000 mm 3,8 UV-I 706 W/m 16,9 C 20,1 C 3,2 km/h (1 Bft) 97,87 %
13.08.2016 10:44 20,2 C 79 % 1024,6 hPa 0,0 l/m 6,9 km/h (2 Bft) S-SW 202 2 min 0,000 mm 4,1 UV-I 736 W/m 16,4 C 20,0 C 17,7 km/h (3 Bft) 96,00 %
13.08.2016 10:46 20,3 C 77 % 1024,6 hPa 0,0 l/m 6,9 km/h (2 Bft) SW 234 2 min 0,000 mm 4,4 UV-I 947 W/m 16,1 C 20,1 C 14,5 km/h (3 Bft) 97,87 %
13.08.2016 10:48 20,4 C 78 % 1024,6 hPa 0,0 l/m 7,8 km/h (2 Bft) S-SW 195 2 min 0,000 mm 4,0 UV-I 931 W/m 16,4 C 19,8 C 14,5 km/h (3 Bft) 97,37 %
13.08.2016 10:50 20,4 C 78 % 1024,6 hPa 0,0 l/m 6,4 km/h (2 Bft) SW 234 2 min 0,000 mm 4,0 UV-I 933 W/m 16,4 C 20,4 C 11,3 km/h (2 Bft) 97,87 %
13.08.2016 10:52 20,4 C 78 % 1024,6 hPa 0,0 l/m 8,6 km/h (2 Bft) SW 233 2 min 0,000 mm 4,2 UV-I 933 W/m 16,4 C 19,6 C 12,9 km/h (3 Bft) 97,87 %
13.08.2016 10:54 20,5 C 76 % 1024,6 hPa 0,0 l/m 3,4 km/h (1 Bft) S 172 2 min 0,000 mm 4,1 UV-I 933 W/m 16,1 C 20,5 C 6,4 km/h (2 Bft) 93,88 %
13.08.2016 10:56 20,6 C 77 % 1024,6 hPa 0,0 l/m 2,3 km/h (1 Bft) W-SW 252 2 min 0,000 mm 4,4 UV-I 897 W/m 16,4 C 20,6 C 8,0 km/h (2 Bft) 97,87 %
13.08.2016 10:58 20,7 C 77 % 1024,6 hPa 0,0 l/m 8,9 km/h (2 Bft) W-SW 238 2 min 0,000 mm 3,1 UV-I 606 W/m 16,5 C 19,8 C 14,5 km/h (3 Bft) 94,00 %
13.08.2016 11:00 20,7 C 76 % 1024,6 hPa 0,0 l/m 7,5 km/h (2 Bft) S 170 2 min 0,330 mm 3,3 UV-I 457 W/m 16,3 C 20,3 C 16,1 km/h (3 Bft) 96,00 %
13.08.2016 11:02 20,5 C 76 % 1024,6 hPa 0,0 l/m 6,6 km/h (2 Bft) W-SW 240 0 min 0,000 mm 2,4 UV-I 355 W/m 16,1 C 20,4 C 11,3 km/h (2 Bft) 97,87 %
13.08.2016 11:04 20,3 C 78 % 1024,6 hPa 0,0 l/m 7,9 km/h (2 Bft) S-SW 192 0 min 0,000 mm 1,6 UV-I 212 W/m 16,3 C 19,7 C 16,1 km/h (3 Bft) 97,44 %
13.08.2016 11:06 20,2 C 79 % 1024,6 hPa 0,0 l/m 6,0 km/h (2 Bft) W-SW 252 0 min 0,000 mm 1,4 UV-I 177 W/m 16,4 C 20,2 C 9,7 km/h (2 Bft) 98,00 %
13.08.2016 11:08 19,9 C 79 % 1024,6 hPa 0,0 l/m 3,9 km/h (1 Bft) W 261 0 min 0,000 mm 1,5 UV-I 171 W/m 16,1 C 19,9 C 4,8 km/h (1 Bft) 100,00 %
13.08.2016 11:10 19,8 C 80 % 1024,6 hPa 0,0 l/m 4,6 km/h (1 Bft) W-NW 301 0 min 0,000 mm 1,7 UV-I 177 W/m 16,2 C 19,8 C 9,7 km/h (2 Bft) 97,87 %
13.08.2016 11:12 19,7 C 81 % 1024,6 hPa 0,0 l/m 3,0 km/h (1 Bft) NW 314 0 min 0,000 mm 1,9 UV-I 189 W/m 16,3 C 19,7 C 6,4 km/h (2 Bft) 95,74 %
13.08.2016 11:14 19,6 C 81 % 1024,6 hPa 0,0 l/m 2,7 km/h (1 Bft) SW 229 0 min 0,000 mm 2,2 UV-I 204 W/m 16,2 C 19,6 C 4,8 km/h (1 Bft) 98,11 %
13.08.2016 11:16 19,6 C 82 % 1024,5 hPa 0,0 l/m 2,0 km/h (1 Bft) W-NW 285 0 min 0,000 mm 2,4 UV-I 223 W/m 16,4 C 19,6 C 4,8 km/h (1 Bft) 100,00 %
13.08.2016 11:18 19,6 C 79 % 1024,6 hPa 0,0 l/m 3,2 km/h (1 Bft) W-SW 249 0 min 0,000 mm 2,6 UV-I 236 W/m 15,9 C 19,6 C 4,8 km/h (1 Bft) 97,87 %
13.08.2016 11:20 19,7 C 80 % 1024,5 hPa 0,0 l/m 1,6 km/h (1 Bft) W-SW 249 0 min 0,000 mm 2,8 UV-I 254 W/m 16,1 C 19,7 C 3,2 km/h (1 Bft) 100,00 %
13.08.2016 11:22 19,7 C 81 % 1024,5 hPa 0,0 l/m 1,4 km/h (1 Bft) W-SW 249 0 min 0,000 mm 3,2 UV-I 292 W/m 16,3 C 19,7 C 4,8 km/h (1 Bft) 97,87 %
13.08.2016 11:24 19,8 C 79 % 1024,5 hPa 0,0 l/m 1,6 km/h (1 Bft) W-SW 251 0 min 0,000 mm 3,8 UV-I 318 W/m 16,0 C 19,8 C 4,8 km/h (1 Bft) 97,87 %
13.08.2016 11:26 20,1 C 79 % 1024,5 hPa 0,0 l/m 3,1 km/h (1 Bft) W-SW 252 0 min 0,000 mm 5,4 UV-I 320 W/m 16,3 C 20,1 C 4,8 km/h (1 Bft) 100,00 %
13.08.2016 11:28 20,2 C 75 % 1024,4 hPa 0,0 l/m 0,7 km/h (0 Bft) W-SW 253 0 min 0,000 mm 4,8 UV-I 320 W/m 15,6 C 20,2 C 3,2 km/h (1 Bft) 100,00 %
13.08.2016 11:30 20,3 C 77 % 1024,4 hPa 0,0 l/m 1,0 km/h (0 Bft) W-SW 253 0 min 0,000 mm 3,2 UV-I 343 W/m 16,1 C 20,3 C 3,2 km/h (1 Bft) 100,00 %
13.08.2016 11:32 20,3 C 76 % 1024,3 hPa 0,0 l/m 1,0 km/h (0 Bft) W-SW 253 0 min 0,000 mm 2,8 UV-I 307 W/m 15,9 C 20,3 C 3,2 km/h (1 Bft) 97,87 %
13.08.2016 11:34 20,3 C 77 % 1024,3 hPa 0,0 l/m 0,2 km/h (0 Bft) W-SW 253 0 min 0,000 mm 2,6 UV-I 288 W/m 16,1 C 20,3 C 1,6 km/h (1 Bft) 97,87 %
13.08.2016 11:36 20,4 C 76 % 1024,3 hPa 0,0 l/m 0,2 km/h (0 Bft) W-SW 253 0 min 0,000 mm 2,5 UV-I 275 W/m 16,0 C 20,4 C 1,6 km/h (1 Bft) 97,87 %
13.08.2016 11:38 20,4 C 77 % 1024,3 hPa 0,0 l/m 2,0 km/h (1 Bft) SW 236 0 min 0,000 mm 2,3 UV-I 266 W/m 16,2 C 20,4 C 4,8 km/h (1 Bft) 100,00 %
13.08.2016 11:40 20,4 C 77 % 1024,3 hPa 0,0 l/m 6,2 km/h (2 Bft) W-NW 298 0 min 0,000 mm 2,1 UV-I 250 W/m 16,2 C 20,4 C 12,9 km/h (3 Bft) 100,00 %
13.08.2016 11:42 20,3 C 78 % 1024,3 hPa 0,0 l/m 2,6 km/h (1 Bft) W-NW 301 0 min 0,000 mm 2,0 UV-I 229 W/m 16,3 C 20,3 C 4,8 km/h (1 Bft) 100,00 %
13.08.2016 11:44 20,3 C 78 % 1024,3 hPa 0,0 l/m 2,0 km/h (1 Bft) W-NW 293 0 min 0,000 mm 2,1 UV-I 218 W/m 16,3 C 20,3 C 4,8 km/h (1 Bft) 97,87 %
13.08.2016 11:46 20,2 C 77 % 1024,4 hPa 0,0 l/m 2,4 km/h (1 Bft) W 270 0 min 0,000 mm 2,1 UV-I 214 W/m 16,0 C 20,2 C 4,8 km/h (1 Bft) 100,00 %
13.08.2016 11:48 20,1 C 79 % 1024,3 hPa 0,0 l/m 1,7 km/h (1 Bft) W 279 0 min 0,000 mm 2,2 UV-I 216 W/m 16,3 C 20,1 C 4,8 km/h (1 Bft) 97,87 %
13.08.2016 11:50 20,1 C 78 % 1024,3 hPa 0,0 l/m 3,1 km/h (1 Bft) W 277 0 min 0,000 mm 2,5 UV-I 216 W/m 16,1 C 20,1 C 6,4 km/h (2 Bft) 97,92 %
13.08.2016 11:52 20,0 C 76 % 1024,3 hPa 0,0 l/m 2,4 km/h (1 Bft) W 277 0 min 0,000 mm 2,7 UV-I 227 W/m 15,6 C 20,0 C 6,4 km/h (2 Bft) 97,87 %
13.08.2016 11:54 20,0 C 78 % 1024,3 hPa 0,0 l/m 1,9 km/h (1 Bft) W-NW 295 0 min 0,000 mm 3,3 UV-I 255 W/m 16,0 C 20,0 C 3,2 km/h (1 Bft) 100,00 %
13.08.2016 11:56 20,3 C 79 % 1024,3 hPa 0,0 l/m 0,9 km/h (0 Bft) W-NW 295 0 min 0,000 mm 5,9 UV-I 423 W/m 16,5 C 20,3 C 3,2 km/h (1 Bft) 97,87 %
13.08.2016 11:58 20,6 C 76 % 1024,2 hPa 0,0 l/m 1,6 km/h (1 Bft) NW 321 2 min 0,000 mm 6,0 UV-I 1020 W/m 16,2 C 20,6 C 4,8 km/h (1 Bft) 97,87 %
13.08.2016 12:00 20,9 C 74 % 1024,2 hPa 0,0 l/m 3,8 km/h (1 Bft) W-NW 286 2 min 0,203 mm 4,7 UV-I 1016 W/m 16,1 C 20,9 C 4,8 km/h (1 Bft) 100,00 %
13.08.2016 12:02 20,9 C 76 % 1024,2 hPa 0,0 l/m 1,2 km/h (1 Bft) W 281 2 min 0,000 mm 5,2 UV-I 1016 W/m 16,5 C 20,9 C 3,2 km/h (1 Bft) 100,00 %
13.08.2016 12:04 20,9 C 75 % 1024,1 hPa 0,0 l/m 1,3 km/h (1 Bft) N-NO 18 2 min 0,000 mm 4,0 UV-I 527 W/m 16,3 C 20,9 C 8,0 km/h (2 Bft) 97,87 %
13.08.2016 12:06 21,1 C 75 % 1024,1 hPa 0,0 l/m 3,5 km/h (1 Bft) N-NO 28 0 min 0,000 mm 3,8 UV-I 405 W/m 16,5 C 21,1 C 6,4 km/h (2 Bft) 100,00 %
13.08.2016 12:08 21,1 C 73 % 1024,1 hPa 0,0 l/m 3,7 km/h (1 Bft) N 349 0 min 0,000 mm 3,8 UV-I 426 W/m 16,1 C 21,1 C 6,4 km/h (2 Bft) 100,00 %
13.08.2016 12:10 21,1 C 72 % 1024,1 hPa 0,0 l/m 1,4 km/h (1 Bft) W-NW 295 2 min 0,000 mm 4,0 UV-I 482 W/m 15,8 C 21,1 C 3,2 km/h (1 Bft) 100,00 %
13.08.2016 12:12 21,3 C 75 % 1024,0 hPa 0,0 l/m 1,5 km/h (1 Bft) N-NW 348 2 min 0,000 mm 6,3 UV-I 879 W/m 16,7 C 21,3 C 3,2 km/h (1 Bft) 100,00 %
13.08.2016 12:14 21,5 C 75 % 1024,0 hPa 0,0 l/m 0,9 km/h (0 Bft) N-NW 348 2 min 0,000 mm 5,2 UV-I 1185 W/m 16,9 C 21,5 C 1,6 km/h (1 Bft) 100,00 %
13.08.2016 12:16 21,7 C 74 % 1024,0 hPa 0,0 l/m 1,0 km/h (0 Bft) N 349 2 min 0,000 mm 3,8 UV-I 565 W/m 16,9 C 21,7 C 1,6 km/h (1 Bft) 97,87 %
13.08.2016 12:18 21,7 C 72 % 1024,0 hPa 0,0 l/m 3,1 km/h (1 Bft) N-NO 28 0 min 0,000 mm 3,4 UV-I 381 W/m 16,4 C 21,7 C 6,4 km/h (2 Bft) 100,00 %
13.08.2016 12:20 21,7 C 73 % 1024,0 hPa 0,0 l/m 3,9 km/h (1 Bft) N-NO 26 0 min 0,000 mm 3,2 UV-I 346 W/m 16,6 C 21,7 C 6,4 km/h (2 Bft) 100,00 %
13.08.2016 12:22 21,4 C 71 % 1024,0 hPa 0,0 l/m 2,4 km/h (1 Bft) N-NO 26 0 min 0,000 mm 3,2 UV-I 318 W/m 15,9 C 21,4 C 3,2 km/h (1 Bft) 100,00 %
13.08.2016 12:24 21,3 C 71 % 1024,0 hPa 0,0 l/m 0,7 km/h (0 Bft) N-NO 30 0 min 0,000 mm 3,3 UV-I 338 W/m 15,8 C 21,3 C 3,2 km/h (1 Bft) 97,87 %
13.08.2016 12:26 21,1 C 70 % 1024,0 hPa 0,0 l/m 2,6 km/h (1 Bft) S 176 0 min 0,000 mm 3,7 UV-I 396 W/m 15,4 C 21,1 C 4,8 km/h (1 Bft) 100,00 %
13.08.2016 12:28 21,2 C 74 % 1024,0 hPa 0,0 l/m 4,2 km/h (1 Bft) W-SW 252 2 min 0,000 mm 4,9 UV-I 500 W/m 16,4 C 21,2 C 6,4 km/h (2 Bft) 97,87 %
13.08.2016 12:30 21,4 C 70 % 1024,0 hPa 0,0 l/m 2,7 km/h (1 Bft) SW 234 2 min 0,000 mm 6,5 UV-I 928 W/m 15,7 C 21,4 C 4,8 km/h (1 Bft) 97,87 %
13.08.2016 12:32 21,6 C 74 % 1024,0 hPa 0,0 l/m 6,4 km/h (2 Bft) W 261 2 min 0,000 mm 4,0 UV-I 972 W/m 16,8 C 21,6 C 12,9 km/h (3 Bft) 97,87 %
13.08.2016 12:34 21,5 C 71 % 1023,9 hPa 0,0 l/m 4,6 km/h (1 Bft) W 261 0 min 0,000 mm 3,5 UV-I 388 W/m 16,0 C 21,5 C 6,4 km/h (2 Bft) 97,87 %
13.08.2016 12:36 21,5 C 72 % 1023,9 hPa 0,0 l/m 7,4 km/h (2 Bft) S-SW 211 0 min 0,000 mm 3,2 UV-I 352 W/m 16,2 C 21,1 C 9,7 km/h (2 Bft) 97,87 %
13.08.2016 12:38 21,4 C 72 % 1023,9 hPa 0,0 l/m 4,4 km/h (1 Bft) S 180 0 min 0,000 mm 2,9 UV-I 319 W/m 16,1 C 21,4 C 6,4 km/h (2 Bft) 95,74 %
13.08.2016 12:40 21,3 C 72 % 1023,9 hPa 0,0 l/m 2,7 km/h (1 Bft) W-SW 256 0 min 0,000 mm 2,7 UV-I 305 W/m 16,0 C 21,3 C 4,8 km/h (1 Bft) 95,74 %
13.08.2016 12:42 21,3 C 73 % 1024,0 hPa 0,0 l/m 3,3 km/h (1 Bft) SW 236 0 min 0,000 mm 2,6 UV-I 301 W/m 16,3 C 21,3 C 6,4 km/h (2 Bft) 97,87 %
13.08.2016 12:44 21,2 C 73 % 1024,0 hPa 0,0 l/m 2,1 km/h (1 Bft) N-NW 347 0 min 0,000 mm 2,7 UV-I 309 W/m 16,2 C 21,2 C 3,2 km/h (1 Bft) 93,62 %
13.08.2016 12:46 21,2 C 75 % 1023,9 hPa 0,0 l/m 1,5 km/h (1 Bft) N-NW 332 0 min 0,000 mm 2,8 UV-I 320 W/m 16,6 C 21,2 C 3,2 km/h (1 Bft) 95,74 %
13.08.2016 12:48 21,3 C 75 % 1023,8 hPa 0,0 l/m 1,0 km/h (0 Bft) N 355 0 min 0,000 mm 3,2 UV-I 339 W/m 16,7 C 21,3 C 3,2 km/h (1 Bft) 95,74 %
13.08.2016 12:50 21,4 C 73 % 1023,8 hPa 0,0 l/m 1,5 km/h (1 Bft) N 350 0 min 0,000 mm 4,3 UV-I 400 W/m 16,4 C 21,4 C 4,8 km/h (1 Bft) 97,87 %
13.08.2016 12:52 21,4 C 75 % 1023,8 hPa 0,0 l/m 2,4 km/h (1 Bft) N 355 2 min 0,000 mm 4,8 UV-I 552 W/m 16,8 C 21,4 C 4,8 km/h (1 Bft) 97,87 %
13.08.2016 12:54 21,6 C 71 % 1023,8 hPa 0,0 l/m 2,6 km/h (1 Bft) NW 313 2 min 0,000 mm 5,1 UV-I 645 W/m 16,1 C 21,6 C 4,8 km/h (1 Bft) 97,87 %
13.08.2016 12:56 21,6 C 71 % 1023,8 hPa 0,0 l/m 4,3 km/h (1 Bft) W-SW 254 2 min 0,000 mm 5,4 UV-I 729 W/m 16,1 C 21,6 C 6,4 km/h (2 Bft) 94,00 %
13.08.2016 12:58 21,7 C 74 % 1023,8 hPa 0,0 l/m 2,6 km/h (1 Bft) N-NW 334 2 min 0,000 mm 5,8 UV-I 718 W/m 16,9 C 21,7 C 4,8 km/h (1 Bft) 100,00 %
13.08.2016 13:00 21,8 C 71 % 1023,8 hPa 0,0 l/m 3,8 km/h (1 Bft) NW 317 2 min 0,000 mm 5,3 UV-I 615 W/m 16,3 C 21,8 C 8,0 km/h (2 Bft) 97,92 %
13.08.2016 13:02 21,9 C 71 % 1023,8 hPa 0,0 l/m 2,9 km/h (1 Bft) W-NW 297 2 min 0,305 mm 5,0 UV-I 573 W/m 16,4 C 21,9 C 6,4 km/h (2 Bft) 100,00 %
13.08.2016 13:04 21,9 C 70 % 1023,8 hPa 0,0 l/m 2,3 km/h (1 Bft) N-NW 341 2 min 0,000 mm 5,3 UV-I 547 W/m 16,2 C 21,9 C 4,8 km/h (1 Bft) 100,00 %
13.08.2016 13:06 22,1 C 73 % 1023,8 hPa 0,0 l/m 3,9 km/h (1 Bft) NW 309 2 min 0,000 mm 5,8 UV-I 714 W/m 17,0 C 22,1 C 8,0 km/h (2 Bft) 100,00 %
13.08.2016 13:08 22,3 C 68 % 1023,7 hPa 0,0 l/m 2,6 km/h (1 Bft) N 5 2 min 0,000 mm 5,6 UV-I 636 W/m 16,1 C 22,3 C 6,4 km/h (2 Bft) 97,87 %
13.08.2016 13:10 22,3 C 70 % 1023,7 hPa 0,0 l/m 3,4 km/h (1 Bft) N 355 2 min 0,000 mm 5,7 UV-I 616 W/m 16,6 C 22,3 C 6,4 km/h (2 Bft) 97,87 %
13.08.2016 13:12 22,3 C 69 % 1023,7 hPa 0,0 l/m 2,4 km/h (1 Bft) N-NW 331 2 min 0,000 mm 6,5 UV-I 717 W/m 16,3 C 22,3 C 4,8 km/h (1 Bft) 100,00 %
13.08.2016 13:14 22,4 C 69 % 1023,6 hPa 0,0 l/m 2,1 km/h (1 Bft) N 350 2 min 0,000 mm 6,1 UV-I 912 W/m 16,4 C 22,4 C 6,4 km/h (2 Bft) 100,00 %
13.08.2016 13:16 22,5 C 69 % 1023,6 hPa 0,0 l/m 2,4 km/h (1 Bft) N 5 2 min 0,000 mm 6,5 UV-I 886 W/m 16,5 C 22,5 C 6,4 km/h (2 Bft) 100,00 %
13.08.2016 13:18 22,4 C 68 % 1023,6 hPa 0,0 l/m 2,3 km/h (1 Bft) N-NW 330 2 min 0,000 mm 6,5 UV-I 866 W/m 16,2 C 22,4 C 3,2 km/h (1 Bft) 100,00 %
13.08.2016 13:20 22,6 C 77 % 1023,6 hPa 0,0 l/m 3,4 km/h (1 Bft) N 11 2 min 0,000 mm 6,5 UV-I 869 W/m 18,4 C 22,6 C 6,4 km/h (2 Bft) 100,00 %
13.08.2016 13:22 22,7 C 70 % 1023,5 hPa 0,0 l/m 3,6 km/h (1 Bft) N-NO 24 2 min 0,000 mm 6,5 UV-I 876 W/m 16,9 C 22,7 C 6,4 km/h (2 Bft) 98,11 %
13.08.2016 13:24 22,8 C 70 % 1023,5 hPa 0,0 l/m 5,1 km/h (1 Bft) N-NO 15 2 min 0,000 mm 6,6 UV-I 901 W/m 17,0 C 22,8 C 11,3 km/h (2 Bft) 93,62 %
13.08.2016 13:26 22,8 C 70 % 1023,5 hPa 0,0 l/m 3,5 km/h (1 Bft) O-NO 74 2 min 0,000 mm 6,6 UV-I 949 W/m 17,0 C 22,8 C 8,0 km/h (2 Bft) 100,00 %
13.08.2016 13:28 23,1 C 70 % 1023,5 hPa 0,0 l/m 3,7 km/h (1 Bft) N 5 2 min 0,000 mm 6,6 UV-I 996 W/m 17,3 C 23,1 C 9,7 km/h (2 Bft) 100,00 %
13.08.2016 13:30 23,2 C 71 % 1023,5 hPa 0,0 l/m 8,7 km/h (2 Bft) NO 38 2 min 0,000 mm 5,8 UV-I 1002 W/m 17,6 C 22,5 C 16,1 km/h (3 Bft) 97,87 %
13.08.2016 13:32 23,1 C 71 % 1023,5 hPa 0,0 l/m 9,7 km/h (2 Bft) NO 39 2 min 0,000 mm 5,7 UV-I 691 W/m 17,5 C 22,1 C 14,5 km/h (3 Bft) 92,50 %
13.08.2016 13:34 22,9 C 70 % 1023,5 hPa 0,0 l/m 8,0 km/h (2 Bft) NO 50 2 min 0,000 mm 5,4 UV-I 607 W/m 17,1 C 22,4 C 11,3 km/h (2 Bft) 100,00 %
13.08.2016 13:36 22,7 C 69 % 1023,5 hPa 0,0 l/m 5,9 km/h (2 Bft) O-NO 67 0 min 0,000 mm 4,1 UV-I 396 W/m 16,7 C 22,7 C 8,0 km/h (2 Bft) 100,00 %
13.08.2016 13:38 22,4 C 70 % 1023,5 hPa 0,0 l/m 5,4 km/h (1 Bft) N-NO 31 0 min 0,000 mm 3,5 UV-I 236 W/m 16,7 C 22,4 C 8,0 km/h (2 Bft) 100,00 %
13.08.2016 13:40 22,2 C 70 % 1023,5 hPa 0,0 l/m 3,4 km/h (1 Bft) N-NO 21 0 min 0,000 mm 3,5 UV-I 214 W/m 16,5 C 22,2 C 6,4 km/h (2 Bft) 100,00 %
13.08.2016 13:42 22,2 C 73 % 1023,4 hPa 0,0 l/m 3,2 km/h (1 Bft) N-NO 27 0 min 0,000 mm 6,2 UV-I 419 W/m 17,1 C 22,2 C 6,4 km/h (2 Bft) 97,87 %
13.08.2016 13:44 22,7 C 75 % 1023,4 hPa 0,0 l/m 4,9 km/h (1 Bft) N-NO 22 2 min 0,000 mm 6,5 UV-I 998 W/m 18,0 C 22,7 C 9,7 km/h (2 Bft) 100,00 %
13.08.2016 13:46 22,9 C 68 % 1023,4 hPa 0,0 l/m 7,1 km/h (2 Bft) NO 46 2 min 0,000 mm 6,1 UV-I 861 W/m 16,7 C 22,7 C 9,7 km/h (2 Bft) 100,00 %
13.08.2016 13:48 23,0 C 71 % 1023,4 hPa 0,0 l/m 7,3 km/h (2 Bft) NO 36 2 min 0,000 mm 5,5 UV-I 743 W/m 17,4 C 22,7 C 11,3 km/h (2 Bft) 100,00 %
13.08.2016 13:50 22,9 C 74 % 1023,4 hPa 0,0 l/m 2,2 km/h (1 Bft) N 5 2 min 0,000 mm 4,8 UV-I 626 W/m 18,0 C 22,9 C 6,4 km/h (2 Bft) 100,00 %
13.08.2016 13:52 22,9 C 69 % 1023,4 hPa 0,0 l/m 5,2 km/h (1 Bft) O-NO 70 2 min 0,000 mm 4,4 UV-I 502 W/m 16,9 C 22,9 C 9,7 km/h (2 Bft) 100,00 %
13.08.2016 13:54 22,8 C 68 % 1023,4 hPa 0,0 l/m 5,1 km/h (1 Bft) NO 51 2 min 0,000 mm 4,8 UV-I 547 W/m 16,6 C 22,8 C 11,3 km/h (2 Bft) 100,00 %
13.08.2016 13:56 22,8 C 69 % 1023,3 hPa 0,0 l/m 5,2 km/h (1 Bft) NO 51 2 min 0,000 mm 4,7 UV-I 579 W/m 16,8 C 22,8 C 9,7 km/h (2 Bft) 100,00 %
13.08.2016 13:58 22,8 C 68 % 1023,4 hPa 0,0 l/m 6,0 km/h (2 Bft) NO 38 2 min 0,000 mm 5,0 UV-I 635 W/m 16,6 C 22,8 C 9,7 km/h (2 Bft) 95,74 %
13.08.2016 14:00 22,9 C 67 % 1023,4 hPa 0,0 l/m 4,3 km/h (1 Bft) NO 40 2 min 0,432 mm 5,1 UV-I 710 W/m 16,4 C 22,9 C 9,7 km/h (2 Bft) 100,00 %
13.08.2016 14:02 22,8 C 68 % 1023,4 hPa 0,0 l/m 6,3 km/h (2 Bft) SO 126 2 min 0,000 mm 4,3 UV-I 666 W/m 16,6 C 22,8 C 9,7 km/h (2 Bft) 97,87 %
13.08.2016 14:04 22,8 C 70 % 1023,4 hPa 0,0 l/m 6,8 km/h (2 Bft) NO 55 2 min 0,000 mm 6,5 UV-I 856 W/m 17,0 C 22,7 C 11,3 km/h (2 Bft) 100,00 %
13.08.2016 14:06 22,9 C 69 % 1023,3 hPa 0,0 l/m 9,0 km/h (2 Bft) O-NO 72 2 min 0,000 mm 6,4 UV-I 995 W/m 16,9 C 22,1 C 14,5 km/h (3 Bft) 95,74 %
13.08.2016 14:08 23,1 C 67 % 1023,3 hPa 0,0 l/m 4,5 km/h (1 Bft) NO 43 2 min 0,000 mm 6,2 UV-I 941 W/m 16,6 C 23,1 C 9,7 km/h (2 Bft) 100,00 %
13.08.2016 14:10 23,2 C 71 % 1023,3 hPa 0,0 l/m 4,0 km/h (1 Bft) O-NO 62 2 min 0,000 mm 6,1 UV-I 915 W/m 17,6 C 23,2 C 6,4 km/h (2 Bft) 97,37 %
13.08.2016 14:12 23,4 C 67 % 1023,3 hPa 0,0 l/m 5,7 km/h (1 Bft) NO 38 2 min 0,000 mm 5,8 UV-I 895 W/m 16,9 C 23,4 C 8,0 km/h (2 Bft) 97,87 %
13.08.2016 14:14 23,4 C 66 % 1023,3 hPa 0,0 l/m 3,3 km/h (1 Bft) N-NW 338 2 min 0,000 mm 4,9 UV-I 862 W/m 16,7 C 23,4 C 6,4 km/h (2 Bft) 100,00 %
13.08.2016 14:16 23,4 C 69 % 1023,3 hPa 0,0 l/m 3,6 km/h (1 Bft) W-NW 298 2 min 0,000 mm 5,4 UV-I 856 W/m 17,4 C 23,4 C 6,4 km/h (2 Bft) 97,87 %
13.08.2016 14:18 23,3 C 66 % 1023,3 hPa 0,0 l/m 5,4 km/h (1 Bft) W-NW 282 2 min 0,000 mm 4,2 UV-I 533 W/m 16,6 C 23,3 C 9,7 km/h (2 Bft) 97,87 %
13.08.2016 14:20 23,1 C 67 % 1023,3 hPa 0,0 l/m 4,7 km/h (1 Bft) W 281 0 min 0,000 mm 4,2 UV-I 373 W/m 16,6 C 23,1 C 9,7 km/h (2 Bft) 97,92 %
13.08.2016 14:22 23,1 C 68 % 1023,2 hPa 0,0 l/m 3,8 km/h (1 Bft) NO 49 2 min 0,000 mm 4,6 UV-I 459 W/m 16,9 C 23,1 C 8,0 km/h (2 Bft) 97,87 %
13.08.2016 14:24 23,2 C 69 % 1023,2 hPa 0,0 l/m 6,4 km/h (2 Bft) O-NO 70 2 min 0,000 mm 5,8 UV-I 770 W/m 17,2 C 23,2 C 12,9 km/h (3 Bft) 95,74 %
13.08.2016 14:26 23,4 C 68 % 1023,2 hPa 0,0 l/m 7,1 km/h (2 Bft) NO 42 2 min 0,000 mm 5,8 UV-I 855 W/m 17,1 C 23,2 C 12,9 km/h (3 Bft) 98,00 %
13.08.2016 14:28 23,7 C 68 % 1023,1 hPa 0,0 l/m 5,7 km/h (1 Bft) O-NO 59 2 min 0,000 mm 5,6 UV-I 855 W/m 17,4 C 23,7 C 8,0 km/h (2 Bft) 95,74 %
13.08.2016 14:30 23,8 C 66 % 1023,1 hPa 0,0 l/m 10,8 km/h (2 Bft) N 9 2 min 0,000 mm 5,5 UV-I 829 W/m 17,1 C 22,7 C 17,7 km/h (3 Bft) 95,74 %
13.08.2016 14:32 23,7 C 63 % 1023,1 hPa 0,0 l/m 4,3 km/h (1 Bft) NO 38 2 min 0,000 mm 5,7 UV-I 855 W/m 16,2 C 23,7 C 9,7 km/h (2 Bft) 95,74 %
13.08.2016 14:34 23,7 C 66 % 1023,1 hPa 0,0 l/m 5,5 km/h (1 Bft) N-NO 17 2 min 0,000 mm 5,6 UV-I 869 W/m 17,0 C 23,7 C 12,9 km/h (3 Bft) 97,87 %
13.08.2016 14:36 23,8 C 65 % 1023,1 hPa 0,0 l/m 5,0 km/h (1 Bft) N-NO 21 2 min 0,000 mm 4,7 UV-I 849 W/m 16,8 C 23,8 C 12,9 km/h (3 Bft) 97,87 %
13.08.2016 14:38 23,4 C 63 % 1023,1 hPa 0,0 l/m 2,1 km/h (1 Bft) W-SW 254 2 min 0,000 mm 4,3 UV-I 701 W/m 15,9 C 23,4 C 4,8 km/h (1 Bft) 97,50 %
13.08.2016 14:40 23,1 C 66 % 1023,1 hPa 0,0 l/m 4,0 km/h (1 Bft) NO 44 2 min 0,000 mm 3,9 UV-I 444 W/m 16,4 C 23,1 C 8,0 km/h (2 Bft) 98,00 %
13.08.2016 14:42 22,9 C 66 % 1023,1 hPa 0,0 l/m 3,6 km/h (1 Bft) S-SO 155 2 min 0,000 mm 4,1 UV-I 538 W/m 16,2 C 22,9 C 6,4 km/h (2 Bft) 95,83 %
13.08.2016 14:44 22,9 C 65 % 1023,0 hPa 0,0 l/m 3,3 km/h (1 Bft) SO 130 2 min 0,000 mm 3,9 UV-I 525 W/m 16,0 C 22,9 C 8,0 km/h (2 Bft) 97,87 %
13.08.2016 14:46 23,0 C 68 % 1023,1 hPa 0,0 l/m 2,2 km/h (1 Bft) O-SO 118 0 min 0,000 mm 3,6 UV-I 419 W/m 16,8 C 23,0 C 6,4 km/h (2 Bft) 97,83 %
13.08.2016 14:48 23,1 C 67 % 1023,0 hPa 0,0 l/m 1,3 km/h (1 Bft) O-NO 71 0 min 0,000 mm 4,7 UV-I 338 W/m 16,6 C 23,1 C 4,8 km/h (1 Bft) 97,96 %
13.08.2016 14:50 23,2 C 66 % 1023,0 hPa 0,0 l/m 2,2 km/h (1 Bft) NO 34 0 min 0,000 mm 5,0 UV-I 338 W/m 16,5 C 23,2 C 4,8 km/h (1 Bft) 97,87 %
13.08.2016 14:52 23,4 C 66 % 1022,9 hPa 0,0 l/m 2,4 km/h (1 Bft) N-NW 338 0 min 0,000 mm 3,8 UV-I 338 W/m 16,7 C 23,4 C 4,8 km/h (1 Bft) 95,74 %
13.08.2016 14:54 23,4 C 64 % 1022,9 hPa 0,0 l/m 1,4 km/h (1 Bft) N-NW 342 0 min 0,000 mm 4,1 UV-I 403 W/m 16,2 C 23,4 C 3,2 km/h (1 Bft) 97,87 %
13.08.2016 14:56 23,3 C 63 % 1022,9 hPa 0,0 l/m 2,1 km/h (1 Bft) W 273 2 min 0,000 mm 3,9 UV-I 479 W/m 15,9 C 23,3 C 4,8 km/h (1 Bft) 97,87 %
13.08.2016 14:58 23,1 C 65 % 1022,8 hPa 0,0 l/m 2,4 km/h (1 Bft) S-SW 212 0 min 0,000 mm 4,3 UV-I 371 W/m 16,2 C 23,1 C 4,8 km/h (1 Bft) 100,00 %
13.08.2016 15:00 23,3 C 68 % 1022,8 hPa 0,0 l/m 3,3 km/h (1 Bft) NO 47 2 min 0,432 mm 4,8 UV-I 814 W/m 17,1 C 23,3 C 8,0 km/h (2 Bft) 100,00 %
13.08.2016 15:02 23,6 C 68 % 1022,8 hPa 0,0 l/m 8,5 km/h (2 Bft) NO 44 2 min 0,000 mm 3,6 UV-I 559 W/m 17,3 C 23,0 C 12,9 km/h (3 Bft) 100,00 %
13.08.2016 15:04 23,7 C 67 % 1022,7 hPa 0,0 l/m 6,7 km/h (2 Bft) N-NO 14 2 min 0,000 mm 4,9 UV-I 663 W/m 17,2 C 23,6 C 12,9 km/h (3 Bft) 97,87 %
13.08.2016 15:06 23,9 C 65 % 1022,7 hPa 0,0 l/m 8,8 km/h (2 Bft) NO 53 2 min 0,000 mm 4,9 UV-I 829 W/m 16,9 C 23,2 C 12,9 km/h (3 Bft) 97,87 %
13.08.2016 15:08 24,1 C 66 % 1022,7 hPa 0,0 l/m 6,5 km/h (2 Bft) NO 49 2 min 0,000 mm 4,8 UV-I 815 W/m 17,3 C 24,1 C 11,3 km/h (2 Bft) 97,87 %
13.08.2016 15:10 24,2 C 65 % 1022,7 hPa 0,0 l/m 7,5 km/h (2 Bft) NO 49 2 min 0,000 mm 4,8 UV-I 812 W/m 17,2 C 23,9 C 11,3 km/h (2 Bft) 100,00 %
13.08.2016 15:12 24,2 C 61 % 1022,7 hPa 0,0 l/m 4,3 km/h (1 Bft) NO 50 2 min 0,000 mm 4,6 UV-I 790 W/m 16,2 C 24,2 C 8,0 km/h (2 Bft) 97,87 %
13.08.2016 15:14 24,1 C 62 % 1022,7 hPa 0,0 l/m 0,9 km/h (0 Bft) SO 132 2 min 0,000 mm 4,6 UV-I 784 W/m 16,4 C 24,1 C 3,2 km/h (1 Bft) 100,00 %
13.08.2016 15:16 23,9 C 63 % 1022,7 hPa 0,0 l/m 1,8 km/h (1 Bft) O-NO 62 2 min 0,000 mm 4,7 UV-I 810 W/m 16,4 C 23,9 C 6,4 km/h (2 Bft) 100,00 %
13.08.2016 15:18 23,9 C 66 % 1022,7 hPa 0,0 l/m 3,3 km/h (1 Bft) NO 56 2 min 0,000 mm 4,6 UV-I 816 W/m 17,1 C 23,9 C 6,4 km/h (2 Bft) 100,00 %
13.08.2016 15:20 24,2 C 66 % 1022,7 hPa 0,0 l/m 5,4 km/h (1 Bft) O-NO 61 2 min 0,000 mm 4,6 UV-I 820 W/m 17,4 C 24,2 C 8,0 km/h (2 Bft) 100,00 %
13.08.2016 15:22 24,2 C 66 % 1022,7 hPa 0,0 l/m 4,3 km/h (1 Bft) O 79 2 min 0,000 mm 4,5 UV-I 803 W/m 17,4 C 24,2 C 6,4 km/h (2 Bft) 100,00 %
13.08.2016 15:24 24,1 C 64 % 1022,6 hPa 0,0 l/m 2,3 km/h (1 Bft) W-NW 297 2 min 0,000 mm 4,4 UV-I 779 W/m 16,9 C 24,1 C 8,0 km/h (2 Bft) 100,00 %
13.08.2016 15:26 24,3 C 67 % 1022,6 hPa 0,0 l/m 3,0 km/h (1 Bft) NO 44 2 min 0,000 mm 4,3 UV-I 759 W/m 17,8 C 24,3 C 4,8 km/h (1 Bft) 95,74 %
13.08.2016 15:28 24,3 C 63 % 1022,6 hPa 0,0 l/m 3,3 km/h (1 Bft) N-NW 327 2 min 0,000 mm 4,3 UV-I 738 W/m 16,8 C 24,3 C 6,4 km/h (2 Bft) 100,00 %
13.08.2016 15:30 24,3 C 65 % 1022,6 hPa 0,0 l/m 2,6 km/h (1 Bft) NW 325 2 min 0,000 mm 4,3 UV-I 729 W/m 17,3 C 24,3 C 6,4 km/h (2 Bft) 100,00 %
13.08.2016 15:32 24,1 C 63 % 1022,6 hPa 0,0 l/m 3,4 km/h (1 Bft) NW 308 2 min 0,000 mm 4,1 UV-I 714 W/m 16,6 C 24,1 C 6,4 km/h (2 Bft) 97,87 %
13.08.2016 15:34 23,8 C 64 % 1022,5 hPa 0,0 l/m 3,2 km/h (1 Bft) W-NW 296 2 min 0,000 mm 4,0 UV-I 700 W/m 16,6 C 23,8 C 4,8 km/h (1 Bft) 100,00 %
13.08.2016 15:36 24,0 C 65 % 1022,5 hPa 0,0 l/m 6,3 km/h (2 Bft) NO 52 2 min 0,000 mm 4,0 UV-I 703 W/m 17,0 C 24,0 C 9,7 km/h (2 Bft) 100,00 %
13.08.2016 15:38 23,9 C 63 % 1022,5 hPa 0,0 l/m 6,7 km/h (2 Bft) O-NO 59 2 min 0,000 mm 2,7 UV-I 707 W/m 16,4 C 23,8 C 9,7 km/h (2 Bft) 100,00 %
13.08.2016 15:40 23,8 C 65 % 1022,5 hPa 0,0 l/m 6,9 km/h (2 Bft) NO 46 2 min 0,000 mm 3,6 UV-I 696 W/m 16,8 C 23,7 C 8,0 km/h (2 Bft) 100,00 %
13.08.2016 15:42 23,8 C 67 % 1022,5 hPa 0,0 l/m 6,1 km/h (2 Bft) NO 35 2 min 0,000 mm 3,1 UV-I 448 W/m 17,3 C 23,8 C 12,9 km/h (3 Bft) 100,00 %
13.08.2016 15:44 23,7 C 64 % 1022,5 hPa 0,0 l/m 3,4 km/h (1 Bft) N-NO 27 0 min 0,000 mm 2,5 UV-I 174 W/m 16,5 C 23,7 C 8,0 km/h (2 Bft) 100,00 %
13.08.2016 15:46 23,4 C 63 % 1022,6 hPa 0,0 l/m 1,4 km/h (1 Bft) N-NO 27 0 min 0,000 mm 2,9 UV-I 172 W/m 15,9 C 23,4 C 4,8 km/h (1 Bft) 100,00 %
13.08.2016 15:48 23,4 C 65 % 1022,5 hPa 0,0 l/m 3,4 km/h (1 Bft) NW 324 2 min 0,000 mm 2,9 UV-I 541 W/m 16,4 C 23,4 C 6,4 km/h (2 Bft) 100,00 %
13.08.2016 15:50 23,4 C 67 % 1022,4 hPa 0,0 l/m 2,6 km/h (1 Bft) O-NO 63 2 min 0,000 mm 2,3 UV-I 493 W/m 16,9 C 23,4 C 6,4 km/h (2 Bft) 97,87 %
13.08.2016 15:52 23,3 C 64 % 1022,4 hPa 0,0 l/m 3,0 km/h (1 Bft) O 84 0 min 0,000 mm 2,2 UV-I 117 W/m 16,1 C 23,3 C 6,4 km/h (2 Bft) 100,00 %
13.08.2016 15:54 23,2 C 64 % 1022,4 hPa 0,0 l/m 2,1 km/h (1 Bft) NO 54 0 min 0,000 mm 3,2 UV-I 161 W/m 16,0 C 23,2 C 4,8 km/h (1 Bft) 100,00 %
13.08.2016 15:56 23,5 C 70 % 1022,4 hPa 0,0 l/m 3,9 km/h (1 Bft) NO 42 2 min 0,000 mm 3,5 UV-I 684 W/m 17,7 C 23,5 C 6,4 km/h (2 Bft) 100,00 %
13.08.2016 15:58 23,8 C 67 % 1022,4 hPa 0,0 l/m 6,8 km/h (2 Bft) NO 35 2 min 0,000 mm 3,2 UV-I 657 W/m 17,3 C 23,7 C 9,7 km/h (2 Bft) 94,29 %
13.08.2016 16:00 24,2 C 66 % 1022,4 hPa 0,0 l/m 6,3 km/h (2 Bft) N-NO 15 2 min 0,000 mm 3,4 UV-I 656 W/m 17,4 C 24,2 C 12,9 km/h (3 Bft) 100,00 %
13.08.2016 16:02 24,4 C 63 % 1022,4 hPa 0,0 l/m 4,0 km/h (1 Bft) NO 54 2 min 0,406 mm 3,3 UV-I 636 W/m 16,9 C 24,4 C 8,0 km/h (2 Bft) 97,87 %
13.08.2016 16:04 24,4 C 64 % 1022,3 hPa 0,0 l/m 7,4 km/h (2 Bft) NO 49 2 min 0,000 mm 3,3 UV-I 644 W/m 17,1 C 24,1 C 11,3 km/h (2 Bft) 100,00 %
13.08.2016 16:06 24,4 C 64 % 1022,2 hPa 0,0 l/m 6,1 km/h (2 Bft) N-NO 24 2 min 0,000 mm 3,3 UV-I 663 W/m 17,1 C 24,4 C 9,7 km/h (2 Bft) 95,74 %
13.08.2016 16:08 24,4 C 64 % 1022,2 hPa 0,0 l/m 6,4 km/h (2 Bft) N-NO 33 2 min 0,000 mm 3,3 UV-I 676 W/m 17,1 C 24,4 C 11,3 km/h (2 Bft) 100,00 %
13.08.2016 16:10 24,6 C 64 % 1022,1 hPa 0,0 l/m 7,3 km/h (2 Bft) NO 35 2 min 0,000 mm 3,3 UV-I 658 W/m 17,3 C 24,4 C 12,9 km/h (3 Bft) 100,00 %
13.08.2016 16:12 24,6 C 63 % 1022,1 hPa 0,0 l/m 4,7 km/h (1 Bft) N-NO 22 2 min 0,000 mm 3,2 UV-I 636 W/m 17,1 C 24,6 C 9,7 km/h (2 Bft) 100,00 %
13.08.2016 16:14 24,7 C 64 % 1022,1 hPa 0,0 l/m 6,6 km/h (2 Bft) NO 52 2 min 0,000 mm 3,1 UV-I 638 W/m 17,4 C 24,7 C 9,7 km/h (2 Bft) 97,87 %
13.08.2016 16:16 24,6 C 65 % 1022,1 hPa 0,0 l/m 3,1 km/h (1 Bft) N-NW 338 2 min 0,000 mm 3,0 UV-I 623 W/m 17,6 C 24,6 C 6,4 km/h (2 Bft) 97,92 %
13.08.2016 16:18 24,7 C 64 % 1022,1 hPa 0,0 l/m 3,2 km/h (1 Bft) N-NW 333 2 min 0,000 mm 2,7 UV-I 619 W/m 17,4 C 24,7 C 11,3 km/h (2 Bft) 100,00 %
13.08.2016 16:20 24,7 C 60 % 1022,1 hPa 0,0 l/m 2,0 km/h (1 Bft) N-NW 335 2 min 0,000 mm 2,4 UV-I 619 W/m 16,4 C 24,7 C 3,2 km/h (1 Bft) 97,87 %
13.08.2016 16:22 24,4 C 62 % 1022,1 hPa 0,0 l/m 2,3 km/h (1 Bft) NW 304 2 min 0,000 mm 2,8 UV-I 595 W/m 16,6 C 24,4 C 4,8 km/h (1 Bft) 96,00 %
13.08.2016 16:24 24,6 C 62 % 1022,1 hPa 0,0 l/m 1,6 km/h (1 Bft) NW 309 2 min 0,000 mm 2,7 UV-I 582 W/m 16,8 C 24,6 C 3,2 km/h (1 Bft) 97,87 %
13.08.2016 16:26 24,6 C 60 % 1022,1 hPa 0,0 l/m 1,3 km/h (1 Bft) NW 321 2 min 0,000 mm 2,8 UV-I 623 W/m 16,3 C 24,6 C 3,2 km/h (1 Bft) 95,74 %
13.08.2016 16:28 24,6 C 60 % 1022,0 hPa 0,0 l/m 3,4 km/h (1 Bft) NO 44 2 min 0,000 mm 2,8 UV-I 627 W/m 16,3 C 24,6 C 8,0 km/h (2 Bft) 97,87 %
13.08.2016 16:30 24,6 C 61 % 1022,0 hPa 0,0 l/m 3,1 km/h (1 Bft) N-NW 337 2 min 0,000 mm 2,7 UV-I 599 W/m 16,6 C 24,6 C 9,7 km/h (2 Bft) 94,00 %
13.08.2016 16:32 24,4 C 62 % 1022,0 hPa 0,0 l/m 3,2 km/h (1 Bft) NO 42 2 min 0,000 mm 2,6 UV-I 586 W/m 16,6 C 24,4 C 8,0 km/h (2 Bft) 97,37 %
13.08.2016 16:34 24,4 C 64 % 1022,0 hPa 0,0 l/m 5,9 km/h (2 Bft) N-NO 13 2 min 0,000 mm 2,6 UV-I 589 W/m 17,1 C 24,4 C 11,3 km/h (2 Bft) 95,74 %
13.08.2016 16:36 24,6 C 66 % 1022,0 hPa 0,0 l/m 5,9 km/h (2 Bft) NO 44 2 min 0,000 mm 2,6 UV-I 567 W/m 17,8 C 24,6 C 9,7 km/h (2 Bft) 97,87 %
13.08.2016 16:38 24,6 C 61 % 1021,9 hPa 0,0 l/m 6,8 km/h (2 Bft) NO 49 2 min 0,000 mm 2,5 UV-I 552 W/m 16,6 C 24,5 C 9,7 km/h (2 Bft) 97,87 %
13.08.2016 16:40 24,5 C 62 % 1021,9 hPa 0,0 l/m 3,8 km/h (1 Bft) O-NO 58 2 min 0,000 mm 2,5 UV-I 549 W/m 16,7 C 24,5 C 4,8 km/h (1 Bft) 95,74 %
13.08.2016 16:42 24,4 C 63 % 1021,9 hPa 0,0 l/m 1,4 km/h (1 Bft) N-NO 30 2 min 0,000 mm 2,4 UV-I 541 W/m 16,9 C 24,4 C 4,8 km/h (1 Bft) 95,74 %
13.08.2016 16:44 24,4 C 64 % 1021,9 hPa 0,0 l/m 2,9 km/h (1 Bft) O-NO 64 2 min 0,000 mm 2,4 UV-I 533 W/m 17,1 C 24,4 C 6,4 km/h (2 Bft) 95,74 %
13.08.2016 16:46 24,6 C 62 % 1021,9 hPa 0,0 l/m 4,0 km/h (1 Bft) NO 41 2 min 0,000 mm 2,3 UV-I 524 W/m 16,8 C 24,6 C 8,0 km/h (2 Bft) 95,74 %
13.08.2016 16:48 24,6 C 61 % 1021,8 hPa 0,0 l/m 2,9 km/h (1 Bft) N 355 2 min 0,000 mm 2,2 UV-I 517 W/m 16,6 C 24,6 C 4,8 km/h (1 Bft) 95,74 %
13.08.2016 16:50 24,5 C 61 % 1021,8 hPa 0,0 l/m 2,9 km/h (1 Bft) NO 34 2 min 0,000 mm 2,2 UV-I 511 W/m 16,5 C 24,5 C 4,8 km/h (1 Bft) 98,00 %
13.08.2016 16:52 24,6 C 65 % 1021,9 hPa 0,0 l/m 2,3 km/h (1 Bft) NO 38 2 min 0,000 mm 2,2 UV-I 509 W/m 17,6 C 24,6 C 4,8 km/h (1 Bft) 97,92 %
13.08.2016 16:54 24,7 C 61 % 1021,8 hPa 0,0 l/m 1,6 km/h (1 Bft) NO 44 2 min 0,000 mm 2,1 UV-I 504 W/m 16,7 C 24,7 C 4,8 km/h (1 Bft) 100,00 %
13.08.2016 16:56 24,7 C 60 % 1021,8 hPa 0,0 l/m 1,6 km/h (1 Bft) O-NO 74 2 min 0,000 mm 2,1 UV-I 503 W/m 16,4 C 24,7 C 4,8 km/h (1 Bft) 100,00 %
13.08.2016 16:58 24,7 C 62 % 1021,8 hPa 0,0 l/m 2,4 km/h (1 Bft) N 5 2 min 0,000 mm 2,0 UV-I 489 W/m 16,9 C 24,7 C 4,8 km/h (1 Bft) 97,87 %
13.08.2016 17:00 24,8 C 61 % 1021,8 hPa 0,0 l/m 0,8 km/h (0 Bft) N-NW 347 2 min 0,000 mm 2,0 UV-I 490 W/m 16,8 C 24,8 C 1,6 km/h (1 Bft) 100,00 %
13.08.2016 17:02 24,8 C 59 % 1021,8 hPa 0,0 l/m 4,1 km/h (1 Bft) N-NW 331 2 min 0,381 mm 2,0 UV-I 489 W/m 16,2 C 24,8 C 11,3 km/h (2 Bft) 97,44 %
13.08.2016 17:04 24,7 C 61 % 1021,8 hPa 0,0 l/m 3,0 km/h (1 Bft) N 11 2 min 0,000 mm 1,9 UV-I 483 W/m 16,7 C 24,7 C 6,4 km/h (2 Bft) 100,00 %
13.08.2016 17:06 24,6 C 61 % 1021,8 hPa 0,0 l/m 3,0 km/h (1 Bft) W-NW 300 2 min 0,000 mm 1,9 UV-I 476 W/m 16,6 C 24,6 C 6,4 km/h (2 Bft) 100,00 %
13.08.2016 17:08 24,5 C 60 % 1021,8 hPa 0,0 l/m 2,2 km/h (1 Bft) N-NW 331 2 min 0,000 mm 1,8 UV-I 470 W/m 16,2 C 24,5 C 6,4 km/h (2 Bft) 100,00 %
13.08.2016 17:10 24,3 C 58 % 1021,8 hPa 0,0 l/m 2,0 km/h (1 Bft) N-NW 344 2 min 0,000 mm 1,8 UV-I 471 W/m 15,5 C 24,3 C 4,8 km/h (1 Bft) 100,00 %
13.08.2016 17:12 24,4 C 61 % 1021,8 hPa 0,0 l/m 0,8 km/h (0 Bft) N-NO 16 2 min 0,000 mm 1,7 UV-I 465 W/m 16,4 C 24,4 C 3,2 km/h (1 Bft) 100,00 %
13.08.2016 17:14 24,3 C 59 % 1021,8 hPa 0,0 l/m 1,9 km/h (1 Bft) SW 214 2 min 0,000 mm 1,7 UV-I 460 W/m 15,8 C 24,3 C 4,8 km/h (1 Bft) 100,00 %
13.08.2016 17:16 24,3 C 62 % 1021,8 hPa 0,0 l/m 1,3 km/h (1 Bft) SW 214 2 min 0,000 mm 1,7 UV-I 453 W/m 16,5 C 24,3 C 3,2 km/h (1 Bft) 100,00 %
13.08.2016 17:18 24,5 C 61 % 1021,8 hPa 0,0 l/m 1,4 km/h (1 Bft) N 5 2 min 0,000 mm 1,6 UV-I 446 W/m 16,5 C 24,5 C 3,2 km/h (1 Bft) 100,00 %
13.08.2016 17:20 24,7 C 59 % 1021,8 hPa 0,0 l/m 1,9 km/h (1 Bft) N-NW 340 2 min 0,000 mm 1,6 UV-I 438 W/m 16,1 C 24,7 C 4,8 km/h (1 Bft) 98,00 %
13.08.2016 17:22 24,6 C 59 % 1021,8 hPa 0,0 l/m 1,6 km/h (1 Bft) NW 319 2 min 0,000 mm 1,6 UV-I 432 W/m 16,0 C 24,6 C 4,8 km/h (1 Bft) 95,83 %
13.08.2016 17:24 24,6 C 60 % 1021,8 hPa 0,0 l/m 2,0 km/h (1 Bft) N 355 2 min 0,000 mm 1,5 UV-I 429 W/m 16,3 C 24,6 C 4,8 km/h (1 Bft) 100,00 %
13.08.2016 17:26 24,3 C 60 % 1021,8 hPa 0,0 l/m 2,0 km/h (1 Bft) N 11 2 min 0,000 mm 1,5 UV-I 424 W/m 16,0 C 24,3 C 4,8 km/h (1 Bft) 95,74 %
13.08.2016 17:28 24,3 C 61 % 1021,8 hPa 0,0 l/m 1,7 km/h (1 Bft) N-NO 32 2 min 0,000 mm 1,4 UV-I 418 W/m 16,3 C 24,3 C 6,4 km/h (2 Bft) 97,87 %
13.08.2016 17:30 24,5 C 60 % 1021,6 hPa 0,0 l/m 4,7 km/h (1 Bft) N-NO 23 2 min 0,000 mm 1,4 UV-I 409 W/m 16,2 C 24,5 C 8,0 km/h (2 Bft) 100,00 %
13.08.2016 17:32 24,5 C 60 % 1021,7 hPa 0,0 l/m 2,6 km/h (1 Bft) NW 315 2 min 0,000 mm 1,4 UV-I 400 W/m 16,2 C 24,5 C 4,8 km/h (1 Bft) 100,00 %
13.08.2016 17:34 24,4 C 58 % 1021,7 hPa 0,0 l/m 3,5 km/h (1 Bft) NW 308 2 min 0,000 mm 1,3 UV-I 395 W/m 15,6 C 24,4 C 6,4 km/h (2 Bft) 100,00 %
13.08.2016 17:36 24,3 C 60 % 1021,7 hPa 0,0 l/m 2,9 km/h (1 Bft) W-NW 282 2 min 0,000 mm 1,3 UV-I 388 W/m 16,0 C 24,3 C 6,4 km/h (2 Bft) 100,00 %
13.08.2016 17:38 24,3 C 60 % 1021,7 hPa 0,0 l/m 5,1 km/h (1 Bft) W 272 2 min 0,000 mm 1,3 UV-I 383 W/m 16,0 C 24,3 C 6,4 km/h (2 Bft) 95,74 %
13.08.2016 17:40 24,3 C 59 % 1021,7 hPa 0,0 l/m 3,2 km/h (1 Bft) W 277 2 min 0,000 mm 1,2 UV-I 378 W/m 15,8 C 24,3 C 9,7 km/h (2 Bft) 97,87 %
13.08.2016 17:42 24,2 C 58 % 1021,7 hPa 0,0 l/m 0,4 km/h (0 Bft) W 277 2 min 0,000 mm 1,2 UV-I 372 W/m 15,4 C 24,2 C 3,2 km/h (1 Bft) 97,87 %
13.08.2016 17:44 24,1 C 59 % 1021,6 hPa 0,0 l/m 0,5 km/h (0 Bft) W 277 2 min 0,000 mm 1,2 UV-I 366 W/m 15,6 C 24,1 C 1,6 km/h (1 Bft) 100,00 %
13.08.2016 17:46 24,2 C 60 % 1021,6 hPa 0,0 l/m 0,9 km/h (0 Bft) W-NW 283 2 min 0,000 mm 1,1 UV-I 360 W/m 15,9 C 24,2 C 1,6 km/h (1 Bft) 100,00 %
13.08.2016 17:48 24,4 C 62 % 1021,6 hPa 0,0 l/m 0,9 km/h (0 Bft) W-NW 291 2 min 0,000 mm 1,1 UV-I 356 W/m 16,6 C 24,4 C 3,2 km/h (1 Bft) 100,00 %
13.08.2016 17:50 24,4 C 60 % 1021,6 hPa 0,0 l/m 1,2 km/h (1 Bft) W-NW 293 2 min 0,000 mm 1,1 UV-I 351 W/m 16,1 C 24,4 C 3,2 km/h (1 Bft) 100,00 %
13.08.2016 17:52 24,4 C 60 % 1021,6 hPa 0,0 l/m 2,4 km/h (1 Bft) NW 317 2 min 0,000 mm 1,0 UV-I 347 W/m 16,1 C 24,4 C 4,8 km/h (1 Bft) 100,00 %
13.08.2016 17:54 24,4 C 61 % 1021,5 hPa 0,0 l/m 1,1 km/h (1 Bft) NW 313 2 min 0,000 mm 1,0 UV-I 341 W/m 16,4 C 24,4 C 4,8 km/h (1 Bft) 100,00 %
13.08.2016 17:56 24,3 C 60 % 1021,6 hPa 0,0 l/m 1,7 km/h (1 Bft) NW 315 2 min 0,000 mm 1,0 UV-I 336 W/m 16,0 C 24,3 C 3,2 km/h (1 Bft) 100,00 %
13.08.2016 17:58 24,3 C 60 % 1021,5 hPa 0,0 l/m 1,0 km/h (0 Bft) NW 317 2 min 0,000 mm 1,0 UV-I 327 W/m 16,0 C 24,3 C 3,2 km/h (1 Bft) 100,00 %
13.08.2016 18:00 24,3 C 60 % 1021,5 hPa 0,0 l/m 1,9 km/h (1 Bft) NW 313 2 min 0,000 mm 0,9 UV-I 320 W/m 16,0 C 24,3 C 3,2 km/h (1 Bft) 97,87 %
13.08.2016 18:02 24,3 C 60 % 1021,5 hPa 0,0 l/m 1,3 km/h (1 Bft) N-NW 327 2 min 0,280 mm 0,9 UV-I 316 W/m 16,0 C 24,3 C 3,2 km/h (1 Bft) 100,00 %
13.08.2016 18:04 24,3 C 59 % 1021,5 hPa 0,0 l/m 2,2 km/h (1 Bft) NW 311 2 min 0,000 mm 0,9 UV-I 311 W/m 15,8 C 24,3 C 4,8 km/h (1 Bft) 100,00 %
13.08.2016 18:06 24,3 C 60 % 1021,5 hPa 0,0 l/m 1,0 km/h (0 Bft) NW 313 2 min 0,000 mm 0,8 UV-I 307 W/m 16,0 C 24,3 C 1,6 km/h (1 Bft) 97,87 %
13.08.2016 18:08 24,4 C 60 % 1021,5 hPa 0,0 l/m 1,8 km/h (1 Bft) NW 321 2 min 0,000 mm 0,8 UV-I 297 W/m 16,1 C 24,4 C 4,8 km/h (1 Bft) 97,87 %
13.08.2016 18:10 24,3 C 60 % 1021,5 hPa 0,0 l/m 2,3 km/h (1 Bft) N 5 2 min 0,000 mm 0,8 UV-I 293 W/m 16,0 C 24,3 C 4,8 km/h (1 Bft) 95,74 %
13.08.2016 18:12 24,3 C 60 % 1021,4 hPa 0,0 l/m 1,8 km/h (1 Bft) N 5 2 min 0,000 mm 0,7 UV-I 289 W/m 16,0 C 24,3 C 3,2 km/h (1 Bft) 95,74 %
13.08.2016 18:14 24,2 C 59 % 1021,4 hPa 0,0 l/m 1,9 km/h (1 Bft) N 5 2 min 0,000 mm 0,7 UV-I 277 W/m 15,7 C 24,2 C 4,8 km/h (1 Bft) 95,74 %
13.08.2016 18:16 24,2 C 61 % 1021,4 hPa 0,0 l/m 1,5 km/h (1 Bft) N 5 2 min 0,000 mm 0,7 UV-I 252 W/m 16,2 C 24,2 C 3,2 km/h (1 Bft) 97,92 %
13.08.2016 18:18 24,3 C 60 % 1021,4 hPa 0,0 l/m 1,8 km/h (1 Bft) N-NW 329 2 min 0,000 mm 0,6 UV-I 254 W/m 16,0 C 24,3 C 3,2 km/h (1 Bft) 95,74 %
13.08.2016 18:20 24,3 C 61 % 1021,4 hPa 0,0 l/m 2,5 km/h (1 Bft) N-NO 17 2 min 0,000 mm 0,6 UV-I 259 W/m 16,3 C 24,3 C 6,4 km/h (2 Bft) 97,87 %
13.08.2016 18:22 24,2 C 60 % 1021,4 hPa 0,0 l/m 3,2 km/h (1 Bft) N 11 2 min 0,000 mm 0,6 UV-I 254 W/m 15,9 C 24,2 C 6,4 km/h (2 Bft) 94,00 %
13.08.2016 18:24 24,2 C 60 % 1021,3 hPa 0,0 l/m 1,9 km/h (1 Bft) N 11 2 min 0,000 mm 0,6 UV-I 254 W/m 15,9 C 24,2 C 3,2 km/h (1 Bft) 97,30 %
13.08.2016 18:26 24,1 C 61 % 1021,3 hPa 0,0 l/m 1,6 km/h (1 Bft) N-NO 12 2 min 0,000 mm 0,6 UV-I 248 W/m 16,1 C 24,1 C 4,8 km/h (1 Bft) 95,74 %
13.08.2016 18:28 24,1 C 60 % 1021,4 hPa 0,0 l/m 3,0 km/h (1 Bft) NO 50 2 min 0,000 mm 0,5 UV-I 242 W/m 15,8 C 24,1 C 4,8 km/h (1 Bft) 97,87 %
13.08.2016 18:30 24,1 C 62 % 1021,3 hPa 0,0 l/m 3,8 km/h (1 Bft) NO 49 2 min 0,000 mm 0,5 UV-I 238 W/m 16,4 C 24,1 C 6,4 km/h (2 Bft) 95,74 %
13.08.2016 18:32 24,1 C 61 % 1021,3 hPa 0,0 l/m 4,6 km/h (1 Bft) NO 44 2 min 0,000 mm 0,5 UV-I 231 W/m 16,1 C 24,1 C 6,4 km/h (2 Bft) 98,00 %
13.08.2016 18:34 24,1 C 61 % 1021,3 hPa 0,0 l/m 3,1 km/h (1 Bft) NO 44 2 min 0,000 mm 0,5 UV-I 222 W/m 16,1 C 24,1 C 4,8 km/h (1 Bft) 98,00 %
13.08.2016 18:36 24,1 C 61 % 1021,3 hPa 0,0 l/m 2,8 km/h (1 Bft) N-NO 32 2 min 0,000 mm 0,1 UV-I 215 W/m 16,1 C 24,1 C 6,4 km/h (2 Bft) 97,87 %
13.08.2016 18:38 24,0 C 61 % 1021,3 hPa 0,0 l/m 5,7 km/h (1 Bft) N-NO 31 2 min 0,000 mm 0,0 UV-I 210 W/m 16,0 C 24,0 C 8,0 km/h (2 Bft) 100,00 %
13.08.2016 18:40 23,9 C 61 % 1021,3 hPa 0,0 l/m 3,0 km/h (1 Bft) NO 44 2 min 0,000 mm 0,0 UV-I 203 W/m 15,9 C 23,9 C 6,4 km/h (2 Bft) 98,00 %
13.08.2016 18:42 24,0 C 62 % 1021,4 hPa 0,0 l/m 1,8 km/h (1 Bft) N-NO 32 2 min 0,000 mm 0,0 UV-I 195 W/m 16,3 C 24,0 C 3,2 km/h (1 Bft) 100,00 %
13.08.2016 18:44 23,9 C 61 % 1021,3 hPa 0,0 l/m 0,8 km/h (0 Bft) N-NO 32 2 min 0,000 mm 0,0 UV-I 188 W/m 15,9 C 23,9 C 3,2 km/h (1 Bft) 100,00 %
13.08.2016 18:46 23,9 C 61 % 1021,3 hPa 0,0 l/m 0,8 km/h (0 Bft) N-NO 32 2 min 0,000 mm 0,0 UV-I 182 W/m 15,9 C 23,9 C 1,6 km/h (1 Bft) 100,00 %
13.08.2016 18:48 23,9 C 61 % 1021,3 hPa 0,0 l/m 0,7 km/h (0 Bft) N-NO 18 2 min 0,000 mm 0,0 UV-I 176 W/m 15,9 C 23,9 C 3,2 km/h (1 Bft) 98,00 %
13.08.2016 18:50 23,9 C 61 % 1021,2 hPa 0,0 l/m 2,9 km/h (1 Bft) N-NO 17 2 min 0,000 mm 0,0 UV-I 169 W/m 15,9 C 23,9 C 4,8 km/h (1 Bft) 97,87 %
13.08.2016 18:52 23,9 C 61 % 1021,2 hPa 0,0 l/m 0,6 km/h (0 Bft) N-NO 17 2 min 0,000 mm 0,0 UV-I 163 W/m 15,9 C 23,9 C 1,6 km/h (1 Bft) 97,62 %
13.08.2016 18:54 23,8 C 61 % 1021,2 hPa 0,0 l/m 0,2 km/h (0 Bft) N-NO 17 2 min 0,000 mm 0,0 UV-I 145 W/m 15,8 C 23,8 C 1,6 km/h (1 Bft) 95,74 %
13.08.2016 18:56 23,9 C 62 % 1021,2 hPa 0,0 l/m 1,8 km/h (1 Bft) N-NO 17 2 min 0,000 mm 0,0 UV-I 145 W/m 16,2 C 23,9 C 3,2 km/h (1 Bft) 97,87 %
13.08.2016 18:58 23,8 C 61 % 1021,2 hPa 0,0 l/m 0,8 km/h (0 Bft) N-NO 17 2 min 0,000 mm 0,0 UV-I 134 W/m 15,8 C 23,8 C 3,2 km/h (1 Bft) 100,00 %
13.08.2016 19:00 23,8 C 61 % 1021,2 hPa 0,0 l/m 0,1 km/h (0 Bft) N-NO 17 0 min 0,000 mm 0,0 UV-I 106 W/m 15,8 C 23,8 C 1,6 km/h (1 Bft) 97,87 %
13.08.2016 19:02 23,8 C 62 % 1021,2 hPa 0,0 l/m 0,4 km/h (0 Bft) N-NO 16 2 min 0,152 mm 0,0 UV-I 113 W/m 16,1 C 23,8 C 1,6 km/h (1 Bft) 100,00 %
13.08.2016 19:04 23,7 C 61 % 1021,2 hPa 0,0 l/m 0,1 km/h (0 Bft) N-NO 16 2 min 0,000 mm 0,0 UV-I 128 W/m 15,7 C 23,7 C 1,6 km/h (1 Bft) 100,00 %
13.08.2016 19:06 23,8 C 62 % 1021,2 hPa 0,0 l/m 0,3 km/h (0 Bft) N-NO 16 2 min 0,000 mm 0,0 UV-I 121 W/m 16,1 C 23,8 C 1,6 km/h (1 Bft) 100,00 %
13.08.2016 19:08 23,8 C 62 % 1021,2 hPa 0,0 l/m 0,5 km/h (0 Bft) N-NO 16 2 min 0,000 mm 0,0 UV-I 117 W/m 16,1 C 23,8 C 1,6 km/h (1 Bft) 100,00 %
13.08.2016 19:10 23,8 C 62 % 1021,2 hPa 0,0 l/m 1,5 km/h (1 Bft) N-NO 16 2 min 0,000 mm 0,0 UV-I 112 W/m 16,1 C 23,8 C 3,2 km/h (1 Bft) 98,39 %
13.08.2016 19:12 23,8 C 62 % 1021,2 hPa 0,0 l/m 1,7 km/h (1 Bft) N-NO 16 2 min 0,000 mm 0,0 UV-I 106 W/m 16,1 C 23,8 C 4,8 km/h (1 Bft) 100,00 %
13.08.2016 19:14 23,8 C 63 % 1021,2 hPa 0,0 l/m 0,4 km/h (0 Bft) N-NO 15 2 min 0,000 mm 0,0 UV-I 102 W/m 16,3 C 23,8 C 1,6 km/h (1 Bft) 97,87 %
13.08.2016 19:16 23,7 C 62 % 1021,2 hPa 0,0 l/m 0,4 km/h (0 Bft) N-NO 14 2 min 0,000 mm 0,0 UV-I 97 W/m 16,0 C 23,7 C 1,6 km/h (1 Bft) 95,74 %
13.08.2016 19:18 23,7 C 62 % 1021,2 hPa 0,0 l/m 0,2 km/h (0 Bft) N-NO 14 2 min 0,000 mm 0,0 UV-I 93 W/m 16,0 C 23,7 C 1,6 km/h (1 Bft) 100,00 %
13.08.2016 19:20 23,6 C 62 % 1021,2 hPa 0,0 l/m 0,0 km/h (0 Bft) N-NO 14 2 min 0,000 mm 0,0 UV-I 87 W/m 15,9 C 23,6 C 0,0 km/h (0 Bft) 100,00 %
13.08.2016 19:22 23,6 C 61 % 1021,2 hPa 0,0 l/m 0,0 km/h (0 Bft) N-NO 14 2 min 0,000 mm 0,0 UV-I 83 W/m 15,6 C 23,6 C 1,6 km/h (1 Bft) 97,87 %
13.08.2016 19:24 23,7 C 62 % 1021,2 hPa 0,0 l/m 0,0 km/h (0 Bft) N-NO 14 2 min 0,000 mm 0,0 UV-I 78 W/m 16,0 C 23,7 C 1,6 km/h (1 Bft) 97,87 %
13.08.2016 19:26 23,7 C 62 % 1021,2 hPa 0,0 l/m 1,4 km/h (1 Bft) N-NO 14 2 min 0,000 mm 0,0 UV-I 75 W/m 16,0 C 23,7 C 3,2 km/h (1 Bft) 100,00 %
13.08.2016 19:28 23,6 C 68 % 1021,2 hPa 0,0 l/m 2,1 km/h (1 Bft) N-NO 14 0 min 0,000 mm 0,0 UV-I 70 W/m 17,3 C 23,6 C 3,2 km/h (1 Bft) 100,00 %
13.08.2016 19:30 23,4 C 70 % 1021,1 hPa 0,0 l/m 1,9 km/h (1 Bft) N-NO 14 0 min 0,000 mm 0,0 UV-I 66 W/m 17,6 C 23,4 C 3,2 km/h (1 Bft) 97,87 %
13.08.2016 19:32 23,3 C 70 % 1021,1 hPa 0,0 l/m 1,2 km/h (1 Bft) N-NO 14 0 min 0,000 mm 0,0 UV-I 62 W/m 17,5 C 23,3 C 3,2 km/h (1 Bft) 100,00 %
13.08.2016 19:34 23,1 C 70 % 1021,1 hPa 0,0 l/m 1,1 km/h (1 Bft) N-NO 14 0 min 0,000 mm 0,0 UV-I 58 W/m 17,3 C 23,1 C 1,6 km/h (1 Bft) 100,00 %
13.08.2016 19:36 22,9 C 68 % 1021,1 hPa 0,0 l/m 1,4 km/h (1 Bft) N-NO 14 0 min 0,000 mm 0,0 UV-I 54 W/m 16,7 C 22,9 C 3,2 km/h (1 Bft) 100,00 %
13.08.2016 19:38 23,0 C 71 % 1021,1 hPa 0,0 l/m 2,3 km/h (1 Bft) N-NO 14 0 min 0,000 mm 0,0 UV-I 50 W/m 17,4 C 23,0 C 3,2 km/h (1 Bft) 100,00 %
13.08.2016 19:40 22,8 C 71 % 1021,1 hPa 0,0 l/m 1,3 km/h (1 Bft) N-NO 14 0 min 0,000 mm 0,0 UV-I 44 W/m 17,3 C 22,8 C 3,2 km/h (1 Bft) 100,00 %
13.08.2016 19:42 22,7 C 71 % 1021,1 hPa 0,0 l/m 2,3 km/h (1 Bft) N-NO 14 0 min 0,000 mm 0,0 UV-I 40 W/m 17,2 C 22,7 C 3,2 km/h (1 Bft) 100,00 %
13.08.2016 19:44 22,6 C 72 % 1021,1 hPa 0,0 l/m 2,4 km/h (1 Bft) N-NO 14 0 min 0,000 mm 0,0 UV-I 35 W/m 17,3 C 22,6 C 3,2 km/h (1 Bft) 100,00 %
13.08.2016 19:46 22,5 C 74 % 1021,1 hPa 0,0 l/m 1,2 km/h (1 Bft) N-NO 14 0 min 0,000 mm 0,0 UV-I 32 W/m 17,6 C 22,5 C 3,2 km/h (1 Bft) 97,87 %
13.08.2016 19:48 22,3 C 74 % 1021,1 hPa 0,0 l/m 1,7 km/h (1 Bft) N-NO 15 0 min 0,000 mm 0,0 UV-I 25 W/m 17,4 C 22,3 C 4,8 km/h (1 Bft) 97,87 %
13.08.2016 19:50 22,2 C 74 % 1021,1 hPa 0,0 l/m 3,1 km/h (1 Bft) O-NO 67 0 min 0,000 mm 0,0 UV-I 20 W/m 17,3 C 22,2 C 4,8 km/h (1 Bft) 97,87 %
13.08.2016 19:52 22,0 C 75 % 1021,1 hPa 0,0 l/m 1,5 km/h (1 Bft) O-NO 67 0 min 0,000 mm 0,0 UV-I 19 W/m 17,4 C 22,0 C 3,2 km/h (1 Bft) 100,00 %
13.08.2016 19:54 21,8 C 75 % 1021,2 hPa 0,0 l/m 0,7 km/h (0 Bft) O-NO 67 0 min 0,000 mm 0,0 UV-I 18 W/m 17,2 C 21,8 C 1,6 km/h (1 Bft) 100,00 %
13.08.2016 19:56 21,7 C 75 % 1021,2 hPa 0,0 l/m 0,2 km/h (0 Bft) O-NO 67 0 min 0,000 mm 0,0 UV-I 18 W/m 17,1 C 21,7 C 1,6 km/h (1 Bft) 95,74 %
13.08.2016 19:58 21,6 C 75 % 1021,2 hPa 0,0 l/m 0,0 km/h (0 Bft) O-NO 67 0 min 0,000 mm 0,0 UV-I 16 W/m 17,0 C 21,6 C 0,0 km/h (0 Bft) 97,87 %
13.08.2016 20:00 21,4 C 76 % 1021,2 hPa 0,0 l/m 0,3 km/h (0 Bft) O-NO 67 0 min 0,000 mm 0,0 UV-I 15 W/m 17,0 C 21,4 C 1,6 km/h (1 Bft) 95,74 %
13.08.2016 20:02 21,2 C 77 % 1021,2 hPa 0,0 l/m 1,1 km/h (1 Bft) O-NO 67 0 min 0,051 mm 0,0 UV-I 14 W/m 17,0 C 21,2 C 1,6 km/h (1 Bft) 98,00 %
13.08.2016 20:04 20,9 C 78 % 1021,2 hPa 0,0 l/m 1,5 km/h (1 Bft) O-NO 67 0 min 0,000 mm 0,0 UV-I 12 W/m 16,9 C 20,9 C 3,2 km/h (1 Bft) 97,87 %
13.08.2016 20:06 20,8 C 78 % 1021,2 hPa 0,0 l/m 1,9 km/h (1 Bft) O-NO 67 0 min 0,000 mm 0,0 UV-I 12 W/m 16,8 C 20,8 C 3,2 km/h (1 Bft) 97,87 %
13.08.2016 20:08 20,6 C 79 % 1021,2 hPa 0,0 l/m 2,5 km/h (1 Bft) O-NO 67 2 min 0,000 mm 0,0 UV-I 11 W/m 16,8 C 20,6 C 3,2 km/h (1 Bft) 97,87 %
13.08.2016 20:10 20,4 C 80 % 1021,2 hPa 0,0 l/m 2,4 km/h (1 Bft) O-NO 67 0 min 0,000 mm 0,0 UV-I 11 W/m 16,8 C 20,4 C 3,2 km/h (1 Bft) 93,62 %
13.08.2016 20:12 20,2 C 81 % 1021,1 hPa 0,0 l/m 2,2 km/h (1 Bft) O-NO 67 0 min 0,000 mm 0,0 UV-I 9 W/m 16,8 C 20,2 C 3,2 km/h (1 Bft) 100,00 %
13.08.2016 20:14 20,1 C 81 % 1021,2 hPa 0,0 l/m 2,2 km/h (1 Bft) O-NO 67 0 min 0,000 mm 0,0 UV-I 9 W/m 16,7 C 20,1 C 3,2 km/h (1 Bft) 96,00 %
13.08.2016 20:16 19,9 C 82 % 1021,2 hPa 0,0 l/m 1,9 km/h (1 Bft) O-NO 67 0 min 0,000 mm 0,0 UV-I 7 W/m 16,7 C 19,9 C 3,2 km/h (1 Bft) 97,87 %
13.08.2016 20:18 19,8 C 81 % 1021,2 hPa 0,0 l/m 2,0 km/h (1 Bft) O-NO 67 0 min 0,000 mm 0,0 UV-I 7 W/m 16,4 C 19,8 C 3,2 km/h (1 Bft) 95,74 %
13.08.2016 20:20 19,8 C 81 % 1021,2 hPa 0,0 l/m 2,5 km/h (1 Bft) O-NO 67 0 min 0,000 mm 0,0 UV-I 6 W/m 16,4 C 19,8 C 3,2 km/h (1 Bft) 97,87 %
13.08.2016 20:22 19,8 C 81 % 1021,2 hPa 0,0 l/m 2,9 km/h (1 Bft) O-NO 68 0 min 0,000 mm 0,0 UV-I 5 W/m 16,4 C 19,8 C 3,2 km/h (1 Bft) 96,00 %
13.08.2016 20:24 19,8 C 81 % 1021,2 hPa 0,0 l/m 2,7 km/h (1 Bft) O-NO 67 0 min 0,000 mm 0,0 UV-I 4 W/m 16,4 C 19,8 C 3,2 km/h (1 Bft) 95,74 %
13.08.2016 20:26 19,7 C 81 % 1021,2 hPa 0,0 l/m 3,1 km/h (1 Bft) O-NO 67 0 min 0,000 mm 0,0 UV-I 0 W/m 16,3 C 19,7 C 4,8 km/h (1 Bft) 97,87 %
13.08.2016 20:28 19,7 C 82 % 1021,2 hPa 0,0 l/m 3,6 km/h (1 Bft) O-NO 68 0 min 0,000 mm 0,0 UV-I 0 W/m 16,5 C 19,7 C 4,8 km/h (1 Bft) 95,74 %
13.08.2016 20:30 19,4 C 82 % 1021,1 hPa 0,0 l/m 3,7 km/h (1 Bft) O-NO 68 0 min 0,000 mm 0,0 UV-I 0 W/m 16,2 C 19,4 C 4,8 km/h (1 Bft) 96,00 %
13.08.2016 20:32 19,2 C 83 % 1021,1 hPa 0,0 l/m 3,0 km/h (1 Bft) O-NO 68 0 min 0,000 mm 0,0 UV-I 0 W/m 16,2 C 19,2 C 3,2 km/h (1 Bft) 100,00 %
13.08.2016 20:34 19,1 C 83 % 1021,2 hPa 0,0 l/m 2,2 km/h (1 Bft) O-NO 68 0 min 0,000 mm 0,0 UV-I 0 W/m 16,1 C 19,1 C 3,2 km/h (1 Bft) 100,00 %
13.08.2016 20:36 19,1 C 83 % 1021,2 hPa 0,0 l/m 1,8 km/h (1 Bft) O-NO 68 0 min 0,000 mm 0,0 UV-I 0 W/m 16,1 C 19,1 C 3,2 km/h (1 Bft) 97,92 %
13.08.2016 20:38 19,1 C 84 % 1021,2 hPa 0,0 l/m 2,0 km/h (1 Bft) O-NO 68 0 min 0,000 mm 0,0 UV-I 0 W/m 16,3 C 19,1 C 3,2 km/h (1 Bft) 100,00 %
13.08.2016 20:40 19,0 C 84 % 1021,2 hPa 0,0 l/m 1,3 km/h (1 Bft) O-NO 68 0 min 0,000 mm 0,0 UV-I 0 W/m 16,2 C 19,0 C 3,2 km/h (1 Bft) 100,00 %
13.08.2016 20:42 19,0 C 84 % 1021,2 hPa 0,0 l/m 1,0 km/h (0 Bft) O-NO 68 0 min 0,000 mm 0,0 UV-I 0 W/m 16,2 C 19,0 C 1,6 km/h (1 Bft) 100,00 %
13.08.2016 20:44 19,0 C 84 % 1021,2 hPa 0,0 l/m 0,8 km/h (0 Bft) O-NO 68 0 min 0,000 mm 0,0 UV-I 0 W/m 16,2 C 19,0 C 1,6 km/h (1 Bft) 100,00 %
13.08.2016 20:46 19,1 C 84 % 1021,2 hPa 0,0 l/m 0,4 km/h (0 Bft) O-NO 68 0 min 0,000 mm 0,0 UV-I 0 W/m 16,3 C 19,1 C 1,6 km/h (1 Bft) 95,74 %
13.08.2016 20:48 19,1 C 84 % 1021,2 hPa 0,0 l/m 0,0 km/h (0 Bft) O-NO 68 0 min 0,000 mm 0,0 UV-I 0 W/m 16,3 C 19,1 C 0,0 km/h (0 Bft) 100,00 %
13.08.2016 20:50 19,0 C 85 % 1021,2 hPa 0,0 l/m 0,0 km/h (0 Bft) O-NO 68 0 min 0,000 mm 0,0 UV-I 0 W/m 16,4 C 19,0 C 0,0 km/h (0 Bft) 100,00 %
13.08.2016 20:52 19,0 C 85 % 1021,2 hPa 0,0 l/m 0,0 km/h (0 Bft) O-NO 68 0 min 0,000 mm 0,0 UV-I 0 W/m 16,4 C 19,0 C 0,0 km/h (0 Bft) 100,00 %
13.08.2016 20:54 18,9 C 85 % 1021,2 hPa 0,0 l/m 0,1 km/h (0 Bft) O-NO 68 0 min 0,000 mm 0,0 UV-I 0 W/m 16,3 C 18,9 C 1,6 km/h (1 Bft) 100,00 %
13.08.2016 20:56 18,9 C 85 % 1021,2 hPa 0,0 l/m 0,5 km/h (0 Bft) O-NO 68 0 min 0,000 mm 0,0 UV-I 0 W/m 16,3 C 18,9 C 1,6 km/h (1 Bft) 100,00 %
13.08.2016 20:58 18,8 C 85 % 1021,2 hPa 0,0 l/m 0,2 km/h (0 Bft) O-NO 68 0 min 0,000 mm 0,0 UV-I 0 W/m 16,2 C 18,8 C 1,6 km/h (1 Bft) 100,00 %
13.08.2016 21:00 18,8 C 85 % 1021,2 hPa 0,0 l/m 0,0 km/h (0 Bft) O-NO 68 0 min 0,000 mm 0,0 UV-I 0 W/m 16,2 C 18,8 C 1,6 km/h (1 Bft) 100,00 %
13.08.2016 21:02 18,7 C 87 % 1021,2 hPa 0,0 l/m 0,8 km/h (0 Bft) O-NO 68 0 min 0,000 mm 0,0 UV-I 0 W/m 16,5 C 18,7 C 1,6 km/h (1 Bft) 100,00 %
13.08.2016 21:04 18,6 C 87 % 1021,2 hPa 0,0 l/m 1,1 km/h (1 Bft) O-NO 68 0 min 0,000 mm 0,0 UV-I 0 W/m 16,4 C 18,6 C 1,6 km/h (1 Bft) 95,74 %
13.08.2016 21:06 18,5 C 87 % 1021,3 hPa 0,0 l/m 0,0 km/h (0 Bft) O-NO 68 0 min 0,000 mm 0,0 UV-I 0 W/m 16,3 C 18,5 C 0,0 km/h (0 Bft) 100,00 %
13.08.2016 21:08 18,4 C 87 % 1021,3 hPa 0,0 l/m 0,0 km/h (0 Bft) O-NO 68 0 min 0,000 mm 0,0 UV-I 0 W/m 16,2 C 18,4 C 0,0 km/h (0 Bft) 100,00 %
13.08.2016 21:10 18,3 C 87 % 1021,3 hPa 0,0 l/m 0,0 km/h (0 Bft) O-NO 68 0 min 0,000 mm 0,0 UV-I 0 W/m 16,1 C 18,3 C 0,0 km/h (0 Bft) 97,87 %
13.08.2016 21:12 18,3 C 87 % 1021,3 hPa 0,0 l/m 0,6 km/h (0 Bft) O-NO 68 0 min 0,000 mm 0,0 UV-I 0 W/m 16,1 C 18,3 C 1,6 km/h (1 Bft) 100,00 %
13.08.2016 21:14 18,3 C 87 % 1021,3 hPa 0,0 l/m 1,3 km/h (1 Bft) O-NO 68 0 min 0,000 mm 0,0 UV-I 0 W/m 16,1 C 18,3 C 1,6 km/h (1 Bft) 98,00 %
13.08.2016 21:16 18,3 C 87 % 1021,2 hPa 0,0 l/m 0,3 km/h (0 Bft) O-NO 68 0 min 0,000 mm 0,0 UV-I 0 W/m 16,1 C 18,3 C 1,6 km/h (1 Bft) 95,74 %
13.08.2016 21:18 18,2 C 87 % 1021,3 hPa 0,0 l/m 0,1 km/h (0 Bft) O-NO 68 0 min 0,000 mm 0,0 UV-I 0 W/m 16,0 C 18,2 C 1,6 km/h (1 Bft) 95,74 %
13.08.2016 21:20 18,1 C 88 % 1021,3 hPa 0,0 l/m 0,0 km/h (0 Bft) O-NO 68 0 min 0,000 mm 0,0 UV-I 0 W/m 16,1 C 18,1 C 0,0 km/h (0 Bft) 100,00 %
13.08.2016 21:22 18,1 C 88 % 1021,3 hPa 0,0 l/m 0,5 km/h (0 Bft) O-NO 68 0 min 0,000 mm 0,0 UV-I 0 W/m 16,1 C 18,1 C 1,6 km/h (1 Bft) 97,87 %
13.08.2016 21:24 18,1 C 88 % 1021,3 hPa 0,0 l/m 0,1 km/h (0 Bft) O-NO 68 0 min 0,000 mm 0,0 UV-I 0 W/m 16,1 C 18,1 C 1,6 km/h (1 Bft) 100,00 %
13.08.2016 21:26 18,1 C 88 % 1021,3 hPa 0,0 l/m 0,2 km/h (0 Bft) O-NO 68 0 min 0,000 mm 0,0 UV-I 0 W/m 16,1 C 18,1 C 1,6 km/h (1 Bft) 97,87 %
13.08.2016 21:28 18,1 C 88 % 1021,3 hPa 0,0 l/m 0,0 km/h (0 Bft) O-NO 68 0 min 0,000 mm 0,0 UV-I 0 W/m 16,1 C 18,1 C 0,0 km/h (0 Bft) 100,00 %
13.08.2016 21:30 18,1 C 88 % 1021,3 hPa 0,0 l/m 0,0 km/h (0 Bft) O-NO 68 0 min 0,000 mm 0,0 UV-I 0 W/m 16,1 C 18,1 C 0,0 km/h (0 Bft) 100,00 %
13.08.2016 21:32 18,1 C 88 % 1021,3 hPa 0,0 l/m 0,0 km/h (0 Bft) O-NO 68 0 min 0,000 mm 0,0 UV-I 0 W/m 16,1 C 18,1 C 0,0 km/h (0 Bft) 97,30 %
13.08.2016 21:34 18,0 C 88 % 1021,3 hPa 0,0 l/m 0,0 km/h (0 Bft) O-NO 68 0 min 0,000 mm 0,0 UV-I 0 W/m 16,0 C 18,0 C 0,0 km/h (0 Bft) 98,00 %
13.08.2016 21:36 17,9 C 88 % 1021,3 hPa 0,0 l/m 2,2 km/h (1 Bft) O-NO 69 0 min 0,000 mm 0,0 UV-I 0 W/m 15,9 C 17,9 C 4,8 km/h (1 Bft) 100,00 %
13.08.2016 21:38 17,8 C 88 % 1021,3 hPa 0,0 l/m 2,0 km/h (1 Bft) O-NO 70 0 min 0,000 mm 0,0 UV-I 0 W/m 15,8 C 17,8 C 3,2 km/h (1 Bft) 97,87 %
13.08.2016 21:40 17,8 C 88 % 1021,3 hPa 0,0 l/m 1,0 km/h (0 Bft) O-NO 70 0 min 0,000 mm 0,0 UV-I 0 W/m 15,8 C 17,8 C 3,2 km/h (1 Bft) 100,00 %
13.08.2016 21:42 17,8 C 88 % 1021,3 hPa 0,0 l/m 0,1 km/h (0 Bft) O-NO 70 0 min 0,000 mm 0,0 UV-I 0 W/m 15,8 C 17,8 C 1,6 km/h (1 Bft) 98,11 %
13.08.2016 21:44 17,8 C 89 % 1021,3 hPa 0,0 l/m 0,0 km/h (0 Bft) O-NO 70 0 min 0,000 mm 0,0 UV-I 0 W/m 16,0 C 17,8 C 0,0 km/h (0 Bft) 100,00 %
13.08.2016 21:46 17,8 C 89 % 1021,3 hPa 0,0 l/m 0,2 km/h (0 Bft) O-NO 70 0 min 0,000 mm 0,0 UV-I 0 W/m 16,0 C 17,8 C 1,6 km/h (1 Bft) 100,00 %
13.08.2016 21:48 17,7 C 89 % 1021,3 hPa 0,0 l/m 0,8 km/h (0 Bft) O-NO 70 0 min 0,000 mm 0,0 UV-I 0 W/m 15,9 C 17,7 C 3,2 km/h (1 Bft) 100,00 %
13.08.2016 21:50 17,6 C 89 % 1021,4 hPa 0,0 l/m 2,2 km/h (1 Bft) O-NO 70 0 min 0,000 mm 0,0 UV-I 0 W/m 15,8 C 17,6 C 3,2 km/h (1 Bft) 100,00 %
13.08.2016 21:52 17,5 C 89 % 1021,3 hPa 0,0 l/m 2,8 km/h (1 Bft) O-NO 70 0 min 0,000 mm 0,0 UV-I 0 W/m 15,7 C 17,5 C 3,2 km/h (1 Bft) 100,00 %
13.08.2016 21:54 17,4 C 90 % 1021,3 hPa 0,0 l/m 2,1 km/h (1 Bft) O-NO 70 0 min 0,000 mm 0,0 UV-I 0 W/m 15,7 C 17,4 C 3,2 km/h (1 Bft) 100,00 %
13.08.2016 21:56 17,5 C 91 % 1021,3 hPa 0,0 l/m 1,5 km/h (1 Bft) O-NO 70 0 min 0,000 mm 0,0 UV-I 0 W/m 16,0 C 17,5 C 3,2 km/h (1 Bft) 100,00 %
13.08.2016 21:58 17,4 C 90 % 1021,3 hPa 0,0 l/m 1,2 km/h (1 Bft) O-NO 70 0 min 0,000 mm 0,0 UV-I 0 W/m 15,7 C 17,4 C 1,6 km/h (1 Bft) 100,00 %
13.08.2016 22:00 17,4 C 90 % 1021,3 hPa 0,0 l/m 1,7 km/h (1 Bft) O-NO 70 0 min 0,000 mm 0,0 UV-I 0 W/m 15,7 C 17,4 C 3,2 km/h (1 Bft) 100,00 %
13.08.2016 22:02 17,4 C 90 % 1021,3 hPa 0,0 l/m 2,0 km/h (1 Bft) O-NO 70 0 min 0,000 mm 0,0 UV-I 0 W/m 15,7 C 17,4 C 3,2 km/h (1 Bft) 94,74 %
13.08.2016 22:04 17,3 C 90 % 1021,3 hPa 0,0 l/m 1,9 km/h (1 Bft) O-NO 70 0 min 0,000 mm 0,0 UV-I 0 W/m 15,6 C 17,3 C 3,2 km/h (1 Bft) 98,00 %
13.08.2016 22:06 17,3 C 90 % 1021,3 hPa 0,0 l/m 1,9 km/h (1 Bft) O-NO 70 0 min 0,000 mm 0,0 UV-I 0 W/m 15,6 C 17,3 C 3,2 km/h (1 Bft) 97,87 %
13.08.2016 22:08 17,3 C 91 % 1021,3 hPa 0,0 l/m 1,8 km/h (1 Bft) O-NO 70 0 min 0,000 mm 0,0 UV-I 0 W/m 15,8 C 17,3 C 3,2 km/h (1 Bft) 93,75 %
13.08.2016 22:10 17,3 C 91 % 1021,3 hPa 0,0 l/m 2,3 km/h (1 Bft) O-NO 70 0 min 0,000 mm 0,0 UV-I 0 W/m 15,8 C 17,3 C 3,2 km/h (1 Bft) 97,87 %
13.08.2016 22:12 17,2 C 90 % 1021,3 hPa 0,0 l/m 2,1 km/h (1 Bft) O-NO 70 0 min 0,000 mm 0,0 UV-I 0 W/m 15,5 C 17,2 C 3,2 km/h (1 Bft) 95,74 %
13.08.2016 22:14 17,2 C 91 % 1021,3 hPa 0,0 l/m 2,4 km/h (1 Bft) O-NO 70 0 min 0,000 mm 0,0 UV-I 0 W/m 15,7 C 17,2 C 3,2 km/h (1 Bft) 97,87 %
13.08.2016 22:16 17,2 C 91 % 1021,3 hPa 0,0 l/m 2,2 km/h (1 Bft) O-NO 70 0 min 0,000 mm 0,0 UV-I 0 W/m 15,7 C 17,2 C 3,2 km/h (1 Bft) 95,74 %
13.08.2016 22:18 17,2 C 91 % 1021,4 hPa 0,0 l/m 2,4 km/h (1 Bft) O-NO 70 0 min 0,000 mm 0,0 UV-I 0 W/m 15,7 C 17,2 C 3,2 km/h (1 Bft) 97,87 %
13.08.2016 22:20 17,2 C 91 % 1021,4 hPa 0,0 l/m 2,5 km/h (1 Bft) O-NO 70 0 min 0,000 mm 0,0 UV-I 0 W/m 15,7 C 17,2 C 3,2 km/h (1 Bft) 95,74 %
13.08.2016 22:22 17,2 C 91 % 1021,4 hPa 0,0 l/m 2,3 km/h (1 Bft) O-NO 70 0 min 0,000 mm 0,0 UV-I 0 W/m 15,7 C 17,2 C 3,2 km/h (1 Bft) 95,74 %
13.08.2016 22:24 17,2 C 90 % 1021,4 hPa 0,0 l/m 2,1 km/h (1 Bft) O-NO 70 0 min 0,000 mm 0,0 UV-I 0 W/m 15,5 C 17,2 C 3,2 km/h (1 Bft) 97,87 %
13.08.2016 22:26 17,2 C 91 % 1021,4 hPa 0,0 l/m 1,6 km/h (1 Bft) O-NO 70 0 min 0,000 mm 0,0 UV-I 0 W/m 15,7 C 17,2 C 3,2 km/h (1 Bft) 95,74 %
13.08.2016 22:28 17,2 C 90 % 1021,4 hPa 0,0 l/m 2,0 km/h (1 Bft) O-NO 70 0 min 0,000 mm 0,0 UV-I 0 W/m 15,5 C 17,2 C 3,2 km/h (1 Bft) 97,87 %
13.08.2016 22:30 17,2 C 90 % 1021,4 hPa 0,0 l/m 2,0 km/h (1 Bft) O-NO 70 0 min 0,000 mm 0,0 UV-I 0 W/m 15,5 C 17,2 C 3,2 km/h (1 Bft) 95,74 %
13.08.2016 22:32 17,1 C 91 % 1021,4 hPa 0,0 l/m 2,2 km/h (1 Bft) O-NO 70 0 min 0,000 mm 0,0 UV-I 0 W/m 15,6 C 17,1 C 3,2 km/h (1 Bft) 95,74 %
13.08.2016 22:34 17,1 C 91 % 1021,5 hPa 0,0 l/m 2,2 km/h (1 Bft) O-NO 70 0 min 0,000 mm 0,0 UV-I 0 W/m 15,6 C 17,1 C 3,2 km/h (1 Bft) 95,74 %
13.08.2016 22:36 17,1 C 91 % 1021,4 hPa 0,0 l/m 2,0 km/h (1 Bft) O-NO 70 0 min 0,000 mm 0,0 UV-I 0 W/m 15,6 C 17,1 C 3,2 km/h (1 Bft) 97,96 %
13.08.2016 22:38 17,0 C 91 % 1021,4 hPa 0,0 l/m 1,3 km/h (1 Bft) O-NO 70 0 min 0,000 mm 0,0 UV-I 0 W/m 15,5 C 17,0 C 3,2 km/h (1 Bft) 91,43 %
13.08.2016 22:40 16,9 C 91 % 1021,4 hPa 0,0 l/m 1,2 km/h (1 Bft) O-NO 70 0 min 0,000 mm 0,0 UV-I 0 W/m 15,4 C 16,9 C 1,6 km/h (1 Bft) 100,00 %
13.08.2016 22:42 17,0 C 91 % 1021,4 hPa 0,0 l/m 1,4 km/h (1 Bft) O-NO 70 0 min 0,000 mm 0,0 UV-I 0 W/m 15,5 C 17,0 C 1,6 km/h (1 Bft) 95,74 %
13.08.2016 22:44 16,9 C 91 % 1021,4 hPa 0,0 l/m 2,0 km/h (1 Bft) O-NO 70 0 min 0,000 mm 0,0 UV-I 0 W/m 15,4 C 16,9 C 3,2 km/h (1 Bft) 98,00 %
13.08.2016 22:46 16,9 C 91 % 1021,4 hPa 0,0 l/m 2,7 km/h (1 Bft) O-NO 70 0 min 0,000 mm 0,0 UV-I 0 W/m 15,4 C 16,9 C 3,2 km/h (1 Bft) 100,00 %
13.08.2016 22:48 16,9 C 91 % 1021,3 hPa 0,0 l/m 3,8 km/h (1 Bft) O-SO 122 0 min 0,000 mm 0,0 UV-I 0 W/m 15,4 C 16,9 C 4,8 km/h (1 Bft) 100,00 %
13.08.2016 22:50 16,9 C 91 % 1021,3 hPa 0,0 l/m 4,5 km/h (1 Bft) SO 144 0 min 0,000 mm 0,0 UV-I 0 W/m 15,4 C 16,9 C 6,4 km/h (2 Bft) 97,87 %
13.08.2016 22:52 17,0 C 91 % 1021,3 hPa 0,0 l/m 5,3 km/h (1 Bft) S-SO 167 0 min 0,000 mm 0,0 UV-I 0 W/m 15,5 C 17,0 C 8,0 km/h (2 Bft) 97,92 %
13.08.2016 22:54 17,0 C 90 % 1021,2 hPa 0,0 l/m 5,0 km/h (1 Bft) S-SO 167 0 min 0,000 mm 0,0 UV-I 0 W/m 15,3 C 17,0 C 6,4 km/h (2 Bft) 100,00 %
13.08.2016 22:56 16,9 C 90 % 1021,3 hPa 0,0 l/m 5,8 km/h (2 Bft) S-SO 167 0 min 0,000 mm 0,0 UV-I 0 W/m 15,2 C 16,9 C 6,4 km/h (2 Bft) 100,00 %
13.08.2016 22:58 16,9 C 91 % 1021,3 hPa 0,0 l/m 5,5 km/h (1 Bft) S-SO 167 0 min 0,000 mm 0,0 UV-I 0 W/m 15,4 C 16,9 C 6,4 km/h (2 Bft) 100,00 %
13.08.2016 23:00 16,9 C 91 % 1021,3 hPa 0,0 l/m 5,7 km/h (1 Bft) S-SO 167 0 min 0,000 mm 0,0 UV-I 0 W/m 15,4 C 16,9 C 6,4 km/h (2 Bft) 100,00 %
13.08.2016 23:02 16,9 C 91 % 1021,2 hPa 0,0 l/m 5,8 km/h (2 Bft) S-SO 167 0 min 0,000 mm 0,0 UV-I 0 W/m 15,4 C 16,9 C 6,4 km/h (2 Bft) 100,00 %
13.08.2016 23:04 16,9 C 91 % 1021,2 hPa 0,0 l/m 5,8 km/h (2 Bft) S-SO 167 0 min 0,000 mm 0,0 UV-I 0 W/m 15,4 C 16,9 C 8,0 km/h (2 Bft) 100,00 %
13.08.2016 23:06 16,9 C 91 % 1021,3 hPa 0,0 l/m 5,4 km/h (1 Bft) S 169 0 min 0,000 mm 0,0 UV-I 0 W/m 15,4 C 16,9 C 8,0 km/h (2 Bft) 100,00 %
13.08.2016 23:08 16,9 C 91 % 1021,3 hPa 0,0 l/m 4,4 km/h (1 Bft) S 169 0 min 0,000 mm 0,0 UV-I 0 W/m 15,4 C 16,9 C 6,4 km/h (2 Bft) 97,87 %
13.08.2016 23:10 17,0 C 91 % 1021,3 hPa 0,0 l/m 4,6 km/h (1 Bft) S 169 0 min 0,000 mm 0,0 UV-I 0 W/m 15,5 C 17,0 C 6,4 km/h (2 Bft) 100,00 %
13.08.2016 23:12 17,0 C 91 % 1021,3 hPa 0,0 l/m 4,8 km/h (1 Bft) S 169 0 min 0,000 mm 0,0 UV-I 0 W/m 15,5 C 17,0 C 6,4 km/h (2 Bft) 100,00 %
13.08.2016 23:14 17,0 C 91 % 1021,2 hPa 0,0 l/m 4,4 km/h (1 Bft) S 169 0 min 0,000 mm 0,0 UV-I 0 W/m 15,5 C 17,0 C 6,4 km/h (2 Bft) 100,00 %
13.08.2016 23:16 17,1 C 91 % 1021,3 hPa 0,0 l/m 4,2 km/h (1 Bft) S 169 0 min 0,000 mm 0,0 UV-I 0 W/m 15,6 C 17,1 C 6,4 km/h (2 Bft) 100,00 %
13.08.2016 23:18 17,0 C 91 % 1021,3 hPa 0,0 l/m 5,9 km/h (2 Bft) S 169 0 min 0,000 mm 0,0 UV-I 0 W/m 15,5 C 17,0 C 8,0 km/h (2 Bft) 97,87 %
13.08.2016 23:20 17,1 C 91 % 1021,3 hPa 0,0 l/m 6,0 km/h (2 Bft) S 169 0 min 0,000 mm 0,0 UV-I 0 W/m 15,6 C 17,1 C 8,0 km/h (2 Bft) 100,00 %
13.08.2016 23:22 17,1 C 91 % 1021,2 hPa 0,0 l/m 3,5 km/h (1 Bft) S 169 0 min 0,000 mm 0,0 UV-I 0 W/m 15,6 C 17,1 C 6,4 km/h (2 Bft) 100,00 %
13.08.2016 23:24 17,0 C 91 % 1021,3 hPa 0,0 l/m 2,7 km/h (1 Bft) S 169 0 min 0,000 mm 0,0 UV-I 0 W/m 15,5 C 17,0 C 3,2 km/h (1 Bft) 100,00 %
13.08.2016 23:26 17,0 C 91 % 1021,3 hPa 0,0 l/m 3,7 km/h (1 Bft) S 169 0 min 0,000 mm 0,0 UV-I 0 W/m 15,5 C 17,0 C 6,4 km/h (2 Bft) 97,87 %
13.08.2016 23:28 16,9 C 91 % 1021,3 hPa 0,0 l/m 3,8 km/h (1 Bft) S 169 0 min 0,000 mm 0,0 UV-I 0 W/m 15,4 C 16,9 C 6,4 km/h (2 Bft) 100,00 %
13.08.2016 23:30 16,9 C 91 % 1021,3 hPa 0,0 l/m 5,0 km/h (1 Bft) S 182 0 min 0,000 mm 0,0 UV-I 0 W/m 15,4 C 16,9 C 8,0 km/h (2 Bft) 97,92 %
13.08.2016 23:32 16,9 C 91 % 1021,4 hPa 0,0 l/m 5,0 km/h (1 Bft) S-SW 211 0 min 0,000 mm 0,0 UV-I 0 W/m 15,4 C 16,9 C 8,0 km/h (2 Bft) 100,00 %
13.08.2016 23:34 16,9 C 91 % 1021,4 hPa 0,0 l/m 4,1 km/h (1 Bft) S 189 0 min 0,000 mm 0,0 UV-I 0 W/m 15,4 C 16,9 C 6,4 km/h (2 Bft) 100,00 %
13.08.2016 23:36 16,9 C 91 % 1021,5 hPa 0,0 l/m 4,0 km/h (1 Bft) S 191 0 min 0,000 mm 0,0 UV-I 0 W/m 15,4 C 16,9 C 6,4 km/h (2 Bft) 100,00 %
13.08.2016 23:38 16,9 C 91 % 1021,5 hPa 0,0 l/m 4,4 km/h (1 Bft) S 189 0 min 0,000 mm 0,0 UV-I 0 W/m 15,4 C 16,9 C 6,4 km/h (2 Bft) 100,00 %
13.08.2016 23:40 16,8 C 91 % 1021,4 hPa 0,0 l/m 3,9 km/h (1 Bft) S 187 0 min 0,000 mm 0,0 UV-I 0 W/m 15,3 C 16,8 C 4,8 km/h (1 Bft) 100,00 %
13.08.2016 23:42 16,8 C 92 % 1021,4 hPa 0,0 l/m 2,7 km/h (1 Bft) S 187 0 min 0,000 mm 0,0 UV-I 0 W/m 15,5 C 16,8 C 4,8 km/h (1 Bft) 100,00 %
13.08.2016 23:44 16,8 C 92 % 1021,4 hPa 0,0 l/m 3,4 km/h (1 Bft) S 187 0 min 0,000 mm 0,0 UV-I 0 W/m 15,5 C 16,8 C 4,8 km/h (1 Bft) 97,87 %
13.08.2016 23:46 16,8 C 92 % 1021,4 hPa 0,0 l/m 3,1 km/h (1 Bft) S 187 0 min 0,000 mm 0,0 UV-I 0 W/m 15,5 C 16,8 C 6,4 km/h (2 Bft) 100,00 %
13.08.2016 23:48 16,8 C 92 % 1021,4 hPa 0,0 l/m 3,9 km/h (1 Bft) S 190 0 min 0,000 mm 0,0 UV-I 0 W/m 15,5 C 16,8 C 6,4 km/h (2 Bft) 100,00 %
13.08.2016 23:50 16,8 C 92 % 1021,3 hPa 0,0 l/m 2,7 km/h (1 Bft) S 190 0 min 0,000 mm 0,0 UV-I 0 W/m 15,5 C 16,8 C 4,8 km/h (1 Bft) 97,87 %
13.08.2016 23:52 16,8 C 91 % 1021,3 hPa 0,0 l/m 2,5 km/h (1 Bft) S 190 0 min 0,000 mm 0,0 UV-I 0 W/m 15,3 C 16,8 C 4,8 km/h (1 Bft) 95,74 %
13.08.2016 23:54 16,8 C 91 % 1021,3 hPa 0,0 l/m 3,4 km/h (1 Bft) S 191 0 min 0,000 mm 0,0 UV-I 0 W/m 15,3 C 16,8 C 4,8 km/h (1 Bft) 96,00 %
13.08.2016 23:56 16,7 C 92 % 1021,3 hPa 0,0 l/m 4,0 km/h (1 Bft) S-SW 194 0 min 0,000 mm 0,0 UV-I 0 W/m 15,4 C 16,7 C 6,4 km/h (2 Bft) 97,87 %
13.08.2016 23:58 16,7 C 92 % 1021,3 hPa 0,0 l/m 4,0 km/h (1 Bft) S-SW 196 0 min 0,000 mm 0,0 UV-I 0 W/m 15,4 C 16,7 C 6,4 km/h (2 Bft) 95,74 %
_ Min-Zeit 00:00 17:10 19:30 - 19:20 - - - - - - 00:00 01:50 19:20 22:38
Minimum _ 14,6 C 58 % 1021,1 hPa - 0,0 km/h (0 Bft) - - - - - - 13,8 C 11,6 C 0,0 km/h (0 Bft) 91,43 %
_ Max-Zeit 16:20 00:00 00:00 01:58 02:28 - - 08:14 14:00 13:24 12:14 13:20 17:00 00:30 00:00
Maximum _ 24,8 C 95 % 1026,0 hPa 0,2 l/m 13,3 km/h
W-SW (3 Bft)
- - 2 min 0,432 mm 6,6 UV-I 1185 W/m 18,4 C 24,8 C 20,9 km/h
S-SW (4 Bft)
100,00 %
Durchschnitt _ 18,9 C 82 % 1023,6 hPa #0,2 l/m 5,1 km/h (1 Bft) W-SW - #7:26 h #3,226 mm 3,0 UV-I 366 W/m 15,5 C 18,5 C 8,6 km/h (2 Bft) 98,39 %